GFSNW_sfc_thetae_000.txt.gz
Theta_e
313 313 312 312 311 310 313 328 313 326 329 313 312 305 304 298 304 306 304 304 303 300 301 299 299 298 301 305 304 300 303 298 292 295 303 303 301 298 298 290 289 292 290 290
314 313 312 312 311 310 318 315 314 327 326 307 305 305 303 305 303 304 303 302 304 304 301 298 300 301 305 305 303 300 301 297 289 293 299 301 298 299 299 298 293 289 285 289
314 313 313 312 311 311 318 315 307 316 318 314 307 304 303 301 306 304 305 303 305 303 301 303 299 300 304 306 305 302 302 297 293 288 293 297 294 297 298 296 290 290 291 293
313 314 313 312 311 310 320 314 309 310 308 310 308 307 304 302 301 305 305 303 302 301 295 297 297 301 302 305 303 304 302 294 296 296 297 296 295 294 296 294 295 289 292 294
313 313 312 311 311 309 321 313 311 311 307 306 306 302 302 301 302 302 301 300 303 303 300 299 297 300 301 300 304 303 303 292 292 290 295 296 292 294 296 295 295 295 296 295
312 314 312 311 310 312 318 317 315 314 304 306 306 305 302 302 303 305 304 304 303 298 303 306 306 306 305 304 301 300 299 293 287 286 292 290 285 291 294 296 297 296 291 296
311 309 308 311 310 310 323 320 317 303 304 309 303 303 304 303 304 303 305 306 299 307 312 310 307 305 304 303 302 303 295 290 287 285 286 281 294 300 298 296 298 299 298 298
311 308 310 312 311 310 322 322 317 307 290 307 304 304 304 305 306 304 304 306 310 313 308 299 290 294 291 293 300 301 302 292 288 285 286 289 292 296 296 293 293 299 298 300
309 309 310 311 310 311 319 323 324 315 293 302 307 305 306 304 305 306 306 311 312 309 304 293 286 287 290 291 293 301 298 294 293 289 283 280 292 297 301 301 288 300 300 299
308 308 308 308 309 310 317 323 327 317 305 309 309 305 306 308 306 303 306 306 302 308 295 288 287 289 294 288 286 287 291 290 287 287 285 288 297 300 303 287 289 299 300 300
308 308 307 307 307 308 314 323 327 320 308 310 312 312 308 308 307 304 305 303 306 299 290 289 291 288 293 292 294 291 289 288 286 286 284 283 302 301 290 297 302 301 301 300
307 307 307 307 307 308 309 315 326 323 314 311 318 318 319 315 312 308 309 304 304 304 297 293 292 288 289 288 285 296 288 293 291 292 291 300 303 301 304 303 302 302 301 301
307 307 307 307 307 307 310 316 320 316 295 307 309 309 316 319 318 320 306 310 309 306 310 303 290 287 295 286 289 290 296 299 293 292 296 298 301 303 304 304 302 302 302 301
305 306 306 306 307 307 308 313 319 314 298 287 298 313 312 317 317 317 316 313 313 311 309 294 288 286 296 289 292 292 296 297 293 292 297 299 301 303 303 303 303 301 302 301
305 305 305 306 306 307 309 312 316 317 306 291 294 304 311 313 315 313 313 312 309 306 298 289 288 297 293 296 292 291 297 294 291 290 298 298 299 303 304 301 300 301 298 296
305 305 306 306 306 306 306 299 309 311 311 293 287 301 301 308 310 310 309 310 309 307 301 292 297 301 293 286 289 297 300 301 302 298 302 302 303 302 302 300 300 299 296 296
304 304 305 305 305 307 301 297 303 308 310 288 288 293 298 303 305 306 306 309 306 304 299 293 292 293 296 286 288 297 300 301 301 303 302 297 299 298 300 299 298 297 297 297
304 304 304 305 305 304 299 303 304 306 298 291 287 287 290 300 297 294 300 297 295 295 294 292 291 295 291 287 295 298 300 300 301 300 301 300 298 297 296 297 296 295 294 294
303 303 303 303 300 294 297 303 303 303 296 287 285 285 286 298 294 292 291 293 286 294 288 291 293 292 288 293 296 297 299 298 298 298 297 296 294 294 294 294 294 293 293 292
302 303 296 289 295 302 302 298 291 290 289 289 285 292 289 297 291 288 289 289 286 285 290 296 290 290 297 298 299 299 298 296 296 293 291 292 292 293 293 293 294 294 291 290
302 296 291 298 301 299 295 288 286 287 285 287 289 291 291 297 288 286 289 286 287 284 289 290 288 287 293 297 298 297 296 296 295 295 294 294 294 293 292 292 292 290 289 288
300 300 301 300 296 293 287 286 288 286 286 291 289 290 293 292 296 290 291 286 288 281 292 285 283 290 294 295 295 295 295 294 293 294 293 293 293 294 291 291 291 288 287 284
302 297 291 292 289 284 282 281 284 286 289 288 289 287 291 291 291 287 286 283 282 289 284 283 287 293 295 295 293 293 293 292 290 291 292 293 293 292 287 287 287 286 285 285
293 287 282 285 283 284 286 287 286 286 287 289 290 288 289 289 285 286 281 286 287 281 280 282 290 291 292 293 293 291 290 287 287 289 290 289 288 286 286 286 284 284 283 284
288 288 281 283 289 288 286 289 289 289 291 291 289 290 288 286 283 285 284 280 278 281 282 289 291 293 293 292 293 291 288 286 286 290 289 287 286 286 286 286 285 285 284 283
288 285 284 288 286 285 285 285 286 291 292 291 290 285 282 281 283 280 279 279 278 284 291 291 292 291 291 290 290 290 290 288 289 290 290 289 287 286 287 287 285 285 284 284
283 285 289 287 287 285 287 287 288 294 288 284 286 279 279 285 280 279 283 282 286 289 290 291 291 290 290 290 290 287 288 289 289 290 289 289 288 287 285 284 285 285 285 284

GFSNW_sfc_thetae_003.txt.gz
Theta_e
313 313 313 312 311 311 315 316 305 316 320 305 304 295 301 299 303 305 304 302 301 298 299 297 297 297 299 303 301 297 298 292 283 292 299 301 297 296 296 286 286 284 282 286
313 313 312 312 311 310 306 310 308 319 317 290 290 300 302 303 303 302 303 301 302 302 298 291 298 299 303 302 301 296 297 288 281 287 293 297 295 296 296 292 286 284 281 285
313 313 312 312 311 310 310 309 293 308 311 308 301 299 300 299 304 303 304 302 303 300 298 300 295 298 303 304 302 302 300 293 287 282 288 293 290 293 294 292 278 284 286 289
313 313 312 311 311 310 313 308 299 303 293 298 301 301 302 300 299 304 304 301 301 298 290 292 293 299 302 303 301 301 298 287 291 293 295 295 294 293 293 291 290 285 289 290
312 312 312 310 310 309 314 303 301 306 300 303 301 297 299 299 300 300 300 298 301 300 294 297 293 297 297 295 299 297 299 286 288 288 294 294 290 291 292 291 291 291 291 290
311 312 308 308 310 310 313 310 308 306 298 297 292 294 300 301 302 302 303 301 299 292 300 301 301 301 301 300 297 292 292 285 284 286 290 288 281 287 290 291 293 291 285 290
311 309 308 310 309 309 313 313 310 293 289 290 296 302 302 301 302 299 303 302 293 303 308 304 299 297 298 298 298 298 287 283 282 284 282 279 289 296 295 292 294 294 295 296
310 308 307 310 309 309 312 315 310 295 287 295 299 301 301 301 302 299 302 304 306 306 300 289 286 284 285 288 297 296 296 285 284 284 282 285 289 293 290 289 289 296 295 297
310 309 309 310 309 310 313 316 315 301 289 292 305 299 300 291 291 293 299 307 307 304 288 288 283 276 283 284 290 297 293 289 285 281 278 278 285 294 299 297 285 296 298 297
308 309 308 308 309 309 311 313 319 310 296 302 303 296 295 302 296 292 295 298 294 301 288 285 285 282 290 281 280 280 282 280 278 273 280 283 292 297 300 283 287 295 298 299
308 308 308 308 308 308 311 313 319 311 298 303 307 309 303 302 298 288 297 295 292 289 286 286 285 286 284 283 288 283 282 279 282 281 283 279 297 295 286 292 295 299 296 296
307 307 307 307 308 308 309 309 318 317 305 304 313 313 313 311 308 303 299 296 297 295 286 286 286 286 286 285 284 292 285 287 282 285 284 294 297 296 298 300 298 297 297 298
306 306 307 307 307 308 310 310 313 309 293 302 303 303 311 316 313 314 296 294 303 300 301 292 288 287 288 285 286 286 293 296 288 287 293 295 297 299 300 300 298 301 301 300
306 306 306 306 307 308 308 309 314 309 297 287 296 308 307 314 313 312 311 307 308 306 301 289 287 286 295 287 291 290 293 292 290 290 294 296 297 297 299 300 302 301 300 298
305 305 306 306 307 307 307 309 312 313 305 289 291 301 307 310 310 310 309 308 305 297 291 287 287 290 290 289 288 288 295 292 289 288 295 295 296 298 301 300 299 300 297 294
305 305 306 306 306 306 306 299 307 311 311 293 287 299 299 304 306 305 306 305 304 302 295 288 293 298 293 286 288 294 297 299 299 296 299 299 299 299 299 298 298 296 295 294
304 305 305 305 305 307 301 297 302 308 309 289 288 289 295 298 300 301 301 303 301 300 295 291 291 292 295 286 288 295 298 298 299 300 300 298 298 295 297 296 296 296 295 295
304 304 304 305 306 304 299 302 304 307 300 291 288 287 288 297 290 288 293 289 291 294 293 290 289 292 289 286 294 296 297 298 298 299 300 297 295 294 293 294 294 293 292 292
304 304 304 302 299 294 297 303 302 301 297 289 285 285 285 296 291 289 289 291 285 291 286 288 291 287 287 291 293 295 296 295 295 295 295 293 292 292 292 292 292 291 292 290
303 301 295 288 293 302 302 297 290 289 288 288 285 289 287 294 287 286 286 286 285 283 286 290 286 285 293 295 296 297 295 294 295 289 288 289 288 290 290 290 291 290 288 288
299 291 288 296 302 298 291 285 285 285 284 285 286 288 287 292 286 285 286 284 285 281 279 280 276 280 288 293 294 295 295 295 294 292 292 291 290 290 289 286 286 284 283 284
297 296 299 297 294 288 285 284 285 284 281 286 286 287 290 288 293 286 286 282 282 276 282 279 278 282 290 292 292 293 291 291 290 289 288 289 290 289 286 285 284 282 283 282
299 292 287 290 286 282 278 277 282 280 286 287 286 286 286 288 288 285 284 280 279 280 280 277 278 287 291 290 290 290 289 286 285 288 288 289 288 288 282 282 280 285 284 281
285 283 276 278 278 277 281 282 285 285 286 286 286 285 283 284 282 283 279 278 279 273 270 272 279 286 289 290 289 289 289 283 283 285 285 283 281 282 280 277 284 284 280 282
283 281 274 275 281 284 285 286 286 286 287 287 285 285 283 277 276 276 274 271 275 273 272 275 281 286 286 287 289 288 282 279 280 285 282 281 280 285 286 286 285 283 282 282
283 280 276 279 278 283 283 285 285 287 286 285 282 278 273 272 274 271 271 270 271 273 276 279 281 285 286 286 285 285 285 285 285 285 284 284 280 284 286 286 285 285 283 281
278 276 282 284 282 284 284 285 284 289 281 275 275 271 273 277 270 270 277 272 274 276 278 280 283 284 285 285 285 283 284 285 284 284 284 284 281 281 284 284 284 283 281 281

GFSNW_sfc_thetae_006.txt.gz
Theta_e
312 312 311 311 310 310 310 311 296 308 314 300 297 292 298 299 300 303 302 301 299 296 296 295 295 295 297 300 300 295 297 289 283 290 296 298 295 293 292 281 284 282 281 285
311 311 311 311 310 309 307 304 304 313 312 288 287 298 300 301 301 300 301 299 300 300 296 290 296 297 301 300 299 295 295 286 280 285 290 295 293 294 293 290 283 282 276 282
311 311 311 311 310 310 309 302 293 301 304 302 297 296 297 297 302 301 302 300 301 298 296 297 293 296 301 301 300 301 298 291 285 281 285 291 289 292 293 289 277 284 286 287
311 311 310 309 309 309 311 303 296 300 290 295 297 299 300 298 297 302 301 299 299 296 289 291 292 297 298 300 300 298 295 286 289 291 292 293 293 292 292 290 289 282 286 287
310 310 306 307 309 310 306 300 300 301 298 301 297 294 296 297 298 299 298 297 299 298 293 294 290 295 294 294 297 294 296 285 286 288 292 292 289 292 291 290 290 289 289 288
310 307 306 309 309 311 307 307 305 301 294 293 289 291 297 298 300 300 301 299 296 290 298 300 300 300 299 298 295 290 290 284 280 283 287 286 284 287 288 289 291 289 284 288
310 306 306 308 308 309 310 308 303 292 287 286 292 300 300 299 299 297 301 299 293 301 304 301 298 294 294 295 295 297 285 282 281 279 283 278 289 293 293 290 291 292 293 294
310 305 307 308 308 309 310 310 305 293 286 291 295 298 298 298 298 297 299 302 303 303 296 286 282 282 283 285 295 294 294 286 283 280 281 285 289 291 288 286 288 294 293 295
309 309 309 309 308 309 311 312 308 298 289 290 302 297 298 290 288 291 297 304 304 299 287 282 275 275 281 284 288 295 291 285 280 282 279 278 284 291 296 295 283 295 295 295
308 308 308 309 308 309 310 310 314 305 292 300 302 295 294 299 292 290 291 297 292 296 287 281 281 279 287 281 277 278 280 283 277 273 278 280 289 294 296 279 283 292 295 296
307 308 308 308 308 308 310 311 315 308 296 301 306 307 301 300 295 288 294 294 290 288 286 284 281 284 283 282 286 283 282 278 281 280 279 279 294 295 287 290 292 296 296 295
306 307 307 307 308 308 309 306 314 313 303 301 309 310 311 309 305 300 296 295 293 291 286 286 281 285 285 280 283 290 285 286 282 283 283 291 294 296 296 298 296 295 297 299
306 306 307 307 307 308 309 307 310 305 293 299 300 302 309 313 311 310 295 290 301 297 296 289 287 286 287 286 286 286 291 294 286 287 291 293 295 298 299 297 295 300 300 297
306 305 306 306 306 307 308 306 309 305 296 287 296 306 305 311 310 309 307 305 305 304 299 288 287 286 294 287 291 289 293 294 290 290 294 295 296 296 297 300 300 298 298 297
305 305 306 306 307 308 308 307 309 310 303 290 292 300 305 308 309 308 308 306 302 293 290 286 288 289 289 288 287 288 294 293 289 288 295 294 295 299 298 296 295 294 293 293
304 305 305 306 306 307 306 300 305 308 312 294 288 299 297 302 304 304 303 303 302 300 293 288 291 297 293 286 287 294 297 299 300 296 299 298 299 298 298 295 295 296 295 294
304 305 305 305 305 307 302 298 302 308 309 289 288 289 293 296 298 298 298 300 299 299 296 290 291 292 296 286 289 295 297 297 299 300 298 295 295 293 295 294 294 294 293 294
304 304 305 305 305 304 300 302 304 307 300 292 287 287 289 297 289 287 292 288 291 294 294 290 289 290 288 286 295 296 297 298 298 298 296 295 295 294 292 293 293 292 290 291
304 304 304 302 299 295 297 302 302 300 298 289 286 286 286 295 291 289 287 288 286 290 286 288 290 286 286 290 292 294 295 293 293 293 293 293 291 290 292 292 290 290 289 289
303 300 295 288 293 302 301 297 291 289 288 288 285 288 287 294 287 285 286 285 285 283 286 290 286 287 294 295 296 296 293 293 293 288 287 288 287 287 287 288 289 287 286 287
298 290 288 296 302 297 290 285 286 286 284 285 286 287 287 291 286 285 286 284 284 280 278 284 277 281 286 291 291 292 292 292 292 290 289 287 287 286 286 285 285 282 282 282
297 296 298 296 293 287 285 284 284 284 281 285 285 286 289 287 292 285 284 281 282 277 280 279 279 280 287 288 288 289 288 289 289 288 288 288 287 287 285 284 283 281 280 281
298 291 287 289 286 282 279 278 281 281 284 286 286 285 286 287 287 284 281 279 278 276 279 278 276 285 288 288 289 290 290 287 285 289 289 288 286 285 281 282 281 278 280 283
284 282 279 281 276 278 279 281 282 285 285 286 286 285 283 283 276 281 278 277 276 275 275 271 278 283 286 287 288 288 287 283 282 285 285 283 281 281 281 286 285 284 284 284
281 280 274 276 281 282 284 285 285 285 286 286 285 283 283 276 273 272 274 271 275 276 271 274 278 283 284 285 286 286 282 281 281 285 282 281 280 279 280 283 285 282 283 284
280 279 274 278 281 281 283 284 285 286 284 281 280 276 273 272 272 269 268 269 269 271 272 277 280 283 283 284 283 284 283 283 284 285 284 283 281 282 282 284 286 282 285 284
275 273 281 281 279 276 283 281 285 287 284 273 273 271 273 274 267 267 275 270 272 274 277 280 282 283 283 283 283 281 283 284 284 284 283 283 283 279 282 282 282 280 283 284

GFSNW_sfc_thetae_009.txt.gz
Theta_e
311 311 311 310 310 309 313 305 295 307 310 300 293 291 296 298 300 302 300 299 297 295 295 293 293 293 296 299 298 293 294 288 282 288 294 296 294 291 290 283 282 281 278 283
310 310 310 310 309 309 308 303 301 309 306 289 285 296 298 300 299 299 298 297 298 299 294 289 294 295 299 299 297 293 294 285 280 284 288 292 290 291 291 287 282 282 277 281
311 310 309 308 309 309 309 300 292 300 301 298 295 294 295 296 300 299 300 298 299 296 294 295 291 295 299 300 299 300 297 289 284 280 284 288 288 290 291 288 280 282 284 287
310 309 306 308 309 309 309 299 293 299 289 293 296 297 298 295 295 299 300 297 297 294 288 289 290 295 296 298 299 297 293 286 287 288 290 290 291 290 291 289 288 284 286 286
309 305 306 309 309 309 304 300 298 298 297 299 295 292 294 296 297 297 296 295 297 296 292 292 289 294 292 293 295 293 294 283 285 285 290 290 288 290 290 290 290 288 288 286
307 305 305 308 308 310 305 303 302 299 291 290 289 289 295 297 298 298 299 298 294 288 296 299 298 299 298 296 293 289 289 283 281 278 286 284 280 285 287 288 289 288 283 287
306 304 305 307 308 309 308 305 299 292 286 284 290 297 298 297 297 296 298 298 292 297 302 298 295 292 291 291 292 295 284 282 280 276 284 275 287 291 292 289 290 290 290 292
307 304 306 307 307 309 310 307 301 293 285 289 293 297 297 296 297 295 297 300 300 300 294 286 282 282 282 283 294 291 290 285 281 280 280 282 288 290 287 285 286 292 292 293
309 308 308 308 308 308 311 308 302 297 289 290 299 296 296 288 287 289 295 302 301 296 284 281 275 275 280 283 286 292 288 282 280 281 279 277 284 289 293 293 283 293 294 293
308 308 309 308 308 308 310 309 308 302 290 297 300 293 292 296 290 289 289 294 291 294 286 281 276 278 285 280 277 278 279 283 279 278 278 280 288 291 293 281 284 291 294 295
307 308 308 308 308 308 310 308 311 305 294 299 304 304 299 298 294 288 294 292 289 288 285 279 280 274 281 281 285 282 281 279 277 279 279 276 292 293 286 291 291 294 294 293
306 307 307 308 308 308 309 306 311 310 302 301 307 309 308 305 303 298 294 294 292 290 287 285 279 282 283 283 283 288 284 286 282 283 283 290 292 294 295 296 293 292 293 298
306 306 307 307 307 308 309 306 307 304 293 299 300 302 305 311 308 307 295 288 298 294 294 287 286 286 287 285 286 287 291 293 285 287 291 292 295 298 299 297 294 299 297 295
305 305 305 306 306 307 308 305 306 303 295 286 294 303 304 309 310 308 305 303 302 299 293 287 286 286 293 287 291 289 293 293 289 290 294 295 296 297 297 299 297 294 294 293
305 305 306 306 307 307 307 308 310 310 303 290 292 299 304 306 306 305 305 304 300 293 289 286 287 287 289 287 287 287 294 291 289 289 295 294 296 298 297 294 293 294 293 293
304 304 305 306 306 307 307 301 307 310 311 293 288 298 296 300 301 302 301 302 302 297 293 288 291 296 292 286 287 294 297 299 299 295 299 299 299 295 295 294 294 295 295 294
304 304 305 305 305 308 303 300 301 306 309 290 288 289 291 294 296 296 296 297 296 298 294 290 292 294 295 286 288 295 297 298 298 299 299 295 294 291 294 294 293 293 292 292
304 304 304 304 305 304 300 302 305 306 301 293 288 287 289 295 288 287 292 288 290 293 294 289 288 289 288 287 293 294 295 295 296 295 295 294 293 293 292 291 291 291 289 290
304 304 304 302 300 295 297 303 302 301 299 288 286 286 286 294 290 288 286 288 286 289 286 287 289 286 286 291 292 292 293 292 291 291 292 293 289 290 289 288 287 287 286 285
303 300 296 288 292 302 301 297 293 291 289 289 286 288 286 294 286 286 286 286 285 283 286 290 285 286 291 290 290 291 291 291 290 286 287 286 284 284 284 284 286 285 284 283
296 290 288 296 302 297 290 286 286 286 285 285 286 286 287 291 286 285 286 285 284 280 278 283 280 280 284 287 287 288 288 288 287 287 287 286 286 285 284 283 284 283 282 282
296 295 298 295 293 287 286 285 284 284 283 285 285 286 289 287 292 285 284 281 282 276 280 280 276 280 286 287 287 288 288 289 289 289 288 289 288 287 285 284 283 281 280 280
296 291 287 289 285 283 282 279 281 281 284 286 286 285 286 287 287 284 281 278 276 278 277 275 277 284 287 287 287 288 289 286 284 286 288 288 287 286 282 282 283 284 283 284
282 281 281 282 279 282 280 280 280 284 285 285 286 285 283 284 277 281 278 276 276 276 274 271 276 282 284 285 285 285 285 282 281 283 283 282 281 281 280 277 282 282 282 283
282 277 273 278 279 283 284 285 285 285 286 286 285 284 282 279 274 278 276 273 273 276 271 273 278 283 283 283 284 284 281 280 281 283 282 281 280 280 281 281 279 281 285 283
279 278 273 281 282 281 283 284 285 286 285 284 283 273 270 271 270 269 273 269 268 271 271 275 280 283 283 283 282 283 283 282 282 283 282 282 279 280 282 280 279 281 283 282
273 272 282 272 279 273 284 282 285 286 284 279 273 271 271 272 266 267 273 269 272 272 275 278 281 282 282 282 282 280 281 283 282 283 282 282 282 279 276 278 282 280 279 277

GFSNW_sfc_thetae_012.txt.gz
Theta_e
311 310 311 310 310 309 311 301 293 307 309 297 291 289 294 297 298 301 298 297 295 293 293 292 291 291 294 297 296 292 292 287 281 286 291 294 291 289 288 279 279 280 277 281
310 310 308 306 308 309 307 301 300 307 306 288 284 294 297 298 297 297 296 295 297 297 292 288 292 294 298 298 296 292 292 285 279 282 287 290 289 290 289 285 283 283 280 281
310 308 306 307 309 309 305 299 293 299 300 296 294 293 293 294 299 297 298 297 298 295 292 294 291 293 297 299 297 299 296 287 283 279 283 286 285 288 289 287 283 283 283 286
309 305 306 309 309 309 306 298 294 297 289 292 295 295 295 294 293 297 298 296 295 293 287 289 289 293 295 296 298 295 293 286 286 287 289 288 289 288 289 286 286 284 287 285
307 305 305 306 308 309 303 299 297 297 294 297 293 291 292 295 295 295 294 294 295 295 290 291 289 293 291 291 294 291 292 283 284 283 286 287 284 288 289 288 288 288 288 287
306 305 305 306 308 309 304 301 300 299 290 288 288 288 294 295 297 297 297 297 293 288 295 297 297 297 296 294 291 289 288 282 281 277 283 283 277 283 286 287 289 287 283 288
305 305 306 307 308 309 306 303 298 291 286 283 290 295 296 295 295 294 296 296 290 296 300 297 294 291 289 290 290 293 284 280 280 276 283 272 286 290 291 288 289 290 289 289
306 305 306 307 308 309 308 304 300 292 285 288 291 295 295 295 296 294 296 299 298 298 293 286 282 282 281 282 290 289 289 284 282 281 281 281 288 288 286 284 285 290 289 292
308 309 308 307 308 309 310 306 300 296 289 289 297 295 294 287 286 288 293 299 299 295 283 281 275 275 280 282 284 289 287 282 279 281 278 275 284 288 290 292 282 291 294 293
308 308 309 308 308 308 310 307 305 300 289 295 298 291 292 294 289 288 287 293 290 293 283 278 275 278 284 279 276 275 279 282 278 279 279 282 288 290 292 281 284 290 294 293
307 307 309 308 308 308 310 307 308 304 292 296 301 301 297 296 292 287 292 291 288 288 285 280 281 273 281 281 284 281 281 277 275 278 279 276 290 290 286 291 291 293 291 290
306 307 307 308 308 308 308 306 308 307 300 298 303 305 304 302 300 297 291 293 291 289 286 284 279 278 281 282 280 286 281 285 284 286 282 289 293 294 294 294 292 292 291 295
306 306 307 307 307 307 308 305 305 302 293 297 299 299 304 309 307 305 294 287 296 292 293 286 283 285 283 284 284 281 289 292 286 287 290 292 296 297 297 295 295 295 294 293
305 305 306 306 307 308 308 304 303 302 295 287 294 302 301 306 308 305 304 301 299 295 291 286 286 286 293 286 291 289 291 291 289 288 294 294 295 294 295 295 295 294 294 293
306 306 306 306 307 307 306 306 307 307 302 290 291 298 301 303 304 304 302 302 298 294 289 286 287 287 289 287 288 287 294 291 288 289 295 295 296 296 297 294 293 294 293 291
305 305 306 306 306 307 308 302 305 307 306 294 288 296 294 298 300 300 298 300 298 295 293 288 291 296 291 286 286 294 295 297 298 295 299 299 296 295 295 294 294 294 291 291
304 304 305 305 305 308 304 299 300 306 308 290 288 288 289 293 296 295 294 295 294 297 293 289 290 291 295 286 288 294 296 296 298 299 298 294 294 291 294 293 291 290 290 291
304 304 304 304 305 304 301 301 305 307 300 293 288 287 288 293 287 287 292 288 290 293 293 289 287 289 287 286 291 293 294 296 296 294 293 292 293 292 290 289 288 286 285 286
304 304 304 302 300 296 298 302 303 302 298 289 286 286 286 294 290 288 285 287 286 290 286 287 289 286 286 288 287 288 290 290 289 290 291 290 286 286 285 285 284 284 284 284
303 301 296 288 292 302 302 298 293 292 289 289 286 289 286 294 286 286 287 285 285 283 285 287 285 285 289 288 288 288 287 288 288 286 284 284 283 284 284 283 284 284 283 283
296 291 288 296 302 296 291 286 287 287 286 286 287 286 287 291 287 286 286 285 284 278 277 282 281 280 283 285 285 286 286 286 286 286 286 286 286 285 284 283 283 282 282 281
296 296 298 295 293 287 286 285 284 285 282 285 285 286 289 287 291 286 284 282 281 277 280 279 276 279 284 287 287 287 287 287 286 287 286 286 286 286 285 284 283 282 280 283
294 290 287 289 285 283 282 279 281 281 284 286 285 285 286 287 287 284 282 277 275 278 274 274 276 282 286 285 285 285 286 284 283 284 284 284 283 282 280 281 282 279 281 282
285 283 282 281 280 281 282 282 279 281 285 285 285 284 283 283 282 281 275 276 276 275 269 269 275 282 283 283 283 283 284 280 279 282 282 281 280 280 280 278 279 277 279 281
282 280 276 280 280 281 285 285 285 285 286 286 284 283 281 279 276 279 277 275 273 274 270 270 277 282 282 282 283 282 280 278 278 282 280 278 278 278 280 281 279 278 277 278
280 278 273 279 281 281 283 285 284 286 285 284 281 274 273 273 274 273 273 272 269 270 269 274 278 282 282 282 282 281 281 281 282 282 281 281 278 278 281 281 280 279 279 279
275 273 280 275 276 275 278 284 284 286 284 279 278 272 272 274 268 270 272 267 270 271 274 276 280 282 282 282 281 280 280 281 281 281 280 281 280 277 276 277 282 281 280 277

GFSNW_sfc_thetae_015.txt.gz
Theta_e
310 310 308 307 307 309 308 301 299 310 311 298 293 292 296 298 299 301 300 299 298 296 296 294 294 294 296 299 300 295 296 291 287 290 295 297 295 292 291 286 283 286 285 285
310 308 307 307 308 309 308 302 303 309 308 291 288 297 298 299 299 298 298 298 299 299 295 292 295 296 301 300 300 297 297 290 284 285 291 294 293 294 291 289 288 286 283 285
310 307 307 307 309 309 305 300 296 301 300 298 296 295 296 296 300 299 299 298 300 297 294 297 294 296 300 301 300 298 298 290 287 284 286 290 288 290 292 291 287 286 287 289
306 306 306 307 308 309 306 300 297 299 292 295 297 297 297 295 295 299 300 298 297 295 290 293 294 296 297 299 299 298 297 290 290 290 291 290 290 290 290 289 290 286 289 290
306 306 306 307 308 308 304 300 299 298 295 297 297 293 296 296 297 297 297 296 298 298 293 294 292 296 296 295 298 296 294 289 289 286 288 288 286 289 290 290 291 290 291 290
305 305 306 306 308 308 304 302 301 301 290 291 292 292 296 297 298 298 299 298 296 292 297 300 301 300 298 298 296 293 292 289 285 283 285 285 283 287 289 290 292 291 287 292
306 305 306 307 307 308 307 304 299 295 289 288 292 297 298 297 298 296 298 299 294 299 302 299 296 292 292 294 293 295 286 286 284 284 283 279 289 293 293 291 292 292 292 293
305 306 307 307 308 309 308 304 300 294 286 290 293 296 296 297 297 296 298 301 299 300 296 290 286 286 284 286 291 291 291 287 284 282 282 285 289 291 291 290 289 294 293 295
308 308 308 307 308 309 310 307 301 298 289 292 298 296 296 292 291 293 296 301 300 297 288 287 282 282 283 285 287 290 288 286 287 283 280 279 288 291 294 295 286 295 296 296
308 308 308 307 308 309 311 309 306 301 292 297 299 295 295 296 293 291 292 297 294 296 287 285 285 286 286 284 280 280 283 284 283 283 281 285 292 293 295 285 288 294 296 296
307 308 308 307 307 308 311 310 308 305 294 299 303 302 298 297 295 292 295 295 292 290 286 286 285 284 286 285 287 284 285 284 281 282 280 279 293 293 290 295 297 296 297 296
306 307 308 308 307 306 309 308 308 307 302 300 306 309 308 305 303 298 294 296 293 294 288 286 284 284 283 284 285 289 286 289 287 287 288 294 295 297 298 297 295 296 296 293
306 306 307 308 307 308 309 307 306 303 293 298 302 302 306 310 308 307 298 292 298 295 296 290 287 286 287 284 284 287 291 292 289 289 294 295 297 300 298 298 295 295 295 295
305 305 306 307 307 307 307 307 305 303 295 287 295 302 303 308 309 308 307 302 299 297 294 287 286 286 293 287 291 290 294 293 291 290 295 296 297 297 298 295 295 295 296 295
305 306 306 307 307 307 307 307 308 306 303 289 291 300 303 302 305 306 304 302 299 295 290 287 288 291 290 290 289 288 295 293 290 290 297 296 296 297 297 294 294 295 294 293
304 306 306 307 306 307 306 300 305 307 306 292 287 296 295 298 301 302 302 302 299 298 293 288 292 297 294 286 286 294 298 299 300 297 299 298 296 295 295 294 294 292 291 291
304 304 305 305 305 310 304 298 301 307 307 291 288 290 292 295 296 295 296 297 298 299 293 289 291 292 295 286 287 295 296 296 298 298 298 293 294 291 293 290 290 290 290 290
304 304 304 305 305 304 302 303 305 307 301 295 288 288 288 294 289 289 292 291 293 294 293 289 289 290 288 287 291 289 291 294 293 292 293 291 290 290 289 289 289 287 287 287
304 304 305 304 301 296 299 303 303 302 300 291 286 287 286 294 290 289 288 290 287 290 286 287 289 287 286 287 287 289 289 291 290 288 289 289 288 288 288 288 288 286 286 287
304 302 297 288 292 302 302 299 294 291 290 290 286 289 288 293 288 287 287 286 286 285 286 288 285 286 287 287 289 289 289 290 290 288 286 287 286 286 287 287 287 287 286 286
297 291 288 296 301 297 291 286 287 287 285 287 287 287 288 291 287 286 286 285 285 281 282 284 283 283 285 287 286 288 289 289 289 289 288 288 287 286 286 286 287 286 285 284
297 296 298 296 293 288 285 284 284 285 284 286 286 286 289 287 292 286 285 284 283 278 282 281 279 282 286 288 288 288 288 288 287 287 286 286 285 286 285 285 285 284 284 283
296 291 287 289 286 284 283 280 282 283 285 286 286 285 286 287 288 285 284 280 278 281 278 277 279 284 286 286 286 286 287 286 284 285 286 286 285 284 282 282 283 282 282 283
287 286 283 283 281 283 282 281 282 284 285 286 286 284 284 283 283 281 279 279 278 276 274 275 280 284 284 284 285 285 285 280 280 283 284 282 281 281 281 279 280 279 280 283
282 283 279 280 281 283 285 285 286 285 286 286 285 283 283 280 279 280 278 276 274 275 275 277 281 284 284 284 285 284 281 279 280 284 282 280 280 280 281 282 282 282 280 279
282 279 278 280 280 280 283 285 285 286 285 284 283 278 278 277 277 276 275 274 271 276 276 279 281 283 284 284 283 283 283 282 283 283 282 282 280 279 282 282 281 280 280 280
276 275 279 278 277 280 281 285 285 287 285 280 278 275 276 276 273 274 276 272 275 277 279 279 281 283 283 283 282 280 281 282 283 283 283 282 282 280 279 280 284 284 283 282

GFSNW_sfc_thetae_018.txt.gz
Theta_e
310 307 308 308 309 310 316 318 308 321 324 309 307 303 302 300 304 306 305 305 303 301 300 299 298 298 300 303 304 299 301 298 292 293 299 302 300 297 295 291 285 291 289 289
308 307 307 308 308 310 321 315 314 320 320 305 304 303 302 304 303 303 303 302 304 304 300 297 300 300 303 304 303 301 302 296 289 290 296 299 297 298 297 295 293 289 287 290
307 307 307 308 308 310 320 315 309 313 313 309 305 303 301 301 305 303 305 303 305 303 300 302 299 300 303 304 304 299 302 297 292 287 290 294 292 294 295 294 289 290 291 293
307 307 307 307 308 309 319 314 309 308 306 305 306 305 303 301 300 304 305 302 302 301 298 298 298 301 301 302 300 303 303 293 295 295 295 295 294 293 294 292 294 289 292 293
306 306 306 307 308 309 316 312 309 309 305 305 305 300 303 301 301 302 301 301 302 302 298 298 297 299 299 298 302 301 301 294 293 290 294 294 292 294 294 294 295 295 295 294
306 307 306 308 308 311 318 313 311 314 298 302 305 303 303 302 305 303 305 305 303 300 302 305 306 306 305 303 300 298 298 296 291 288 291 291 288 292 293 295 296 295 291 296
305 306 307 307 308 312 320 315 313 312 302 304 303 303 304 303 303 303 304 305 303 304 308 307 305 302 301 301 300 302 293 293 290 288 288 284 292 298 297 295 296 297 297 298
306 307 307 307 307 309 318 314 313 308 290 304 302 304 303 304 305 303 304 304 305 309 306 301 294 293 291 292 297 297 299 295 288 285 286 290 293 294 294 293 293 299 297 299
309 308 307 307 307 310 318 315 312 312 295 303 304 304 305 303 303 303 303 305 307 307 303 297 288 290 289 290 291 296 295 295 294 287 283 282 292 296 298 298 289 299 300 299
309 308 308 307 308 309 320 317 316 314 309 306 306 305 305 306 305 304 304 304 302 306 298 290 292 292 292 289 288 287 287 288 287 287 285 289 297 297 299 287 291 299 299 296
308 308 308 307 307 307 319 317 317 316 306 307 309 307 306 305 307 304 304 304 302 299 291 289 292 289 294 291 292 290 290 289 286 286 282 282 298 297 291 298 301 301 300 297
307 308 308 307 306 307 313 317 317 316 314 309 313 314 313 312 310 308 306 304 303 306 298 293 292 287 287 292 290 296 290 295 293 292 293 301 302 301 303 304 301 298 296 295
307 307 308 308 308 308 313 318 317 317 308 310 311 310 312 317 315 316 308 307 307 305 307 302 295 288 297 286 291 294 297 299 294 294 297 299 302 304 304 302 296 296 297 297
306 306 307 307 308 307 312 318 315 313 304 290 305 308 309 312 315 315 314 310 307 307 307 294 289 291 301 296 299 297 299 299 296 296 299 300 301 301 300 297 297 296 296 296
305 305 307 308 308 308 317 319 317 317 313 297 302 307 307 308 311 313 313 311 308 303 296 291 294 300 294 293 292 292 300 298 295 292 300 298 296 298 297 295 294 295 293 292
305 306 307 308 307 308 317 311 317 318 318 303 295 306 303 305 309 310 310 311 308 305 300 295 300 302 299 287 290 298 301 303 302 296 300 299 297 296 296 295 293 292 292 293
304 305 305 306 306 317 311 307 309 310 317 298 295 297 300 300 303 302 306 305 306 306 301 294 298 299 297 287 288 297 298 297 297 299 300 295 294 293 293 292 293 294 293 292
304 304 304 304 305 305 308 311 307 312 308 301 291 292 295 300 296 294 297 298 296 296 296 291 293 294 291 287 294 294 294 294 293 294 296 294 293 293 293 293 292 290 290 291
304 304 304 305 303 299 302 303 305 310 308 297 289 289 288 299 293 293 294 296 290 294 288 289 292 289 288 292 291 292 293 294 290 292 293 292 290 290 290 289 289 288 289 290
304 303 298 289 295 303 304 302 297 294 291 292 288 295 292 299 291 291 293 291 290 288 289 294 286 287 288 292 293 294 293 293 292 290 288 288 288 287 288 288 289 289 289 289
298 292 289 298 302 298 293 288 288 288 286 288 288 288 289 295 291 289 289 287 288 284 287 287 287 287 290 291 290 292 292 292 292 290 290 289 289 288 288 288 289 289 288 288
298 297 298 296 293 287 286 285 285 285 287 287 287 287 290 288 293 287 286 286 287 282 289 284 283 290 291 291 290 291 292 290 289 289 289 289 289 290 289 288 288 288 287 286
298 292 286 287 286 285 284 283 285 285 288 289 287 285 287 289 290 287 288 285 284 288 281 283 288 290 291 292 290 290 290 289 288 288 289 290 290 289 287 286 287 286 287 287
288 286 283 285 283 286 287 288 289 289 289 289 289 286 289 287 286 286 283 284 285 280 278 281 287 290 290 289 290 288 287 288 286 287 288 288 287 286 286 285 285 284 284 286
286 287 282 284 284 287 287 288 288 288 290 289 287 287 289 285 283 285 282 280 279 281 282 287 290 289 288 288 288 288 288 286 286 287 287 286 286 285 286 287 288 287 285 285
286 284 283 284 285 284 285 286 286 288 287 288 289 285 284 282 283 280 280 279 279 283 287 290 289 287 287 288 288 287 287 286 286 287 287 287 286 285 286 287 286 285 285 284
285 283 285 285 285 286 286 289 288 289 287 285 285 282 281 282 280 279 282 280 285 288 288 288 288 287 287 288 287 286 286 286 287 287 288 287 287 287 285 285 287 286 286 286

GFSNW_sfc_thetae_021.txt.gz
Theta_e
308 308 308 308 309 310 313 320 309 327 330 309 312 306 305 303 306 309 307 307 304 303 303 301 301 300 303 306 306 301 303 300 294 295 301 304 302 299 298 292 288 293 291 290
308 308 308 308 309 310 326 314 315 327 326 307 309 307 305 307 306 306 306 304 306 307 303 299 302 303 306 306 306 303 304 299 292 294 298 302 298 300 298 296 295 289 289 291
308 308 308 308 309 311 323 316 310 314 317 315 308 305 304 303 308 306 307 306 308 306 303 305 302 302 305 307 307 300 304 299 294 290 293 297 294 296 297 296 291 291 292 294
307 308 308 308 309 310 322 318 312 313 307 309 309 309 306 303 301 307 308 305 305 304 300 302 301 304 304 305 300 304 304 295 297 297 297 296 295 295 296 294 295 291 294 295
307 307 307 308 309 309 323 313 312 315 313 311 309 303 305 303 303 305 303 304 305 305 301 300 299 301 301 300 304 303 303 296 296 293 296 296 293 295 296 296 296 296 296 295
307 307 308 308 308 311 322 321 321 317 303 309 307 306 306 305 307 306 307 307 305 303 304 308 309 308 306 305 302 300 300 298 293 289 295 293 289 294 295 296 297 296 292 297
307 307 308 307 308 311 325 322 320 315 306 309 307 306 307 306 306 305 308 308 306 308 312 311 309 307 304 305 304 305 299 296 293 289 289 284 296 300 299 297 297 299 299 300
307 308 308 307 308 310 323 321 319 313 295 309 306 307 307 308 309 307 307 308 311 314 309 303 296 294 291 295 300 300 302 298 290 287 288 292 295 296 296 294 294 300 299 301
309 309 308 307 308 310 323 321 322 318 300 307 309 308 309 307 307 306 306 310 313 312 308 299 289 291 292 292 294 299 298 300 296 289 285 283 294 299 300 300 290 302 301 300
309 309 308 308 307 309 324 322 324 318 314 311 311 309 308 311 309 307 308 307 306 311 301 292 293 293 296 291 289 287 289 290 289 288 286 291 298 300 302 289 292 302 301 299
309 309 308 306 306 308 320 322 323 320 312 311 313 312 310 310 310 306 309 306 307 306 293 293 296 292 297 294 296 293 290 289 287 289 285 283 301 299 293 300 303 301 301 298
308 309 309 307 307 308 311 320 323 323 318 314 319 317 317 316 314 312 311 307 307 308 303 298 297 289 291 294 291 299 292 296 294 294 294 303 303 301 305 304 303 301 299 298
308 308 309 308 308 308 313 322 323 322 315 314 314 312 317 320 320 320 310 313 310 310 314 306 299 288 299 288 294 299 300 302 297 297 299 300 302 304 304 304 301 299 298 299
307 306 307 308 308 309 313 322 322 320 310 293 310 313 313 316 319 319 319 315 314 314 312 296 291 292 305 298 300 299 301 301 298 298 301 301 303 301 300 300 300 300 298 297
306 306 307 309 309 310 321 324 322 322 316 302 308 311 311 313 315 315 316 314 312 310 300 291 294 306 304 302 299 297 302 299 297 294 301 298 298 299 300 299 297 297 295 294
305 306 308 308 308 309 321 314 322 322 322 307 299 311 307 310 312 313 313 314 312 312 306 296 306 307 303 291 291 300 303 304 304 301 303 302 299 299 300 298 296 295 295 295
304 305 306 306 307 320 313 310 314 311 323 306 298 302 305 306 310 310 310 309 308 307 307 301 303 304 304 291 290 299 302 304 302 302 301 295 297 297 297 295 296 296 294 294
304 304 304 305 304 307 313 316 311 313 314 310 295 295 298 305 300 297 305 301 302 303 302 295 298 300 298 291 298 301 301 299 297 298 299 298 298 296 295 295 293 291 291 292
304 304 304 308 307 306 312 304 309 318 313 301 291 290 288 303 297 297 298 301 292 298 290 291 295 290 289 296 299 298 298 297 296 297 296 295 293 292 292 291 291 290 290 290
304 304 301 291 297 303 305 307 304 304 305 302 291 302 292 301 294 292 293 294 293 288 291 293 286 287 293 297 298 299 299 297 296 293 292 291 289 290 290 290 291 290 289 290
299 293 289 298 302 300 295 289 291 290 288 290 293 295 293 300 293 290 293 288 289 286 289 289 288 288 294 297 296 296 296 296 295 294 292 291 290 290 290 290 290 290 289 289
298 298 299 297 293 288 289 287 287 287 288 288 287 289 293 291 296 289 287 287 288 285 292 286 283 292 296 295 294 295 295 294 292 291 290 291 291 291 291 290 289 289 289 287
297 290 287 287 285 284 284 283 285 286 287 287 287 285 287 288 290 286 287 285 286 291 284 284 290 294 294 295 295 294 294 292 289 289 290 291 291 291 289 289 289 288 288 289
289 286 284 285 284 286 287 289 289 289 289 289 287 286 287 288 286 287 286 286 288 282 281 284 292 293 294 295 294 292 291 288 288 288 289 289 290 289 289 287 287 286 286 288
288 288 283 284 286 287 287 288 289 289 292 292 291 291 291 287 285 287 284 281 281 283 285 290 293 294 294 291 291 290 289 288 288 289 289 288 288 288 288 289 289 289 287 286
290 287 285 286 286 285 286 286 286 290 290 291 291 287 285 284 286 283 282 282 281 286 290 293 293 290 290 290 290 289 289 288 288 288 288 289 288 287 289 290 288 286 286 285
286 285 289 288 288 287 287 289 289 291 289 286 288 283 282 284 283 281 286 284 288 291 292 292 291 289 289 289 290 289 289 289 289 289 289 289 290 289 288 286 290 290 289 287

GFSNW_sfc_thetae_024.txt.gz
Theta_e
308 308 308 308 309 311 316 327 306 330 334 307 309 306 306 303 306 309 307 307 304 303 303 301 301 300 304 306 306 300 301 299 296 295 301 303 301 298 298 294 289 294 292 289
307 308 308 308 309 310 325 313 316 328 328 305 311 308 306 307 305 306 306 305 306 307 304 299 303 303 306 307 306 303 303 300 293 293 298 302 297 299 298 297 295 289 286 289
307 307 308 308 309 311 320 318 309 312 315 316 308 306 304 304 309 307 308 306 308 305 303 305 302 302 305 308 305 302 304 299 295 291 293 296 293 295 297 296 291 291 291 293
307 307 308 309 309 311 320 319 311 311 305 308 309 308 306 303 302 308 308 305 305 304 300 302 301 304 304 305 301 304 304 296 297 297 296 296 295 294 295 293 294 289 293 293
308 307 308 309 309 309 320 314 312 314 311 311 308 304 305 304 304 305 303 303 305 306 303 302 300 303 302 301 304 303 304 297 297 293 296 295 292 294 295 295 295 295 295 294
307 307 308 308 309 311 323 321 322 316 306 309 309 307 306 305 307 307 308 307 306 303 306 308 308 308 307 305 303 301 301 299 294 289 293 292 290 295 295 296 297 296 292 297
307 308 308 308 308 310 327 324 321 316 307 309 306 307 308 306 307 305 308 309 306 309 311 310 308 306 305 304 304 305 299 296 293 288 289 283 295 299 299 296 297 298 298 299
309 309 308 308 308 310 326 323 322 314 294 310 307 307 307 309 309 307 308 309 311 313 309 304 295 295 292 295 301 301 303 298 290 288 288 291 294 297 296 294 293 300 299 300
310 309 308 307 308 310 325 323 327 321 302 309 310 307 309 307 307 306 306 311 315 312 309 299 291 292 294 292 294 300 300 302 295 289 283 282 295 299 302 300 289 301 301 299
309 309 308 306 307 309 323 322 328 322 315 313 314 310 309 311 310 307 307 307 307 312 300 290 295 294 296 291 289 288 289 291 289 288 285 290 298 301 302 288 291 301 300 299
310 309 308 306 308 309 319 322 327 323 314 313 315 314 312 311 312 307 309 306 308 308 291 293 297 291 297 296 296 291 289 288 286 288 286 283 301 300 292 299 303 301 300 299
310 310 309 308 308 309 311 320 325 328 319 315 321 318 318 316 316 313 313 307 308 308 301 299 300 289 290 293 292 299 293 297 295 293 293 302 303 302 304 304 300 299 299 299
309 311 310 309 309 310 313 323 324 325 320 314 314 312 318 320 320 323 311 315 312 311 315 303 296 287 298 288 294 298 299 302 299 298 299 300 302 304 303 301 299 300 300 299
306 306 307 308 309 310 312 322 324 321 310 291 311 315 314 317 320 320 320 316 318 317 311 295 290 289 304 297 299 299 301 301 299 298 301 302 302 302 301 301 301 300 299 297
305 306 308 309 310 309 321 325 323 323 316 299 309 313 313 314 316 316 316 316 314 310 297 290 292 305 305 302 299 297 301 298 296 295 302 301 300 301 301 299 298 297 295 294
305 306 307 308 308 307 322 313 322 322 322 306 296 312 309 311 313 314 313 313 313 312 305 296 305 308 305 290 291 299 301 303 304 301 303 302 302 301 301 298 297 295 295 294
304 306 306 307 307 318 312 308 312 309 321 303 294 302 306 307 311 311 311 312 309 308 307 300 301 305 303 291 290 299 301 303 304 304 302 297 298 297 299 296 296 296 293 293
304 304 304 305 304 306 313 314 311 311 314 309 295 295 300 306 301 299 306 301 302 304 301 296 297 302 296 291 298 301 302 303 300 301 302 300 300 298 296 295 293 291 290 291
304 304 305 311 311 310 313 305 307 320 313 302 290 290 288 304 297 296 299 302 290 299 291 292 297 291 289 295 299 301 301 299 298 299 298 297 295 293 292 291 291 290 289 289
304 306 301 291 296 303 304 312 306 306 306 303 292 300 294 300 294 291 292 293 291 288 291 293 287 288 297 300 301 302 301 300 299 295 293 293 291 290 290 290 291 290 289 289
300 293 289 298 302 302 298 294 293 294 290 292 295 298 293 301 291 289 294 288 289 286 289 289 288 288 294 299 298 300 299 298 297 296 294 292 291 290 290 291 291 289 289 288
298 297 299 297 292 288 291 287 287 287 289 289 287 289 296 293 300 292 289 287 287 285 293 286 284 291 297 297 296 296 297 296 293 292 291 291 291 291 291 290 289 288 287 285
296 291 287 289 285 284 284 283 285 285 286 287 287 286 288 289 291 286 285 284 285 290 285 283 289 294 296 296 295 295 294 290 290 290 290 291 290 290 288 287 288 286 287 288
289 286 284 285 284 285 285 285 286 288 288 287 287 286 287 286 285 285 284 286 288 283 281 283 292 293 294 295 295 294 290 285 287 289 289 288 288 288 287 286 285 283 285 287
289 288 284 284 286 286 286 286 287 287 289 288 287 287 288 285 285 285 285 282 281 283 284 287 292 294 293 291 291 290 289 285 286 289 287 285 285 286 287 287 288 288 285 284
291 288 285 287 286 285 285 285 285 289 289 290 290 286 285 284 285 283 283 282 281 285 289 293 291 290 289 289 289 288 288 288 288 288 288 287 286 285 287 288 287 285 286 285
286 285 290 287 287 286 287 289 289 291 288 285 287 284 281 285 283 282 285 284 287 291 292 290 290 289 290 290 289 287 288 289 289 289 288 288 288 287 287 286 288 288 288 286

GFSNW_sfc_thetae_027.txt.gz
Theta_e
308 307 308 308 308 311 314 314 299 322 325 299 301 298 305 301 304 308 306 305 302 301 300 299 298 298 301 304 303 297 298 294 284 292 298 300 296 295 295 282 284 283 281 283
307 307 307 308 309 310 317 307 309 321 321 292 293 304 305 305 303 303 304 303 305 304 301 295 301 300 305 305 302 298 299 292 283 288 294 298 294 296 297 294 286 283 276 281
307 307 307 308 309 311 314 311 298 307 310 308 303 302 301 302 307 306 306 304 305 302 300 302 299 299 305 305 302 301 301 296 289 283 288 292 289 292 293 292 281 283 284 289
307 307 307 309 309 310 314 313 304 304 294 298 302 304 303 301 301 306 306 302 303 301 293 298 298 301 302 304 301 302 299 290 293 294 293 293 292 291 291 290 290 283 287 290
307 307 308 308 309 309 313 310 308 305 301 302 302 300 301 302 303 303 301 300 303 302 298 299 297 300 299 298 300 299 300 287 287 286 293 292 289 291 292 292 292 291 291 290
307 308 308 308 308 311 313 314 315 310 302 298 298 299 303 304 304 305 307 304 301 296 301 302 302 302 301 301 298 296 295 287 283 281 289 287 281 289 293 293 294 292 285 292
308 309 308 308 308 311 320 317 315 302 293 301 302 305 305 304 304 301 306 306 300 304 306 302 300 298 298 301 299 303 290 287 283 277 280 272 292 296 296 294 294 295 295 296
310 308 308 308 308 309 318 317 316 302 289 303 304 303 304 305 305 303 304 306 307 307 304 292 286 286 284 290 298 297 299 286 279 280 279 285 291 295 293 289 290 297 296 296
309 308 306 306 308 309 318 316 318 310 295 297 309 303 304 299 298 300 302 308 309 308 291 284 280 280 286 286 292 296 297 290 283 277 276 272 287 296 299 297 282 297 297 295
309 308 305 306 308 309 318 315 318 316 301 307 308 302 301 306 302 297 301 301 299 305 286 285 283 283 292 285 284 281 281 285 281 276 275 282 294 298 299 282 284 297 296 295
309 308 307 308 308 309 316 314 319 315 303 306 312 312 306 306 304 294 301 296 296 290 289 285 284 283 285 286 291 286 282 280 280 283 281 276 298 297 287 292 297 296 295 295
310 308 308 308 308 309 311 312 319 320 311 308 313 312 314 312 312 306 303 299 302 299 291 287 288 285 288 285 281 294 285 288 284 286 284 294 298 297 299 299 296 295 295 296
311 307 305 307 308 309 311 315 317 315 303 305 307 306 312 314 314 316 301 300 307 304 305 293 293 285 289 281 284 286 293 298 287 290 295 297 298 299 299 298 297 298 298 299
306 305 306 307 308 308 313 314 316 310 303 289 301 312 309 313 314 314 313 310 310 308 300 291 290 285 297 286 289 287 293 296 293 290 295 298 300 299 298 298 299 299 299 294
305 306 306 307 307 308 316 317 316 316 309 292 293 308 309 312 312 312 312 310 306 299 291 288 287 287 290 286 287 286 298 293 288 285 297 296 296 298 299 297 298 296 292 292
305 306 307 308 306 307 316 307 314 312 315 298 289 304 304 307 309 309 308 308 306 303 294 288 295 303 293 288 287 296 300 301 300 296 300 299 298 299 301 299 295 294 292 291
305 305 307 306 305 310 306 303 307 305 311 294 289 293 300 303 306 304 306 304 301 301 296 290 289 291 295 287 286 295 299 300 300 301 299 295 298 295 298 295 294 293 290 289
304 305 305 306 303 306 307 307 307 306 305 298 289 290 290 302 290 292 298 292 297 299 295 292 289 292 289 288 294 298 300 300 299 300 301 298 298 298 294 292 290 288 287 287
304 305 307 309 305 301 305 304 305 312 305 291 287 284 283 298 292 291 291 296 287 294 287 289 292 287 287 293 295 297 299 296 296 298 299 299 297 291 289 289 288 287 286 286
304 305 302 291 295 302 305 306 295 296 296 295 287 291 288 295 288 287 288 287 287 286 288 291 286 287 293 296 298 297 298 298 297 293 291 291 289 288 287 288 288 287 286 286
300 293 289 297 302 300 294 289 290 291 288 290 291 290 291 294 287 286 288 286 286 284 283 286 285 285 290 295 296 296 296 296 294 292 291 291 289 287 287 287 285 284 284 284
297 297 298 296 292 288 288 287 286 287 286 287 287 288 292 289 295 288 287 286 286 283 289 285 282 285 293 293 293 294 294 292 291 291 290 289 289 288 286 285 284 284 284 279
296 291 287 289 285 284 284 283 284 285 285 287 286 285 286 288 289 285 285 284 284 286 284 280 281 292 294 293 289 288 288 287 286 288 289 288 288 287 284 282 284 280 283 284
288 286 283 284 283 283 283 284 285 286 286 286 286 285 285 285 285 285 283 284 284 281 277 276 286 291 292 292 290 287 284 283 283 284 285 284 283 283 282 281 280 277 281 283
286 286 282 282 284 285 285 286 286 286 287 286 286 285 286 284 283 284 283 280 279 281 281 284 287 288 288 286 287 286 284 281 283 285 283 280 280 281 283 283 283 283 281 281
286 285 283 285 285 284 285 285 285 287 286 287 286 284 284 282 283 281 281 280 279 282 284 286 286 286 286 286 285 284 285 285 285 285 285 283 280 279 284 283 282 281 281 280
285 284 286 285 285 285 285 286 286 289 286 284 284 281 279 283 280 280 283 281 283 285 284 285 286 286 285 285 285 284 285 285 285 285 284 284 284 281 281 282 285 284 284 280

GFSNW_sfc_thetae_030.txt.gz
Theta_e
307 306 307 307 308 310 311 308 296 315 312 294 296 295 302 302 302 305 303 303 301 297 297 297 297 296 298 303 302 294 296 291 283 290 296 297 294 293 292 282 283 281 280 282
306 306 307 307 308 310 310 303 306 318 308 287 288 299 303 303 301 301 301 301 303 302 298 295 298 298 303 302 300 296 296 289 282 287 292 296 291 294 295 290 284 282 275 280
306 306 307 307 308 310 312 305 296 303 307 301 297 299 299 300 304 303 303 302 303 300 298 300 297 298 302 302 299 300 300 293 287 282 287 289 286 290 292 289 280 282 282 286
306 306 306 309 309 310 310 308 299 300 292 295 301 301 300 299 298 303 303 300 300 298 292 296 295 299 299 301 300 299 297 288 291 291 291 290 289 288 289 288 288 283 286 287
306 306 308 308 309 309 309 307 305 302 296 298 299 298 299 300 301 301 299 298 301 300 295 297 295 298 296 295 297 296 297 286 286 285 291 290 286 289 290 290 290 289 289 289
306 308 308 307 308 309 310 312 311 304 298 294 295 297 299 301 302 303 304 302 297 294 298 299 299 299 300 300 296 295 292 285 282 279 286 285 280 288 290 290 291 290 285 290
308 308 307 307 308 310 318 314 310 300 291 296 296 303 303 301 302 300 303 303 297 302 304 299 296 295 297 298 298 299 288 285 280 276 277 270 287 294 294 292 293 294 293 293
309 307 304 305 306 309 314 315 310 299 287 299 301 302 302 302 302 301 302 304 303 304 300 287 285 284 285 289 296 296 294 283 279 274 277 282 288 293 291 289 290 295 294 293
309 305 305 307 307 309 313 312 314 303 294 295 306 301 302 296 295 296 300 306 307 301 287 282 280 280 282 285 290 294 293 286 280 278 272 270 284 293 297 294 283 296 295 293
307 305 307 307 308 310 313 312 315 309 298 303 305 299 300 302 298 294 298 299 298 298 282 284 278 282 290 283 282 280 280 278 279 271 270 280 289 296 297 282 284 295 295 293
307 307 307 307 308 308 311 311 314 310 299 305 309 309 304 303 299 292 298 294 293 290 283 280 285 277 284 284 288 285 282 280 277 277 271 275 294 295 287 290 294 295 294 294
306 303 304 306 307 308 312 308 316 315 307 306 310 310 310 310 308 303 299 295 297 295 288 287 289 279 285 282 281 292 284 286 283 285 284 291 296 295 296 298 294 294 294 294
303 304 305 305 307 309 313 311 312 309 299 302 305 305 311 312 311 311 299 297 304 301 297 291 285 280 286 282 284 286 292 296 287 288 293 294 296 297 297 297 295 298 298 297
305 305 305 305 306 309 313 311 311 305 298 288 298 310 307 312 312 312 309 307 305 301 295 289 289 282 292 283 286 285 290 294 291 288 293 296 296 295 296 296 297 299 299 295
306 306 307 306 306 309 314 311 310 310 301 292 291 305 308 309 310 310 310 307 303 295 290 286 286 285 288 286 285 286 295 293 286 286 294 294 294 296 297 297 298 298 292 289
305 307 307 306 306 310 311 303 310 308 307 294 287 300 301 304 308 307 307 306 303 298 292 288 292 299 289 287 286 293 298 300 297 295 299 298 297 297 300 299 296 293 289 288
305 307 304 304 306 307 303 299 305 305 305 292 288 289 297 301 303 300 301 301 299 299 291 289 287 288 293 287 285 294 297 299 299 300 298 294 295 295 299 295 292 291 289 287
306 306 306 303 306 306 304 305 303 304 300 293 286 284 288 298 289 288 296 290 294 296 294 292 289 290 288 287 293 296 298 298 298 298 297 297 298 297 293 290 290 288 286 286
305 306 305 305 302 298 303 303 302 307 300 288 285 283 283 295 292 289 289 293 286 292 287 288 289 287 285 291 293 295 297 296 296 297 298 298 296 291 289 289 288 286 285 285
303 304 298 292 296 302 302 300 293 292 294 290 286 289 286 293 287 287 287 287 286 285 287 292 286 287 291 293 295 296 296 297 298 294 290 288 287 287 288 287 287 286 285 285
300 294 290 297 301 297 293 289 286 289 288 289 289 288 289 292 286 286 286 285 286 283 282 285 284 284 288 293 292 293 293 293 293 292 291 290 289 288 287 286 285 284 283 283
298 297 298 296 291 288 287 287 287 287 286 287 287 288 291 289 292 287 287 285 285 281 287 285 282 286 290 289 291 291 291 292 291 291 290 289 288 288 285 284 283 283 283 279
296 292 288 290 286 285 286 285 284 284 285 287 286 286 286 288 289 286 285 284 284 286 284 282 282 291 289 288 287 287 289 289 288 288 288 287 287 285 283 282 283 279 282 283
288 287 283 284 282 283 283 284 285 285 285 285 285 285 285 285 285 285 283 284 284 282 274 274 285 291 291 288 287 285 284 282 284 284 285 284 283 282 281 278 278 276 280 282
286 283 281 281 283 284 285 285 285 286 286 286 285 285 285 284 283 284 282 280 278 280 279 283 285 286 286 285 286 285 283 281 282 284 282 279 279 280 281 282 282 282 279 278
286 285 282 284 284 284 285 285 285 287 286 286 286 284 283 279 282 280 280 279 277 279 284 285 286 287 288 287 286 284 284 284 284 284 284 283 278 277 283 283 281 279 279 279
285 283 285 285 285 284 285 285 285 288 286 284 283 278 277 282 278 277 281 279 282 284 285 286 285 285 285 284 285 284 285 285 284 284 284 283 283 279 279 280 284 283 283 281

GFSNW_sfc_thetae_033.txt.gz
Theta_e
307 307 307 307 308 310 311 304 294 313 306 293 293 294 301 301 300 303 302 301 299 295 295 295 294 294 296 301 300 292 294 289 283 288 294 295 292 291 289 280 282 280 279 281
306 306 307 307 308 310 309 302 306 316 302 286 287 296 301 301 299 299 299 298 300 300 297 293 296 296 301 299 298 294 294 288 281 286 291 293 290 292 291 287 283 281 275 280
306 306 307 307 307 310 310 303 295 302 304 296 294 295 297 297 302 301 301 300 301 298 296 298 294 296 300 299 297 299 298 291 285 282 285 288 285 288 290 288 280 281 281 284
306 306 306 306 307 309 310 304 297 299 292 296 299 298 298 297 296 301 301 298 298 297 292 294 294 297 297 298 299 297 294 287 289 288 289 288 287 287 288 287 286 282 284 286
306 306 307 308 309 309 308 304 300 299 294 297 298 296 298 298 298 298 297 296 299 297 294 295 294 296 294 292 295 294 295 285 286 284 289 288 285 287 287 287 287 288 287 287
306 307 308 308 308 310 306 307 308 301 294 293 293 294 298 299 301 301 302 300 296 292 296 298 297 298 298 298 295 293 290 284 281 277 284 282 278 284 289 289 290 289 285 289
307 307 307 307 308 309 314 311 306 298 290 291 294 300 300 300 300 299 301 300 296 299 300 296 295 294 296 297 296 296 287 283 278 275 277 271 285 291 292 290 291 291 291 292
307 303 304 304 307 309 317 312 306 297 286 296 298 300 300 300 300 299 300 302 301 302 295 286 285 283 285 288 294 293 292 283 278 274 276 280 286 290 290 288 287 293 291 292
303 303 305 307 308 309 315 312 308 301 295 296 303 300 300 295 294 295 298 304 304 297 284 282 279 278 282 284 288 293 290 284 280 277 270 270 283 291 294 293 283 294 293 291
304 305 306 307 308 311 312 311 311 305 297 302 303 298 298 299 296 293 296 297 296 295 280 277 278 281 287 282 281 279 280 277 276 270 271 279 287 294 295 283 282 294 294 293
305 304 305 306 308 311 312 310 312 307 299 303 306 307 302 300 297 292 296 294 292 286 282 279 280 276 283 283 286 284 282 279 278 275 272 276 292 292 287 290 292 295 294 293
304 304 305 306 307 310 310 309 313 311 306 304 308 308 308 307 303 300 296 296 294 293 285 282 285 278 285 281 279 289 282 285 283 285 284 291 292 292 294 295 294 293 294 294
303 304 305 306 308 310 312 310 308 305 298 302 303 303 309 310 309 309 297 295 301 297 294 291 284 279 283 281 282 283 290 292 284 286 290 291 293 295 296 296 294 295 296 297
305 305 305 306 309 310 311 308 307 302 296 288 298 308 305 310 311 310 307 305 301 297 293 285 284 279 289 281 285 285 289 292 289 286 291 293 296 296 295 295 296 297 298 295
306 305 305 307 309 310 311 308 307 307 299 291 290 303 305 306 309 308 307 304 300 294 289 286 286 284 286 286 286 286 293 291 286 285 293 293 293 296 296 295 296 296 292 289
306 304 303 305 308 309 305 300 307 307 303 294 287 298 300 303 306 305 304 304 300 295 291 287 291 295 288 285 286 293 296 297 295 293 295 295 295 295 297 297 297 293 290 288
306 304 305 305 306 307 301 296 303 304 302 292 288 287 295 299 300 297 299 299 297 297 292 287 289 287 292 286 284 293 295 297 297 298 297 292 294 294 298 295 291 291 289 288
306 304 303 305 306 305 303 304 303 303 296 291 285 283 287 296 289 289 295 289 292 293 292 291 287 290 287 287 291 294 296 296 296 297 296 297 296 292 289 290 289 287 286 286
305 304 304 304 301 297 300 302 302 302 298 287 284 284 283 293 291 289 290 292 287 291 287 288 289 286 286 290 292 293 294 294 295 296 296 295 291 289 290 289 288 286 285 285
303 303 297 292 297 302 302 299 292 291 289 290 286 289 286 293 287 287 285 287 285 281 286 291 286 287 289 291 292 293 295 295 296 291 287 288 287 287 288 289 288 286 285 284
297 293 290 297 301 297 292 287 285 290 288 289 289 288 289 291 287 284 285 284 285 283 281 286 282 284 286 288 288 290 291 291 291 291 290 290 289 287 287 286 286 285 284 283
297 295 297 293 290 287 288 286 287 287 285 287 287 288 290 288 289 287 287 285 284 281 287 285 281 285 287 288 288 290 292 291 291 291 291 291 290 289 285 284 283 283 283 280
297 292 288 290 286 286 286 284 284 284 285 287 286 286 286 287 288 285 285 284 283 286 284 282 283 286 289 289 290 290 291 290 289 290 289 287 286 285 284 283 283 280 282 283
289 287 284 285 282 283 283 284 285 285 285 285 285 285 285 285 285 285 284 284 284 282 277 273 285 288 289 286 285 284 283 281 283 284 284 283 282 282 280 278 278 277 280 282
286 285 281 281 283 284 284 285 285 285 286 286 285 285 286 284 283 284 282 279 276 277 276 282 284 285 286 285 286 284 283 281 282 283 282 279 279 279 281 281 281 282 277 277
286 284 282 284 284 284 285 285 285 287 286 286 286 284 282 281 282 279 278 278 273 274 282 284 285 285 286 287 287 284 284 283 283 284 284 283 279 278 283 282 280 277 276 276
285 284 285 285 284 284 285 285 285 288 286 283 283 274 276 282 278 278 282 278 281 284 284 286 286 286 286 285 284 284 284 284 284 284 284 283 283 278 278 279 284 283 282 278

GFSNW_sfc_thetae_036.txt.gz
Theta_e
308 307 307 307 307 310 309 300 294 312 304 294 292 292 298 301 298 301 300 299 295 293 294 293 292 293 295 299 298 291 293 288 283 287 292 294 291 289 287 279 280 279 278 280
307 306 307 307 307 310 307 302 305 313 301 287 287 294 298 300 297 298 298 297 298 298 295 291 294 295 299 297 296 293 293 287 281 285 288 291 288 290 289 285 283 281 275 279
306 306 307 307 307 310 307 303 296 301 301 295 293 293 295 296 300 299 299 298 299 297 294 296 293 294 298 297 296 299 296 289 285 282 283 287 284 288 288 287 279 281 280 282
306 306 307 307 307 309 308 301 296 300 293 295 292 295 296 296 294 299 299 297 297 295 291 292 292 295 295 296 298 296 292 286 287 286 287 287 285 285 288 286 285 282 283 284
306 306 306 306 307 309 306 303 297 295 293 299 296 294 296 296 297 297 295 295 296 296 293 294 292 295 292 290 294 292 293 284 285 284 286 286 284 286 286 286 285 286 285 285
306 306 306 307 307 309 305 305 305 299 292 293 293 293 297 298 300 299 299 298 295 292 295 297 296 296 296 295 293 291 288 284 281 279 282 281 277 284 285 286 288 287 283 287
305 307 307 307 308 309 309 308 304 297 287 289 295 298 298 298 298 297 299 298 294 296 298 296 295 293 295 296 294 293 285 282 277 274 276 270 283 289 289 288 289 289 289 290
306 306 306 307 308 308 312 309 304 296 285 291 294 298 298 298 298 297 298 300 299 299 292 287 286 283 285 287 291 289 289 282 276 274 275 280 284 288 289 287 287 292 290 290
303 304 305 305 307 308 312 310 306 301 293 293 300 298 297 293 292 294 296 302 300 295 283 282 279 279 283 283 287 291 288 283 280 274 271 269 282 289 293 291 282 291 292 290
304 306 306 307 308 310 313 312 308 304 297 300 300 297 297 297 294 292 295 297 294 293 280 276 277 279 284 281 280 279 282 279 275 269 270 278 286 291 293 282 283 292 292 291
304 305 306 307 308 310 314 311 310 305 298 301 304 305 299 298 296 291 296 293 292 285 282 279 279 276 282 283 285 284 283 281 281 275 270 276 290 292 286 290 289 293 292 292
304 305 305 307 309 309 314 311 312 309 304 303 306 306 306 304 301 298 295 296 293 292 284 279 280 279 284 280 279 287 282 284 281 283 283 289 290 291 293 293 292 293 293 293
304 304 306 307 309 309 312 310 304 304 298 301 302 302 307 308 307 306 296 293 298 294 292 286 282 279 282 279 281 282 288 289 283 285 288 290 292 293 296 295 294 294 295 295
304 305 307 307 308 309 310 306 304 301 296 289 296 306 303 307 309 308 305 301 297 294 291 285 283 280 287 281 283 283 288 289 287 285 290 290 295 295 295 295 295 296 296 295
304 305 308 308 309 309 310 306 306 304 298 291 289 301 303 305 307 305 304 302 298 293 288 286 285 282 285 286 285 285 290 289 285 284 291 291 291 294 295 295 295 295 291 289
302 304 305 306 306 306 303 299 305 305 301 294 288 296 297 301 303 302 301 301 297 294 291 286 288 293 287 286 287 292 294 295 293 291 293 294 294 294 295 295 295 291 290 289
304 305 306 306 307 307 299 295 303 302 300 292 288 287 294 296 298 295 297 296 295 295 292 287 288 288 291 285 284 291 294 295 295 296 294 292 292 293 296 292 289 289 288 288
303 304 305 304 304 304 302 302 302 302 294 291 285 284 287 295 290 289 295 290 292 293 292 290 287 290 287 286 290 293 295 295 295 295 295 294 291 288 287 289 289 289 288 287
304 304 304 304 301 298 299 302 301 300 297 286 280 283 282 293 290 289 290 291 287 291 287 288 289 286 285 288 287 290 291 292 293 293 290 289 288 289 290 290 289 287 286 285
303 303 297 290 297 302 301 297 292 290 289 292 285 288 286 292 287 286 286 287 285 280 283 291 286 286 288 286 287 287 289 291 294 287 286 287 287 288 288 288 287 287 286 285
298 293 290 297 300 297 289 285 285 288 283 288 288 288 287 291 287 285 284 284 285 283 280 286 283 283 285 287 288 289 290 290 290 290 290 290 288 287 286 285 285 284 284 283
297 296 296 293 291 288 286 285 285 285 281 286 287 287 290 288 288 287 286 284 284 281 286 284 281 282 287 289 290 291 291 291 291 291 290 290 290 289 286 283 283 283 282 280
295 290 287 288 285 286 284 284 285 285 285 287 286 286 286 288 288 286 286 284 283 285 284 282 283 285 289 290 290 289 288 288 288 289 289 287 285 285 283 282 283 280 282 283
288 286 286 285 284 283 284 285 285 285 285 285 286 285 285 285 285 285 284 284 284 281 278 275 284 287 285 284 284 284 282 280 282 283 283 283 282 282 280 279 278 277 280 282
286 286 281 281 283 284 284 285 285 285 286 286 285 285 286 284 284 283 282 277 273 275 273 282 284 285 285 286 286 283 282 278 281 282 282 278 278 279 280 280 280 281 275 276
286 283 282 284 284 284 285 285 285 287 286 286 286 284 281 281 279 276 275 275 270 274 282 282 284 284 286 287 287 284 284 284 283 283 283 282 278 277 282 281 279 275 274 274
284 284 285 285 285 284 285 285 285 288 285 283 282 276 275 280 275 275 278 274 279 283 285 286 286 286 287 287 285 283 284 283 283 283 283 283 282 278 279 280 283 282 281 278

GFSNW_sfc_thetae_039.txt.gz
Theta_e
310 310 309 308 307 307 308 302 296 314 307 296 294 293 296 302 301 302 302 300 298 296 296 296 295 295 298 301 302 297 296 293 289 292 296 298 296 294 293 287 284 285 285 287
309 309 308 307 307 310 307 299 305 314 304 290 290 296 299 301 299 300 300 300 301 301 297 294 296 297 301 300 299 297 297 292 287 289 293 295 294 294 291 289 288 285 286 287
308 308 307 306 307 310 310 305 298 304 300 297 295 295 296 298 302 302 301 300 301 299 297 298 295 297 300 301 299 299 299 291 290 288 289 292 289 292 291 292 287 286 287 289
307 307 307 306 306 310 309 302 299 302 294 295 295 297 298 297 297 302 301 299 299 298 294 295 295 298 298 298 299 298 297 291 291 289 290 290 289 289 291 290 290 288 289 289
307 306 306 306 307 309 308 300 298 296 296 298 296 296 297 297 299 300 299 298 299 300 296 297 295 297 296 294 298 296 295 290 290 288 289 288 288 289 289 290 290 290 289 289
306 306 306 306 307 309 306 307 304 300 292 295 293 294 297 298 301 301 301 300 298 296 299 300 299 299 298 297 297 293 292 289 287 284 284 284 283 288 290 289 291 292 288 294
306 305 305 305 308 308 310 309 304 296 288 293 293 297 300 299 300 299 300 300 298 299 302 299 299 297 297 297 294 295 288 286 282 282 280 279 289 292 292 290 291 292 293 294
305 305 305 305 307 308 313 310 305 296 286 292 295 298 299 299 300 299 300 301 300 301 296 292 290 288 290 290 292 290 291 286 281 283 281 284 287 288 291 290 291 294 294 294
304 305 306 306 308 308 313 311 307 301 292 292 299 299 299 296 295 297 299 302 301 297 289 288 285 285 288 287 290 293 289 288 288 281 281 279 287 291 296 295 288 295 296 294
304 305 305 306 308 308 314 311 309 307 298 302 302 298 298 299 297 294 297 298 298 297 287 286 286 286 287 285 283 283 285 284 285 276 283 284 289 292 296 286 289 294 296 295
303 304 305 306 308 308 313 310 312 308 300 303 307 306 299 299 299 295 298 297 296 290 288 288 286 286 287 287 288 287 287 284 283 279 280 281 292 295 291 296 295 296 296 296
304 305 306 307 308 309 312 309 313 310 305 304 308 307 308 308 305 300 297 299 296 296 290 286 285 285 286 285 286 290 286 290 288 287 289 294 294 296 298 297 296 297 297 298
304 305 307 307 309 309 312 311 308 307 301 302 304 303 308 309 307 308 299 296 300 296 295 289 287 286 287 285 286 288 291 291 289 289 293 292 294 297 297 299 298 299 299 298
305 306 307 308 308 309 310 308 306 305 299 290 299 306 304 307 309 309 306 301 298 296 294 288 287 288 289 286 289 289 292 292 290 289 293 294 295 297 299 298 299 299 298 298
306 307 307 307 308 309 309 308 306 305 302 292 294 302 303 305 307 304 304 302 300 296 292 287 289 287 289 289 288 287 292 291 289 289 294 294 295 297 299 298 298 298 295 291
306 307 308 307 307 307 306 302 305 303 302 297 290 297 297 300 303 302 301 302 298 296 294 288 291 294 291 286 287 293 295 297 296 294 298 297 298 299 299 298 295 292 290 289
306 305 306 306 305 306 299 297 303 302 301 293 289 290 294 296 299 298 298 298 296 297 293 289 291 292 293 287 287 292 295 296 297 298 298 296 295 293 291 290 290 291 291 291
304 304 305 304 305 304 303 302 301 301 295 293 287 286 290 296 291 291 296 292 294 294 293 291 289 291 289 288 289 290 291 293 295 295 293 291 290 290 290 291 290 288 286 286
303 303 303 304 301 299 301 302 301 300 297 287 284 285 286 295 290 290 292 293 287 292 288 290 292 287 285 285 286 287 288 289 291 289 290 291 290 289 289 288 287 286 285 287
303 302 298 292 297 301 301 297 293 292 290 291 284 289 287 293 288 287 289 288 287 285 287 291 287 285 286 287 288 288 289 291 290 288 287 287 287 287 287 287 288 288 287 287
299 294 292 298 300 297 290 286 287 288 285 289 288 289 288 292 289 286 286 285 286 283 285 287 285 284 285 289 289 290 291 291 291 291 290 290 289 288 287 287 287 287 287 285
298 298 297 295 292 288 287 286 286 285 284 287 287 288 291 288 290 287 288 284 285 282 288 285 282 283 288 290 290 291 291 292 291 291 290 290 290 290 289 286 285 284 284 283
297 293 290 291 287 285 281 282 284 285 286 287 286 286 287 289 290 286 287 285 284 287 285 283 283 286 289 289 289 288 289 289 289 289 289 287 286 285 285 284 285 283 284 285
287 286 285 282 285 284 284 285 286 285 285 286 286 285 286 286 286 285 285 284 285 283 281 279 284 287 286 287 287 286 283 282 284 284 285 283 283 283 281 279 279 277 283 283
286 286 281 282 283 284 284 285 285 285 286 286 286 286 287 285 284 284 283 280 277 278 278 282 284 283 284 284 284 284 284 280 283 285 283 280 280 281 282 283 283 282 280 280
286 284 282 284 284 284 285 285 285 287 286 286 286 284 284 281 281 280 279 278 275 279 283 284 285 285 286 287 287 285 285 284 284 284 284 283 280 280 282 282 282 280 280 278
284 283 285 285 285 284 285 285 285 288 286 284 283 278 278 282 278 277 281 278 280 284 285 285 285 286 287 287 286 284 284 284 284 284 283 282 282 281 280 278 278 279 280 278

GFSNW_sfc_thetae_042.txt.gz
Theta_e
308 311 311 310 309 307 308 312 301 323 322 306 309 301 302 303 305 308 304 304 302 300 301 300 299 299 301 305 305 302 302 302 296 297 301 302 301 299 299 292 289 293 292 291
308 309 310 309 308 308 312 307 310 317 316 301 302 303 302 306 303 305 305 303 304 305 302 298 301 302 304 304 304 303 303 299 293 294 298 300 298 300 299 296 296 291 290 291
307 308 309 308 307 309 315 309 304 311 310 309 304 301 300 301 306 305 306 305 306 305 302 304 301 302 302 303 304 299 302 300 297 293 295 299 295 297 298 297 292 291 292 293
306 307 309 308 307 309 313 311 305 309 302 304 303 304 302 300 301 306 307 304 305 304 300 301 301 303 301 303 300 304 304 297 297 295 295 295 296 296 297 295 296 292 294 293
306 307 308 307 307 308 309 308 306 308 308 306 302 300 301 300 303 304 303 304 305 306 303 303 301 303 302 302 303 303 301 297 296 293 294 294 293 296 296 297 297 297 297 296
306 307 307 306 307 309 312 317 312 311 299 303 301 300 302 302 307 305 305 308 306 304 304 307 309 307 306 305 304 302 300 298 294 290 291 291 289 294 296 296 298 298 294 299
308 307 306 306 306 310 319 320 313 308 298 301 299 301 304 304 306 305 305 307 306 305 309 309 308 306 304 303 300 302 297 296 293 291 287 285 293 297 296 297 299 300 298 299
307 306 306 306 306 308 316 322 314 307 295 302 301 303 305 306 307 306 306 305 306 310 306 303 298 298 298 298 298 298 299 296 289 290 287 290 293 293 292 293 294 299 299 300
305 305 305 305 306 308 311 321 317 314 303 300 304 304 307 305 305 305 302 305 307 304 303 301 295 293 296 293 295 298 296 297 296 288 289 286 293 296 300 299 291 300 301 300
305 305 305 305 305 308 314 321 318 317 309 306 309 304 305 309 307 305 302 302 302 304 301 298 297 295 294 292 290 289 293 293 291 290 290 292 296 296 300 289 292 300 302 302
304 304 305 305 305 308 313 318 319 319 310 310 311 310 307 307 310 305 304 304 303 303 300 300 297 296 295 294 294 293 293 292 290 289 288 286 298 299 294 300 303 301 303 303
304 305 305 305 307 308 311 316 319 320 314 310 314 313 314 312 311 310 307 308 306 307 303 300 297 292 290 295 293 296 292 297 296 295 296 299 301 303 304 304 303 304 303 304
304 304 305 306 307 309 313 318 318 319 313 310 312 309 313 316 315 316 308 307 308 305 307 304 301 291 299 290 295 295 297 297 296 294 298 299 301 303 304 305 303 304 304 305
304 304 305 306 308 309 312 317 315 317 310 296 306 312 310 313 315 315 312 310 307 306 308 303 295 296 298 297 297 297 299 298 296 296 299 300 300 302 303 304 305 304 304 304
304 305 306 307 308 308 314 313 311 314 312 298 305 309 309 311 312 310 311 309 308 307 304 296 299 298 298 296 297 297 299 297 296 296 298 299 300 303 304 303 303 303 300 298
306 306 308 307 307 309 318 309 310 309 315 309 297 306 305 309 310 309 308 309 308 307 302 294 300 298 301 292 296 296 299 300 301 299 303 303 303 300 301 299 298 297 296 296
306 306 305 305 306 312 309 306 308 305 310 306 296 300 303 304 307 305 307 307 305 306 299 294 297 297 301 292 295 294 296 298 300 302 302 299 295 293 296 296 295 293 291 290
306 306 305 305 305 306 309 308 303 305 306 307 295 295 301 303 298 297 302 300 304 299 296 296 294 296 297 293 290 292 295 297 296 295 297 295 295 294 292 291 291 289 288 289
305 304 305 314 309 310 309 301 303 309 307 299 290 294 291 299 294 296 300 300 292 296 294 294 298 291 289 287 288 290 291 292 292 295 294 292 290 289 290 289 289 288 288 290
303 310 309 303 306 302 304 307 306 303 300 298 288 295 290 297 295 291 294 294 292 290 292 294 290 286 288 289 290 290 293 295 294 289 287 288 288 289 289 290 291 291 291 292
309 305 299 306 302 307 301 296 295 296 291 293 292 295 292 295 292 289 292 289 292 287 291 291 288 285 286 290 290 292 294 294 294 292 291 291 291 291 291 291 291 290 289 288
305 306 304 305 301 299 290 288 291 290 288 290 291 292 294 292 297 292 292 288 289 285 293 289 285 285 289 290 290 292 294 294 294 294 293 293 292 291 289 288 287 288 287 286
307 303 294 299 292 289 289 285 287 286 288 289 289 288 292 293 295 290 290 286 286 293 286 285 285 288 289 290 291 291 292 292 292 290 289 289 288 288 288 287 287 288 288 288
296 292 287 288 287 287 287 289 288 287 288 289 291 288 290 290 290 288 287 285 287 284 282 283 285 287 288 290 290 289 287 286 288 288 288 286 286 286 285 285 285 285 285 285
290 291 284 284 285 286 285 286 287 287 289 291 291 290 292 287 286 287 287 283 282 284 284 285 286 287 289 289 287 287 286 286 287 288 286 285 285 286 286 286 284 283 282 281
289 287 284 286 285 285 285 285 285 289 288 290 291 287 287 285 287 285 284 284 283 284 288 287 286 287 289 288 288 288 288 288 288 288 287 285 284 284 284 283 281 281 281 279
287 285 286 286 285 285 285 286 286 288 287 285 288 285 283 286 284 283 286 285 287 287 285 287 289 288 287 289 288 287 287 288 287 286 285 284 283 282 281 279 279 280 280 279

GFSNW_sfc_thetae_045.txt.gz
Theta_e
308 308 308 310 310 309 308 311 302 321 326 302 306 303 306 304 305 311 306 305 303 301 302 300 300 299 303 309 308 303 306 302 297 299 304 305 304 301 301 294 292 294 294 292
307 308 308 310 309 309 310 306 309 322 321 298 304 307 306 307 304 306 306 303 304 305 303 299 302 302 308 308 308 304 306 299 294 296 300 303 300 302 301 301 298 293 292 293
307 308 308 309 309 309 314 309 303 309 314 308 307 304 304 302 308 307 308 305 306 304 302 304 302 302 306 308 308 301 305 301 297 293 296 301 299 300 301 300 294 293 294 296
307 307 308 309 308 309 312 309 305 309 302 305 307 307 305 301 301 308 309 305 305 304 300 301 302 305 305 306 301 305 306 299 300 300 300 300 299 299 299 298 298 295 296 296
306 307 307 308 308 309 307 308 306 309 306 306 307 304 304 301 303 305 304 303 305 306 303 304 302 306 305 304 307 306 306 299 300 296 299 299 297 299 299 299 299 298 298 297
306 306 306 307 307 309 305 314 317 311 305 307 305 305 304 303 306 309 310 307 305 306 307 312 313 311 310 309 307 305 304 301 297 292 295 295 291 296 298 299 300 300 296 301
305 305 305 306 307 308 313 316 316 308 304 307 305 305 306 304 305 306 308 311 308 310 315 314 312 310 308 307 306 309 303 301 298 293 289 285 296 299 299 298 300 301 301 302
305 305 305 305 307 308 315 326 319 310 301 307 304 305 305 306 309 309 309 309 313 315 312 305 300 301 300 300 302 301 304 300 293 291 290 293 295 297 296 295 295 301 300 301
305 305 305 306 306 307 313 319 324 315 309 306 306 304 306 305 307 308 306 312 313 311 310 305 296 293 297 296 299 301 299 301 298 291 289 285 295 299 302 301 292 301 301 301
305 305 306 306 306 307 313 318 325 318 309 309 309 305 306 309 309 307 306 307 306 310 307 299 299 297 300 295 294 291 295 296 293 293 292 295 300 300 302 291 294 302 303 303
305 305 305 306 306 307 312 316 326 320 313 312 314 312 309 311 310 307 309 307 307 307 302 304 302 299 300 298 299 296 295 295 291 295 288 287 301 301 295 303 304 304 304 305
305 305 305 305 306 306 311 312 325 325 318 312 319 318 318 316 317 313 311 309 309 310 306 306 307 296 295 300 294 301 295 300 299 298 298 303 303 302 305 306 304 305 305 307
304 304 305 305 305 308 313 317 322 323 315 312 314 313 316 319 320 322 311 315 314 312 316 310 308 297 305 293 299 300 301 302 299 297 299 301 302 305 306 307 307 307 308 307
304 304 304 305 306 308 311 318 321 322 314 302 308 317 313 317 319 318 319 318 316 315 315 311 298 298 305 303 302 301 302 301 299 299 301 301 303 305 306 306 308 307 307 306
304 304 305 306 307 309 314 319 316 320 316 303 306 313 313 316 317 316 316 316 313 311 308 299 303 305 304 303 303 301 302 300 299 298 302 302 303 304 305 305 304 304 302 300
303 304 305 306 308 310 319 315 316 316 321 311 301 310 309 314 315 314 314 315 314 314 306 303 305 303 307 296 298 301 302 302 303 302 304 304 303 301 301 300 300 300 299 297
304 305 306 307 308 317 313 308 312 310 319 309 299 301 308 310 313 311 312 314 312 312 307 299 304 304 305 296 297 299 299 300 302 303 303 299 300 297 299 297 296 295 293 293
305 306 306 305 305 306 311 307 303 309 310 312 297 296 303 308 305 302 309 308 311 304 300 301 299 301 301 298 296 297 298 300 299 299 301 299 298 296 294 294 292 291 290 291
305 305 306 315 315 313 310 302 304 313 310 303 292 293 291 304 300 302 303 308 295 303 297 298 300 294 293 292 294 294 295 296 296 296 296 295 293 292 291 292 292 292 292 293
305 314 311 308 311 303 305 307 309 308 305 302 292 299 294 301 299 295 297 297 295 292 294 300 295 289 291 293 293 294 296 297 295 292 289 290 289 291 292 293 293 293 292 291
314 309 303 310 304 310 305 298 300 302 293 296 295 299 295 300 295 291 296 292 295 288 292 292 290 288 288 292 293 295 297 296 295 294 294 294 294 292 292 292 291 290 289 289
310 309 309 309 306 302 292 290 292 293 289 292 292 294 296 295 302 296 296 290 293 286 295 292 287 287 290 291 292 294 295 295 294 295 293 293 293 292 290 290 289 289 289 287
313 306 297 302 294 289 289 287 288 288 290 290 292 289 295 295 299 293 292 287 288 296 288 287 287 289 290 292 293 292 294 294 294 292 291 290 290 290 290 288 289 290 289 289
300 293 288 290 287 288 288 290 288 288 289 292 294 290 292 294 289 292 288 287 291 285 284 285 287 288 290 293 293 292 290 290 290 289 289 288 288 287 287 286 286 285 285 285
293 293 285 285 285 286 286 287 289 288 291 294 292 293 295 289 288 290 287 284 284 286 286 286 287 288 291 291 290 289 287 287 289 289 287 287 288 288 287 286 284 283 282 281
290 288 285 286 286 285 286 286 286 290 291 297 297 291 289 286 288 286 287 286 285 285 288 287 288 289 290 290 290 289 290 289 290 289 288 286 285 286 285 283 282 282 281 280
288 285 286 287 285 285 285 286 286 290 290 287 291 286 284 289 286 284 288 286 288 287 288 288 289 289 290 290 290 288 290 290 289 289 288 286 285 283 282 281 281 281 281 281

GFSNW_sfc_thetae_048.txt.gz
Theta_e
307 308 309 309 310 309 308 306 297 319 323 303 301 299 303 304 307 309 306 305 302 300 300 299 298 298 302 308 307 302 305 301 297 298 304 305 303 300 300 296 292 296 295 292
306 307 308 308 310 309 308 301 306 321 318 296 297 302 304 305 305 306 305 304 304 305 301 298 301 302 309 308 306 303 306 300 293 294 300 304 300 300 300 300 300 294 291 293
306 307 308 308 309 309 310 302 299 307 312 308 300 299 301 302 308 306 306 305 305 303 301 304 301 301 307 309 308 303 308 301 296 292 295 300 298 299 300 299 295 294 294 295
305 306 307 308 308 309 308 305 302 307 298 302 302 305 303 300 301 307 307 304 304 302 299 300 300 303 305 307 302 305 306 296 297 298 299 300 299 299 299 297 298 294 297 296
304 306 307 307 308 309 306 302 304 309 305 305 303 301 303 301 303 303 303 303 304 304 301 301 300 303 305 303 306 305 306 298 300 297 300 299 296 298 298 298 298 297 298 297
304 305 306 306 307 308 304 309 312 308 303 304 301 301 304 304 306 306 306 307 305 304 306 310 312 312 311 308 306 304 304 302 298 293 296 294 289 296 297 298 300 299 294 300
305 306 306 306 307 308 310 311 313 307 301 302 301 303 306 306 306 305 308 310 307 311 316 315 312 310 309 309 308 309 304 303 300 294 289 284 296 300 299 297 298 299 299 301
305 305 305 306 306 308 308 313 312 309 299 304 303 305 306 308 308 307 307 311 315 317 314 306 300 300 298 301 304 304 307 302 295 290 290 293 295 297 296 295 295 300 299 300
304 304 305 305 306 307 307 310 312 313 308 304 306 306 308 304 306 307 307 314 319 317 312 306 296 294 297 296 297 301 301 305 298 293 289 284 297 299 302 300 292 300 301 301
304 304 305 305 305 305 305 306 311 310 305 309 309 306 305 310 310 305 307 307 308 312 307 295 301 298 300 295 294 290 295 296 291 292 291 295 301 301 302 291 295 303 303 303
304 304 304 304 304 304 305 303 309 307 312 313 315 313 309 310 312 300 307 307 308 310 302 303 304 299 302 299 300 296 294 294 290 296 288 286 302 300 295 302 305 304 305 305
304 304 304 304 305 306 306 302 312 315 309 315 319 318 319 316 318 313 312 311 309 311 307 307 309 294 294 301 295 302 296 301 299 298 297 305 304 303 306 306 304 305 305 305
303 304 304 305 305 306 306 307 313 318 315 313 314 313 316 319 320 325 311 317 315 314 320 312 309 293 306 292 301 303 302 304 301 300 300 301 303 306 307 306 305 306 307 306
301 304 304 305 305 306 306 307 313 316 317 303 308 317 313 318 320 321 323 321 321 320 319 313 297 297 308 304 305 304 303 303 299 299 301 302 304 305 305 306 307 306 305 303
301 304 305 305 305 306 307 311 316 318 313 302 305 312 314 317 318 316 318 319 317 315 309 296 305 308 307 306 306 304 303 301 300 299 303 303 300 302 304 301 300 301 299 296
304 304 304 305 305 306 310 306 318 319 319 310 299 310 311 314 316 315 316 316 317 315 307 306 307 307 308 295 300 302 303 304 305 302 305 303 300 300 301 299 298 297 296 295
303 304 304 305 305 309 308 306 309 307 317 309 296 299 308 312 313 313 312 317 313 312 307 303 305 304 306 295 300 301 301 302 303 303 304 299 300 295 297 296 295 295 294 293
303 304 304 305 305 306 308 309 305 306 312 312 294 292 302 309 306 303 310 310 310 305 300 301 301 302 304 299 299 299 299 301 300 300 301 299 298 296 294 294 294 292 291 292
304 305 306 310 310 308 307 302 304 318 310 302 291 292 290 305 301 302 304 307 295 303 297 299 301 295 294 297 297 297 298 298 296 297 297 296 294 293 292 293 292 291 291 292
305 310 308 298 305 302 304 310 308 307 305 303 294 299 293 300 298 295 296 298 294 292 295 300 294 290 294 295 297 297 298 298 297 293 291 291 290 291 292 292 292 291 289 289
315 306 299 305 303 309 306 296 298 300 293 296 297 299 295 301 294 291 298 293 295 290 292 294 290 289 290 294 295 298 298 297 296 296 294 294 293 292 291 290 289 290 288 287
311 310 310 311 306 302 292 289 293 292 289 292 293 295 296 297 303 296 296 290 293 287 295 289 287 288 292 293 294 295 296 295 294 295 293 293 292 292 290 289 288 288 287 284
314 305 295 301 293 289 287 285 288 287 289 291 292 290 295 297 298 292 291 287 289 296 288 287 288 289 292 293 294 294 295 294 293 292 291 290 290 290 288 287 287 287 287 284
299 291 287 288 286 286 286 287 287 287 288 291 292 290 292 293 288 290 286 287 290 285 284 286 287 289 291 292 293 291 290 288 290 289 288 287 286 285 284 283 283 282 282 282
291 291 284 284 285 286 286 287 287 288 293 294 293 293 293 288 287 289 286 284 284 286 286 287 288 290 292 291 291 288 288 287 287 288 286 285 286 285 284 283 283 282 279 279
289 286 285 286 286 285 285 285 286 290 292 296 298 290 287 286 288 286 286 286 285 286 287 287 289 289 291 290 289 289 289 289 288 287 287 286 285 284 283 282 281 279 279 277
287 284 286 286 285 284 285 286 286 291 291 287 292 286 284 289 286 284 287 284 286 287 287 288 289 289 289 289 289 288 289 289 289 288 287 286 284 283 282 281 280 280 281 277

GFSNW_sfc_thetae_051.txt.gz
Theta_e
305 306 308 309 309 310 309 306 296 311 317 298 297 294 298 301 304 306 305 303 302 299 297 297 295 296 298 303 305 299 301 295 290 295 301 303 299 296 296 284 286 287 283 285
303 304 307 308 309 309 308 301 302 313 312 289 292 297 298 301 302 302 303 302 303 303 298 296 297 298 306 304 302 299 302 294 285 290 295 299 296 297 296 296 292 287 280 285
303 302 307 308 308 309 309 302 295 304 306 299 295 295 295 296 304 303 305 304 304 301 297 300 299 300 306 306 304 301 303 297 292 285 290 295 293 296 297 294 284 286 287 291
303 302 306 307 308 308 308 302 298 304 296 298 297 297 297 296 298 305 305 303 302 300 294 296 298 301 303 305 302 302 300 292 294 294 296 297 296 295 295 294 293 287 291 293
301 302 305 306 307 308 304 298 298 304 301 302 299 297 295 297 299 302 300 300 302 301 296 297 296 301 301 299 301 299 301 292 293 291 297 295 292 294 295 294 294 293 293 292
299 299 300 306 307 307 299 304 305 304 299 299 297 296 297 298 302 304 305 303 301 299 300 304 303 306 305 304 300 297 298 294 288 285 290 290 283 291 293 294 295 293 288 293
298 299 300 305 306 306 304 305 305 302 293 299 298 299 300 300 301 301 305 304 301 306 310 308 306 304 304 306 303 304 297 295 288 283 283 276 291 297 295 293 294 294 294 296
299 299 301 304 305 307 302 306 307 301 289 300 300 299 300 301 303 303 304 307 310 310 307 298 294 291 291 297 302 300 302 293 286 281 281 288 292 294 294 291 290 295 294 296
300 301 303 304 305 307 305 303 309 306 300 298 304 300 301 298 300 301 304 310 312 310 303 292 287 285 291 291 294 300 299 297 286 283 279 275 290 295 299 296 284 297 297 297
302 303 303 304 305 306 305 303 308 304 300 305 305 299 298 304 304 302 302 303 305 309 289 289 285 286 297 287 287 285 284 284 281 278 278 285 298 298 299 283 286 298 299 298
302 303 304 305 305 306 306 303 305 303 301 304 310 306 303 304 304 296 302 300 302 300 291 292 286 285 290 290 296 290 287 285 280 284 284 281 299 297 290 295 298 299 299 299
303 303 304 305 305 305 305 298 306 308 301 303 309 313 312 311 310 304 302 301 303 303 297 294 291 290 287 289 284 298 288 294 288 290 288 298 300 299 301 301 299 299 300 301
303 303 304 304 304 304 304 300 305 305 301 302 305 308 314 316 314 315 301 301 308 308 310 300 295 289 291 285 286 290 296 300 293 292 297 298 301 302 302 302 301 301 299 299
303 303 304 304 304 304 304 302 306 307 301 293 304 315 311 316 318 317 314 312 315 313 308 294 291 289 300 288 293 292 296 297 295 293 298 299 299 300 301 300 300 295 295 295
303 303 304 304 305 305 305 305 307 309 303 296 301 310 312 314 315 315 316 315 311 305 295 289 292 297 294 293 291 287 297 296 288 288 298 296 295 298 299 296 295 295 293 291
301 303 304 304 304 305 304 298 306 308 311 303 291 306 306 312 313 312 309 311 311 306 297 290 298 302 294 286 283 296 299 301 301 297 298 296 295 295 296 294 293 293 292 291
301 302 304 304 304 305 304 302 306 309 312 301 291 293 304 308 308 305 307 309 304 304 298 293 295 296 296 289 285 296 299 299 299 300 298 293 294 291 293 293 292 292 291 290
302 303 304 304 305 306 305 309 305 305 308 302 290 290 296 305 295 295 304 300 299 298 297 295 289 293 287 285 294 296 298 297 296 296 297 294 293 293 292 292 291 290 289 289
303 304 304 304 305 304 307 307 303 308 305 292 287 289 288 302 297 296 297 298 290 298 290 292 291 288 287 293 293 294 296 295 294 294 293 292 290 291 292 291 289 287 289 288
304 304 305 296 304 304 304 305 299 299 297 295 288 295 289 297 291 290 290 290 289 287 289 295 288 286 292 292 294 295 295 295 294 290 289 290 289 290 290 291 290 289 287 286
305 302 295 302 303 303 297 289 289 291 286 290 292 293 291 297 289 288 289 288 286 281 285 286 284 285 290 295 295 297 296 294 293 293 292 293 292 289 288 288 287 285 284 282
306 304 305 304 300 293 287 286 287 287 285 288 289 291 294 291 298 287 289 287 285 282 289 287 281 286 290 292 293 294 294 294 294 294 293 293 291 289 288 286 284 283 282 280
306 298 292 295 288 286 281 281 285 285 286 288 288 287 288 291 291 287 287 286 282 284 282 280 284 289 291 292 293 293 294 293 291 289 289 288 287 286 285 284 284 282 280 280
292 288 284 285 284 283 283 284 285 285 286 288 289 287 287 287 287 286 284 285 286 281 276 279 285 289 290 292 292 290 289 286 287 286 285 283 283 282 281 280 279 279 278 278
286 286 281 282 284 285 285 285 286 286 289 289 288 288 288 286 286 285 285 283 281 280 280 284 287 289 290 289 287 286 285 285 285 286 284 282 282 281 280 280 279 278 275 273
286 285 284 285 285 285 285 285 285 288 287 288 287 286 285 284 285 284 283 280 279 282 284 286 289 289 289 287 286 287 287 286 285 285 284 283 281 279 279 280 278 273 272 269
285 283 285 285 284 283 284 285 285 288 287 285 285 282 282 285 283 282 284 281 283 285 285 287 288 287 286 286 287 286 286 286 285 284 283 281 281 280 279 277 278 278 277 269

GFSNW_sfc_thetae_054.txt.gz
Theta_e
303 304 305 307 308 308 307 304 295 309 313 296 295 293 297 299 300 304 303 303 300 296 295 294 293 293 296 301 302 297 299 294 288 293 299 302 297 294 294 283 284 285 281 284
302 303 304 306 308 308 302 299 300 308 308 288 289 295 297 299 298 300 301 301 302 301 296 292 295 296 303 302 302 298 299 292 285 289 294 298 295 295 295 294 288 285 279 284
301 302 301 305 307 308 304 301 293 301 303 299 292 292 294 294 300 299 301 301 303 299 297 298 295 298 303 304 303 302 301 295 289 285 289 292 291 294 294 291 282 285 285 289
301 302 301 303 306 307 304 301 294 298 292 294 294 294 294 293 293 299 303 300 300 298 294 294 295 300 300 303 301 301 298 291 292 293 294 295 293 293 293 291 291 286 289 290
300 301 301 301 305 307 300 297 295 300 297 298 295 292 292 293 295 297 295 297 301 301 296 296 294 299 298 297 299 297 298 290 290 289 293 292 290 292 292 292 292 292 291 291
300 301 301 302 303 305 297 302 302 301 296 296 294 293 293 294 297 299 300 301 300 299 300 301 300 303 304 302 298 295 295 292 286 284 288 288 283 289 292 292 293 292 287 291
300 300 300 302 302 305 302 301 303 298 291 298 296 297 298 296 297 295 300 301 300 303 307 305 302 301 302 302 299 301 294 291 285 281 282 276 291 296 294 292 292 293 293 293
300 299 302 302 301 305 302 305 304 299 291 298 299 299 297 299 299 299 300 304 307 308 304 296 292 289 291 295 298 299 300 290 284 280 280 287 291 292 290 289 289 294 293 294
300 299 298 298 299 301 303 302 306 304 294 295 302 299 299 296 296 296 301 308 309 308 299 290 286 284 290 290 294 299 296 293 287 282 278 276 288 293 296 295 284 295 297 296
300 300 299 299 300 302 303 301 305 301 299 300 303 299 297 301 297 295 301 303 302 306 289 286 285 285 294 286 286 284 284 283 281 276 277 282 293 296 296 283 284 296 297 297
300 300 300 300 300 305 303 299 306 301 299 301 306 305 298 301 300 294 299 299 299 295 288 289 289 285 289 288 292 288 286 283 279 281 278 279 298 296 289 291 296 297 297 297
300 300 301 302 304 305 304 298 305 307 298 300 306 307 308 305 305 303 300 300 300 300 294 295 292 288 286 287 284 295 287 289 286 288 286 295 298 297 298 299 297 297 298 299
300 301 302 303 304 305 304 299 303 302 298 298 302 302 310 314 312 311 300 300 306 303 304 299 295 289 290 284 284 289 294 299 292 291 295 296 298 300 300 299 295 295 296 298
301 302 303 304 304 305 304 299 304 302 301 292 295 314 309 314 314 311 310 307 308 307 302 293 290 288 296 285 292 290 294 296 292 292 295 296 297 297 295 294 294 293 293 293
302 303 303 304 304 304 302 304 303 306 302 292 297 308 310 313 313 310 310 310 308 300 293 287 290 293 292 290 289 286 295 294 288 287 297 294 293 294 295 293 292 292 290 289
302 303 303 304 304 304 299 295 301 305 307 298 290 305 306 309 313 312 309 310 306 304 298 288 296 301 292 286 281 295 297 299 298 295 296 294 293 293 294 291 291 290 289 289
302 303 303 303 303 302 297 294 301 304 306 297 290 292 303 308 308 305 306 306 303 304 297 293 294 296 293 285 285 295 296 296 295 295 294 291 292 288 291 290 290 290 289 289
302 303 303 303 303 303 299 305 305 305 300 300 289 291 294 304 296 296 302 299 299 298 296 292 289 292 286 284 293 294 295 295 295 293 294 292 291 290 289 290 289 288 287 286
302 303 303 303 301 298 301 305 305 307 303 292 287 288 288 298 295 293 291 294 289 295 289 289 292 288 286 290 292 293 294 293 290 291 291 290 288 288 289 289 287 286 284 285
302 301 299 293 301 305 306 303 299 300 297 294 288 293 289 295 287 288 286 287 287 282 289 293 286 285 290 292 293 293 293 292 291 287 286 288 288 289 288 288 287 286 284 283
300 296 293 301 305 304 298 292 288 290 285 289 292 290 291 295 287 287 287 286 286 283 287 285 285 284 289 293 294 294 294 294 292 291 291 291 291 289 287 286 285 284 282 282
304 303 305 303 299 292 288 286 285 286 284 288 289 290 293 290 297 289 288 286 282 281 290 286 283 287 292 293 293 294 294 293 292 293 291 290 289 288 286 284 282 281 282 280
304 297 291 293 286 283 279 280 283 283 286 288 287 287 288 290 291 287 285 282 279 284 278 284 285 289 292 293 292 292 292 291 290 290 289 288 287 286 283 281 280 280 279 278
291 289 284 284 283 282 283 284 285 286 286 287 287 287 287 286 287 285 283 285 284 280 276 279 285 288 291 292 291 288 287 286 286 285 285 284 283 282 282 280 279 278 277 276
286 286 280 281 284 285 285 285 286 286 288 284 285 287 288 285 285 285 284 283 280 279 280 284 287 289 289 288 287 285 284 284 284 284 282 281 281 280 279 279 279 278 275 273
286 284 284 285 285 284 285 285 285 288 286 287 288 285 283 283 283 284 281 280 279 282 284 286 288 287 286 286 286 286 286 284 283 282 282 281 280 279 279 278 277 274 273 271
284 282 284 284 284 283 284 285 285 288 286 285 282 283 282 284 282 281 283 279 282 284 285 287 287 285 285 285 285 285 285 284 284 283 282 281 280 279 278 276 276 277 275 270

GFSNW_sfc_thetae_057.txt.gz
Theta_e
304 305 305 305 306 307 305 296 290 309 311 296 293 291 295 299 298 301 300 300 299 296 294 292 292 293 295 299 298 294 296 292 286 292 297 299 294 293 292 283 284 284 281 283
303 304 304 305 305 307 301 293 297 309 307 291 289 294 295 298 297 298 297 298 300 299 294 290 294 295 299 301 298 296 297 290 284 287 292 295 293 294 294 291 287 283 279 283
303 303 303 303 304 306 301 294 291 299 302 301 294 291 292 293 300 298 298 298 300 298 295 297 293 294 301 302 300 301 300 292 289 285 289 293 291 292 292 291 282 284 284 287
303 302 303 303 304 305 300 295 291 295 291 294 296 293 293 292 293 298 298 295 296 296 292 293 293 298 299 301 299 298 297 290 290 291 292 292 291 292 292 290 289 285 288 288
302 303 303 303 304 305 297 292 295 297 292 296 296 293 291 292 295 295 293 293 298 297 294 296 292 298 296 296 297 295 296 288 288 288 291 291 289 292 291 291 290 290 290 289
302 302 302 302 302 301 296 296 300 297 294 293 293 292 292 293 296 298 298 296 295 293 298 302 301 301 301 299 297 294 293 290 285 283 287 287 283 288 291 291 292 291 286 291
301 301 301 301 301 300 298 296 301 297 289 293 292 294 296 293 295 294 298 298 295 299 306 304 301 299 300 300 298 298 292 288 284 281 282 275 289 294 293 291 290 291 291 292
301 301 301 301 301 301 295 299 299 298 288 294 296 294 295 295 297 296 297 298 300 306 304 295 291 287 290 292 297 297 297 288 282 280 281 285 290 290 290 289 287 292 292 293
300 300 300 300 301 300 298 297 303 299 294 293 298 295 296 294 293 294 296 303 307 305 298 289 286 285 290 290 292 296 294 291 286 279 278 277 289 293 294 293 283 294 294 294
299 300 300 300 301 301 298 299 304 299 294 298 300 296 295 298 296 293 294 301 301 303 287 286 285 286 293 286 286 285 284 284 283 276 277 283 291 295 294 283 285 294 296 295
299 299 300 300 301 302 298 298 304 300 297 299 302 303 298 298 299 291 296 298 297 293 288 289 286 284 288 287 290 287 287 284 279 279 275 280 295 293 287 290 294 296 296 296
299 299 299 299 300 301 300 297 305 306 298 298 302 303 304 303 303 300 298 297 298 298 293 290 288 286 284 286 284 293 287 289 286 287 286 294 296 294 295 296 296 296 296 297
299 299 299 298 299 301 300 300 302 299 294 293 298 299 305 308 306 309 297 298 303 302 302 295 292 287 289 285 285 290 293 295 289 290 294 295 296 297 296 297 295 296 297 296
300 300 300 300 301 300 303 300 302 298 296 289 295 310 309 312 312 310 309 306 307 304 300 293 290 286 296 290 293 291 294 295 291 290 293 296 296 294 293 292 293 292 292 292
300 300 300 300 302 304 303 302 302 303 298 292 291 303 308 312 311 310 309 309 304 297 292 287 290 292 291 288 291 290 295 293 289 288 295 294 294 293 293 292 291 291 289 288
300 301 301 304 304 303 300 294 299 305 305 296 288 301 303 309 311 308 308 307 304 301 296 292 297 299 291 287 285 294 296 297 296 295 298 293 292 292 292 290 289 289 288 288
301 302 303 303 303 300 295 290 295 305 305 295 288 290 302 307 307 303 304 303 300 300 296 291 292 294 293 283 282 293 294 294 294 294 293 289 290 288 289 289 289 289 288 288
302 302 302 302 302 301 294 303 304 304 300 298 287 288 293 304 297 296 299 295 297 297 295 293 285 292 287 286 291 293 294 294 293 292 293 292 289 289 288 288 288 286 285 285
302 302 303 301 296 292 297 303 304 305 298 289 286 286 286 299 295 294 294 294 289 295 287 291 293 287 289 291 292 292 293 292 289 290 289 289 287 287 287 287 285 283 283 283
302 299 294 288 293 303 304 301 297 298 297 295 287 293 288 296 289 288 290 288 288 287 289 293 287 287 291 292 294 293 292 291 290 287 286 287 286 286 286 285 285 285 283 282
294 293 291 299 304 298 295 287 287 288 286 289 290 291 291 295 289 288 287 286 285 285 287 287 285 285 288 292 293 293 293 293 292 292 291 291 289 288 286 285 284 283 282 281
297 298 302 301 297 291 287 285 286 286 285 287 288 290 293 290 294 288 288 286 284 283 289 286 284 285 290 291 291 292 292 292 292 292 291 291 290 288 286 284 282 282 281 278
301 297 290 292 286 284 283 281 283 283 285 287 288 286 287 288 288 285 283 278 280 286 284 283 284 289 291 292 292 292 293 292 290 289 289 287 285 285 283 281 281 280 279 278
290 287 283 284 282 282 283 284 285 285 285 286 287 286 286 285 284 283 281 285 284 273 275 279 285 289 290 290 290 289 287 286 286 286 285 283 282 280 280 280 279 277 276 276
286 285 280 281 284 285 285 285 285 286 287 287 287 287 288 284 285 283 284 282 280 276 276 284 286 289 287 287 286 285 284 284 284 284 282 281 280 279 278 279 278 276 274 273
285 284 284 285 285 284 284 285 285 287 286 286 285 284 283 283 283 283 280 277 278 281 283 285 288 287 286 285 285 285 285 284 283 283 282 281 279 278 278 278 276 274 273 271
284 282 284 284 284 283 284 285 285 287 286 284 282 282 282 284 281 280 282 279 281 284 285 285 286 285 284 284 284 284 284 283 282 281 281 280 279 277 276 275 275 276 274 271

GFSNW_sfc_thetae_060.txt.gz
Theta_e
304 304 304 305 306 305 303 298 286 302 310 295 297 293 292 298 298 300 298 298 297 294 292 290 290 291 294 297 296 292 295 289 284 290 294 296 293 292 290 283 283 283 280 282
304 303 304 305 305 305 298 293 291 307 306 288 291 296 294 296 296 296 295 295 298 298 292 288 291 293 297 297 296 294 295 288 282 285 289 294 292 293 292 289 285 283 278 283
304 303 303 304 305 305 300 293 284 296 299 296 292 292 292 291 299 297 297 296 297 296 293 294 291 293 298 300 298 300 298 291 286 283 286 290 289 291 292 290 282 284 283 286
304 303 303 304 304 305 300 293 287 294 289 290 292 294 294 291 291 297 297 294 295 294 290 291 291 296 298 299 299 297 295 288 289 289 290 291 290 290 289 288 288 285 287 286
303 303 303 303 304 304 298 289 289 295 291 293 292 294 292 291 293 294 293 292 294 295 291 293 292 297 295 294 295 294 294 288 288 287 289 290 288 291 290 290 289 288 288 288
303 303 303 303 304 303 292 295 295 295 292 293 290 291 292 292 295 296 297 296 294 293 295 298 300 300 299 298 294 292 291 289 285 284 286 287 283 288 290 291 291 290 286 290
303 302 302 302 303 302 296 295 295 292 287 291 290 291 294 293 295 293 297 298 294 297 302 302 300 298 298 297 295 296 290 287 284 281 281 275 289 292 292 291 290 290 289 290
302 302 302 302 302 303 297 296 295 294 286 292 293 292 293 295 296 295 297 298 300 302 302 294 290 287 289 291 295 295 294 287 283 281 280 284 288 290 289 288 287 291 290 291
302 301 301 301 302 303 299 297 297 296 292 290 295 293 294 292 291 292 295 300 303 303 294 290 285 284 288 288 290 295 292 290 286 279 278 277 287 292 292 291 283 292 292 292
301 301 301 302 302 303 298 296 298 295 291 297 297 292 292 296 293 289 292 297 297 300 284 282 283 285 292 286 286 286 284 283 282 276 277 283 292 292 293 283 286 292 294 295
301 301 301 301 301 302 296 295 300 296 293 298 301 300 296 296 296 289 293 297 295 289 286 286 284 282 288 287 291 289 288 285 281 279 277 281 293 292 288 290 291 293 293 294
301 300 300 301 301 300 297 291 298 303 298 297 301 301 302 302 301 298 297 294 296 296 292 288 286 284 284 287 284 293 287 291 287 289 288 294 294 292 293 294 294 295 295 295
300 300 300 300 301 300 297 294 298 299 294 296 297 297 304 305 304 305 295 295 301 298 299 294 291 287 289 285 286 289 293 294 289 290 292 294 295 295 295 295 295 296 296 292
299 299 299 300 300 300 298 295 298 299 296 289 294 306 304 309 307 307 305 302 303 301 298 291 290 287 295 287 293 291 294 295 291 290 293 295 296 294 293 292 293 293 292 291
299 299 299 300 300 300 298 298 301 302 296 290 291 298 306 310 308 307 307 305 301 296 291 288 289 292 291 288 289 284 295 293 290 291 296 295 294 292 293 292 291 291 290 288
298 299 299 300 300 301 296 291 301 302 302 293 286 295 297 305 308 307 304 304 301 298 293 289 294 297 292 286 284 293 296 296 297 296 297 292 292 291 291 290 289 289 288 288
299 299 300 300 301 298 294 291 298 303 301 292 287 288 298 304 307 304 303 301 298 299 295 288 292 293 291 282 283 292 293 294 295 293 293 290 291 288 289 288 288 288 287 287
300 300 300 301 302 301 294 301 303 303 297 296 287 288 291 302 296 296 301 296 296 296 294 290 287 291 286 288 291 291 292 291 291 290 291 291 289 288 287 287 287 285 284 284
300 301 302 300 296 291 293 303 304 303 296 286 285 286 282 295 293 294 294 297 288 293 288 289 291 286 289 291 290 291 292 292 288 288 289 289 286 286 286 286 285 283 283 284
301 299 293 287 291 303 303 299 292 295 294 294 287 292 287 293 287 289 288 288 287 286 289 293 287 287 291 292 294 294 291 290 289 286 285 285 285 285 284 284 285 284 283 283
292 288 289 295 302 299 294 287 287 288 286 289 289 290 289 294 288 286 287 287 286 285 287 288 285 285 289 292 293 293 293 292 291 291 291 290 288 285 284 283 284 284 284 282
294 297 299 299 295 290 284 285 285 286 285 287 288 289 292 290 293 288 287 284 285 284 289 286 284 285 289 290 289 291 291 291 291 290 289 288 287 286 284 283 283 282 281 279
297 295 289 291 286 282 275 280 283 284 286 287 287 286 288 287 289 285 284 283 282 286 285 284 285 289 290 290 291 291 292 291 290 289 288 287 285 285 283 282 281 280 279 278
290 285 282 284 282 283 283 284 284 284 285 286 287 286 286 286 285 284 284 284 285 281 279 280 285 288 289 290 290 288 287 286 286 285 284 283 282 281 281 280 279 278 277 277
284 285 280 281 283 284 285 285 285 285 287 287 286 286 287 285 284 284 284 282 280 278 275 283 286 287 287 286 286 285 284 284 283 283 281 280 280 279 278 278 278 277 275 274
285 283 283 284 284 283 284 285 285 287 286 286 287 285 284 283 284 282 279 279 278 280 283 285 286 285 285 285 284 284 284 283 283 282 281 280 279 278 277 276 275 274 273 272
283 281 283 283 283 282 283 284 283 286 286 283 283 282 281 284 280 278 281 278 281 283 284 284 285 284 284 284 283 283 283 282 282 281 280 279 278 277 276 274 275 275 273 271

GFSNW_sfc_thetae_063.txt.gz
Theta_e
306 306 306 305 305 306 303 296 286 300 305 290 293 290 294 297 298 301 298 299 297 295 293 292 292 292 296 298 298 295 299 294 289 293 298 299 298 296 295 291 288 288 287 288
306 306 305 305 304 305 299 290 291 301 300 285 287 293 294 297 296 297 296 296 298 301 295 290 293 294 299 297 298 297 298 292 287 289 294 298 296 296 295 293 291 288 288 290
306 306 305 304 304 305 299 291 285 293 295 293 290 289 292 292 298 297 298 296 298 298 296 297 293 294 299 299 299 299 300 293 291 287 290 294 293 294 294 295 289 290 289 293
306 306 305 304 304 305 299 292 287 292 285 287 289 291 292 291 291 297 298 295 295 296 293 294 293 297 300 301 300 299 300 292 292 292 292 294 294 294 293 293 294 291 294 291
305 305 304 304 304 304 296 288 289 291 293 290 288 291 290 291 293 295 293 293 295 296 294 295 294 297 299 298 298 298 297 293 292 291 293 292 292 293 293 294 293 293 292 292
305 305 304 303 303 303 294 296 296 292 291 290 287 287 290 292 295 296 298 296 295 294 296 300 301 303 302 301 299 296 295 292 290 288 290 291 287 292 293 294 295 295 291 297
305 305 303 303 303 302 298 296 295 290 286 290 288 289 293 292 294 293 296 299 295 299 304 304 302 301 300 299 298 299 293 292 289 287 285 282 294 295 296 295 296 296 294 295
304 304 303 302 303 302 297 297 295 292 285 291 291 291 291 295 296 295 296 298 301 303 301 295 291 290 292 294 297 296 297 291 287 286 286 289 291 293 294 293 294 297 296 295
304 303 302 302 303 303 298 295 298 296 289 289 294 292 292 291 292 293 296 302 306 303 295 290 286 286 290 290 292 295 293 293 292 284 284 283 292 295 296 297 289 297 296 296
303 302 302 302 303 303 298 296 299 296 291 295 296 292 291 296 293 291 294 297 298 302 288 287 286 286 293 289 288 288 288 287 287 283 287 289 294 296 297 289 293 297 298 298
303 302 302 302 302 303 299 296 299 295 293 294 299 300 295 296 295 290 294 295 296 292 288 288 288 286 290 291 293 290 290 288 286 285 285 285 296 293 292 298 296 298 298 299
302 301 301 301 302 303 301 294 300 300 293 296 301 302 303 303 301 297 299 296 296 296 293 291 290 288 287 291 288 294 290 294 291 292 293 299 297 300 299 298 299 298 299 299
301 301 301 302 302 302 299 294 297 296 292 296 296 298 305 306 305 307 298 298 302 300 302 296 294 289 291 287 288 292 294 297 293 294 297 297 298 300 299 299 299 300 300 297
301 301 301 301 302 301 298 294 298 295 294 288 293 305 304 309 307 306 306 305 305 304 302 293 290 291 296 290 295 294 296 297 294 294 296 297 299 299 299 297 297 296 296 296
301 301 301 301 300 299 297 298 298 298 294 288 292 300 305 309 307 308 308 306 303 300 296 290 293 295 294 291 293 291 298 296 293 293 299 299 301 301 298 296 296 295 293 291
300 300 301 300 299 298 295 289 297 299 298 291 286 297 299 307 308 306 305 306 304 302 297 294 296 298 296 290 291 297 299 299 298 299 299 295 294 293 295 294 293 293 292 291
299 300 300 300 299 296 291 290 297 298 301 290 286 289 298 305 306 305 304 305 303 302 298 294 296 297 296 288 290 296 295 296 296 295 295 293 293 293 292 291 290 290 289 289
299 299 299 299 299 298 293 301 302 302 296 294 285 287 293 302 297 296 302 298 299 298 296 293 294 294 291 290 293 293 293 293 292 291 293 293 290 289 288 289 289 287 287 287
299 299 300 297 295 292 295 302 302 303 297 286 285 286 287 297 293 294 296 296 288 295 289 291 295 290 291 295 293 293 293 293 289 289 290 290 288 287 287 288 287 286 285 285
299 297 292 285 293 300 302 298 293 294 294 291 286 290 288 294 289 289 289 289 286 286 290 294 290 290 293 294 295 295 292 290 290 287 285 286 286 286 286 286 287 286 285 284
293 291 289 295 302 298 293 285 286 287 286 290 289 290 289 295 288 287 289 286 285 284 288 290 287 287 290 293 295 294 292 292 292 294 291 291 289 287 285 285 285 284 284 282
295 296 299 298 293 289 286 285 286 286 285 288 288 289 292 291 295 288 288 285 285 283 289 287 284 287 290 291 291 292 292 292 290 290 289 288 287 286 286 285 284 282 281 280
297 293 289 289 286 282 282 280 283 284 286 288 288 287 289 289 290 286 285 284 283 286 285 285 285 289 290 290 290 290 292 290 289 287 286 286 285 285 284 281 282 282 280 280
287 285 282 283 283 284 284 285 286 286 286 287 288 286 288 287 286 285 284 285 285 283 282 280 285 288 289 289 289 287 286 285 285 284 284 283 282 281 281 281 281 279 278 278
284 284 280 281 284 284 285 285 286 286 287 287 287 287 288 285 284 285 285 283 280 280 280 283 285 286 286 285 285 284 283 283 282 282 281 280 280 280 279 279 279 278 277 276
285 282 281 283 282 281 283 284 284 286 286 287 287 285 284 283 285 282 280 280 278 280 283 284 285 284 284 284 284 283 283 282 281 281 281 280 279 278 277 277 276 275 275 274
283 279 281 280 280 278 280 282 282 285 285 284 285 281 279 284 279 277 281 278 280 282 283 284 284 283 283 283 283 282 282 281 281 280 279 278 278 277 276 275 275 275 274 273

GFSNW_sfc_thetae_066.txt.gz
Theta_e
307 306 307 307 306 305 304 297 286 306 309 289 291 288 295 298 299 304 301 300 299 298 295 295 295 296 299 303 304 299 303 300 294 296 303 304 304 301 301 294 292 295 294 293
306 306 306 306 306 305 302 291 292 307 305 283 284 293 294 297 298 298 300 298 300 302 299 293 297 298 303 303 303 301 303 297 292 293 297 302 299 301 301 300 298 294 292 293
306 306 306 306 306 305 302 292 285 293 295 297 290 289 290 292 299 299 301 299 301 298 297 301 295 297 300 303 303 303 304 299 295 291 294 298 296 298 300 299 294 294 294 296
306 306 306 306 305 305 300 292 289 294 284 288 291 291 292 290 291 298 301 299 298 298 295 296 296 297 300 300 300 303 304 296 298 298 298 298 297 297 298 297 297 294 297 297
305 305 306 306 305 305 296 288 291 296 292 293 291 290 290 290 293 296 295 296 298 299 296 297 295 298 300 300 302 302 304 296 298 295 298 297 295 298 298 299 299 299 299 298
305 305 305 305 305 303 294 298 299 296 292 291 289 290 289 291 295 298 299 299 297 296 298 302 302 303 303 302 300 301 301 298 296 292 296 296 291 296 298 300 301 301 297 301
304 304 304 305 304 302 301 298 298 293 288 291 289 290 291 291 294 295 299 301 298 301 305 304 303 302 301 302 301 303 300 299 298 293 291 286 297 301 303 301 302 303 303 304
304 304 303 304 303 303 301 300 299 295 290 292 291 291 290 293 296 297 298 302 304 306 302 295 290 292 295 298 301 302 304 300 295 292 291 295 297 296 299 299 299 305 303 305
303 303 304 304 303 303 301 303 304 300 293 292 294 292 293 292 294 296 298 304 308 305 298 296 288 283 292 293 295 300 299 300 298 292 289 287 297 302 305 303 294 305 305 304
303 303 304 303 303 303 301 302 306 301 293 296 297 293 291 296 296 297 298 301 302 305 296 292 290 288 294 291 291 292 294 294 293 293 293 296 301 300 303 293 297 306 306 306
303 303 303 303 303 303 301 300 306 302 296 298 300 300 297 296 299 295 299 298 300 299 294 293 293 292 293 293 297 295 294 293 292 293 291 289 300 298 297 305 307 307 307 307
302 302 303 303 302 302 301 296 304 306 299 297 303 304 305 303 304 301 303 299 300 301 297 298 299 294 294 294 289 299 292 298 298 297 298 305 304 306 307 307 308 306 307 307
302 303 303 302 302 302 300 298 301 302 295 296 300 298 305 310 309 312 300 303 304 303 307 302 301 296 299 293 294 296 298 301 299 298 303 303 305 307 306 306 306 306 307 307
302 302 302 302 302 302 301 297 303 301 297 288 294 305 302 311 311 311 311 306 311 310 308 304 298 298 302 300 300 298 301 300 299 300 304 302 303 307 308 306 306 305 306 306
302 302 302 302 302 301 300 302 302 303 297 289 292 299 302 307 309 307 308 310 309 308 304 294 298 304 302 302 300 299 302 301 298 298 307 305 307 307 310 307 305 304 303 302
301 301 302 300 300 300 298 293 301 303 303 291 286 298 296 305 308 306 307 308 308 308 304 304 305 306 304 298 297 303 305 305 306 304 302 303 301 300 302 305 305 303 302 303
301 301 300 299 299 301 295 293 298 302 301 290 286 286 298 305 306 307 306 308 306 306 304 303 304 305 303 298 296 302 304 305 304 302 301 301 298 300 299 299 299 299 299 298
299 299 299 299 299 299 298 303 301 301 296 293 284 286 292 303 298 296 306 301 304 305 304 302 302 302 302 297 302 304 303 300 300 298 299 300 298 297 296 297 296 294 294 294
299 299 299 300 297 294 299 299 300 305 297 288 285 285 286 299 296 297 297 300 292 300 297 300 303 298 295 299 302 302 302 300 300 297 297 296 296 295 295 296 295 293 292 293
299 298 293 288 296 301 299 294 293 294 296 294 287 291 286 296 295 293 295 297 292 288 292 301 295 297 303 302 302 303 301 299 298 295 293 293 293 292 292 293 294 293 291 290
296 290 289 298 302 297 292 287 288 288 286 292 289 290 292 297 292 291 294 290 291 287 292 291 291 295 299 298 297 298 298 298 298 298 296 295 295 293 290 290 290 288 287 286
294 295 300 298 290 288 286 285 286 286 287 291 290 293 296 295 302 293 292 288 288 285 290 286 285 288 292 294 294 296 295 295 295 296 295 291 291 288 286 285 284 283 283 282
300 297 290 289 287 284 285 281 285 287 290 292 292 289 295 297 298 290 290 286 288 289 286 284 285 289 290 291 290 289 289 288 288 289 288 286 285 285 283 282 283 283 282 282
291 288 283 285 284 286 288 289 291 290 291 290 293 290 296 294 290 290 287 287 290 286 284 281 286 286 287 288 287 286 284 284 284 283 283 282 282 282 283 283 283 282 281 281
286 287 282 283 285 286 286 287 289 288 293 291 292 292 292 288 287 287 287 286 283 283 282 284 286 286 286 285 284 283 282 282 282 282 282 282 283 282 282 282 282 280 279 279
286 282 282 281 282 280 282 283 285 286 288 289 289 286 285 285 286 284 283 283 280 281 283 285 285 284 283 282 282 282 282 282 282 283 282 281 280 280 280 280 279 278 278 277
283 280 281 280 280 278 279 281 281 285 286 285 287 283 281 287 282 280 282 279 281 283 283 285 285 284 283 283 283 283 283 283 282 281 281 280 281 280 279 277 277 277 276 275

GFSNW_sfc_thetae_069.txt.gz
Theta_e
306 306 307 307 307 307 304 297 288 304 311 289 291 287 293 297 297 301 301 302 301 298 299 297 295 295 300 304 305 300 304 301 295 298 304 305 305 301 302 295 293 297 295 295
306 306 306 307 307 306 300 292 293 306 306 285 287 293 293 296 296 297 299 299 301 303 301 295 298 298 303 304 304 302 304 298 293 295 299 303 301 303 303 303 301 295 294 295
306 306 306 306 306 307 301 292 286 294 297 297 292 290 290 291 297 297 299 300 302 301 300 303 297 298 301 306 305 304 305 300 296 292 295 300 297 299 302 301 297 296 296 297
306 306 306 306 306 306 300 292 290 295 285 288 293 293 292 290 290 296 299 297 300 299 296 298 298 299 301 302 303 305 304 297 298 299 300 300 299 298 299 298 299 296 298 298
306 306 306 306 306 306 297 288 292 294 294 294 292 292 290 290 292 293 293 295 298 300 297 299 297 299 299 299 303 303 305 297 299 296 299 299 297 298 299 299 299 299 299 298
305 306 305 305 306 305 295 297 301 297 292 292 290 292 292 291 293 296 297 297 297 298 301 305 304 303 301 302 303 302 302 300 297 293 298 298 294 297 298 299 301 301 297 302
304 305 305 305 305 305 300 301 299 294 289 291 292 292 293 292 293 293 297 299 298 302 309 306 305 302 300 300 301 304 301 300 299 295 293 287 298 304 303 301 302 304 303 304
304 304 304 305 305 305 300 303 300 295 290 293 292 293 293 295 295 294 296 300 303 308 304 298 293 292 293 297 300 302 304 301 298 293 293 295 298 300 300 299 299 304 304 305
303 303 303 304 304 305 301 302 307 300 294 292 295 293 294 292 292 293 297 303 307 306 300 295 288 285 289 291 295 302 302 303 299 296 289 287 297 302 306 306 296 306 306 306
302 303 303 303 303 305 301 300 308 302 294 297 297 293 294 297 295 294 296 301 303 306 298 293 291 289 294 288 290 292 295 296 294 294 293 296 302 305 307 295 297 307 308 308
302 303 303 303 303 304 301 300 307 303 296 297 300 300 297 297 297 293 298 298 299 300 295 293 294 294 293 292 294 295 295 293 294 296 293 290 306 302 298 306 310 310 310 310
302 302 303 303 303 304 302 298 306 307 300 298 305 305 306 304 302 300 299 300 300 301 297 299 298 297 298 294 289 298 292 300 297 298 299 308 307 307 309 310 310 311 311 311
302 302 303 303 304 303 302 302 305 304 298 298 300 300 306 309 309 309 301 302 305 303 306 302 301 296 299 293 295 296 299 302 299 300 303 306 308 309 310 311 310 311 311 311
302 302 303 303 303 302 303 302 305 302 297 290 294 304 302 308 308 308 308 307 308 309 307 304 301 299 303 299 298 298 299 301 299 299 302 304 307 308 311 311 311 310 310 310
302 303 303 303 302 302 304 304 304 304 297 293 293 301 304 306 306 305 305 307 308 306 304 302 298 301 300 304 302 300 302 301 300 298 304 306 306 309 310 311 311 311 309 308
302 303 302 301 302 302 299 291 302 305 304 296 290 301 300 304 304 304 304 306 307 306 303 303 302 303 302 300 296 300 302 305 306 304 306 307 307 304 305 306 310 311 310 309
302 302 301 301 301 300 296 295 300 303 305 297 290 292 299 302 300 301 304 305 305 306 304 303 304 303 304 301 296 300 304 306 308 307 305 304 306 304 303 304 305 304 307 307
300 300 301 301 301 302 299 302 303 304 299 298 289 288 290 301 292 297 306 302 303 303 302 305 303 305 305 297 301 303 304 306 306 306 305 305 304 303 302 302 301 301 301 302
300 300 300 300 299 295 298 301 301 305 299 290 287 287 285 298 299 300 300 303 296 304 300 301 302 299 296 298 301 302 305 305 305 304 302 302 302 301 300 300 300 299 298 298
299 300 295 291 298 300 299 294 294 296 297 296 287 292 287 291 292 294 296 300 295 291 296 303 298 298 303 304 306 308 307 306 304 301 300 299 299 299 299 299 299 298 297 297
298 294 292 299 300 301 293 288 289 291 287 292 293 291 287 292 290 290 294 291 294 289 292 294 292 295 297 301 303 304 305 304 303 303 302 301 301 299 297 295 295 294 292 289
297 299 300 299 293 288 286 285 287 286 286 293 291 288 286 291 301 295 294 291 292 287 292 287 286 287 291 294 297 299 300 300 299 298 295 296 294 292 289 286 284 283 282 283
303 296 291 290 287 283 283 281 286 286 292 293 290 286 292 296 298 292 291 288 287 293 287 285 286 288 289 289 288 288 291 292 290 287 286 285 284 284 283 282 283 283 282 282
294 289 284 285 285 287 287 289 291 290 293 296 295 292 293 295 292 291 286 288 291 287 285 284 287 286 286 287 287 284 283 283 283 282 283 283 283 283 284 284 284 284 282 283
288 288 281 282 285 285 286 288 289 289 295 297 295 294 294 288 289 290 289 286 284 283 283 284 285 286 285 283 283 282 282 282 283 284 284 283 284 283 283 283 283 282 281 280
287 283 283 284 284 282 282 283 285 286 289 299 294 289 287 286 288 287 283 285 281 281 283 285 285 283 283 283 283 283 284 283 283 283 283 283 282 281 281 281 281 280 280 279
284 281 283 283 283 279 280 281 281 285 289 286 289 285 281 288 284 280 282 279 282 284 284 285 284 283 283 284 284 284 284 283 283 283 283 282 282 282 280 278 278 278 278 278

GFSNW_sfc_thetae_072.txt.gz
Theta_e
306 306 306 306 307 307 304 297 287 302 308 290 290 286 291 294 294 297 296 298 297 296 297 298 296 295 298 305 303 298 303 300 295 297 303 304 302 300 301 295 293 297 294 294
305 306 306 306 306 306 301 292 292 303 304 284 285 291 291 293 293 294 295 295 298 301 299 295 299 299 304 304 302 299 303 298 292 294 299 303 299 300 302 302 300 295 291 294
305 306 306 306 306 306 302 291 285 293 297 296 290 288 289 289 295 294 296 296 298 297 297 300 298 299 302 305 303 302 304 300 296 292 295 299 296 299 301 301 295 296 296 298
305 305 306 306 306 306 302 291 289 294 285 288 291 292 290 289 289 294 296 294 295 294 292 295 296 300 300 301 303 303 303 297 299 299 299 299 298 298 299 297 299 295 299 298
305 305 306 306 305 306 299 286 291 295 293 292 290 291 290 289 291 291 291 292 295 296 293 295 295 298 300 298 303 301 302 295 298 296 299 299 296 299 299 299 298 298 299 298
305 305 305 305 305 305 297 296 299 295 292 291 288 289 290 291 293 294 295 294 295 295 297 300 303 304 303 302 300 301 299 297 294 291 298 296 290 297 298 299 300 299 295 301
304 305 305 305 305 305 301 299 297 292 288 291 290 291 292 292 293 292 295 297 295 301 306 307 303 301 301 301 301 302 299 298 295 291 292 285 297 303 302 300 300 302 302 303
303 304 304 305 305 305 301 302 297 295 290 292 291 293 292 294 295 294 294 297 300 303 302 296 292 292 294 296 300 299 301 299 291 290 290 295 297 300 300 299 298 304 302 304
302 303 303 304 305 305 303 300 304 299 293 292 294 292 294 292 292 293 296 300 303 303 299 294 287 285 290 290 294 300 299 301 295 292 288 285 297 303 306 305 293 305 305 305
302 302 303 303 304 304 303 300 305 299 293 296 297 293 293 296 294 293 296 297 298 305 295 290 287 288 293 288 289 290 292 294 291 290 289 295 302 304 306 292 295 306 307 307
302 302 303 303 304 303 303 299 305 299 295 297 300 299 296 297 297 293 297 295 296 297 292 291 292 291 293 291 294 294 293 291 291 292 289 288 306 304 296 302 310 310 310 311
302 302 302 303 303 303 302 296 303 306 298 298 304 302 304 301 302 299 300 296 297 298 296 296 296 294 296 293 287 297 287 295 295 296 297 308 309 307 309 310 310 311 312 312
302 301 302 303 303 303 301 299 301 301 296 295 298 298 305 308 308 310 298 300 302 302 304 300 300 294 297 291 293 295 298 302 295 295 301 304 308 310 312 310 310 312 313 312
301 301 302 303 303 303 302 299 302 300 296 290 293 304 302 308 308 308 308 304 307 307 305 301 300 296 302 296 297 295 299 300 297 297 300 302 303 306 310 310 312 312 311 312
301 302 302 303 303 303 302 302 303 304 297 290 293 300 303 305 305 304 306 304 303 299 296 301 297 301 301 304 301 298 300 298 297 298 304 304 305 308 308 310 311 313 311 310
302 302 303 303 303 303 300 292 301 304 307 296 289 300 299 302 304 303 302 303 303 302 298 298 302 305 302 299 295 300 302 302 302 304 308 308 309 307 307 306 308 310 311 312
302 302 302 302 302 301 297 294 299 305 306 296 290 291 298 301 302 302 301 303 301 301 299 297 301 301 301 299 293 298 302 303 304 306 308 306 307 305 304 305 305 305 307 308
301 301 301 301 302 302 299 303 303 305 299 297 289 288 292 301 296 294 298 297 298 299 298 301 301 303 303 295 298 302 303 303 307 308 307 306 306 304 302 302 303 302 302 303
301 301 301 301 300 296 297 301 301 308 299 290 289 287 286 293 295 297 297 296 287 298 297 299 302 299 294 298 300 301 303 303 304 307 304 304 303 302 301 301 301 298 298 299
301 301 295 289 296 300 301 299 295 294 296 296 289 294 288 291 287 291 294 294 289 289 295 301 298 296 301 300 305 307 307 306 305 301 300 301 300 299 300 299 299 299 297 296
299 294 290 297 300 299 295 289 288 290 287 292 293 293 289 291 285 285 296 291 294 288 294 294 293 293 295 298 301 303 305 304 303 303 303 303 301 298 296 289 288 287 285 283
298 297 299 300 294 289 287 285 288 287 285 292 290 289 291 290 291 287 293 288 291 286 295 290 287 286 290 291 290 295 299 298 296 295 292 290 289 288 286 284 283 283 282 282
301 296 291 290 287 283 282 280 283 286 292 291 290 287 289 288 290 288 287 286 286 292 287 286 285 287 288 288 287 286 288 288 288 286 286 285 284 284 282 281 281 281 281 281
293 287 283 285 283 284 284 286 288 288 292 290 292 289 289 288 285 287 285 287 289 286 284 282 284 284 285 284 284 283 282 283 282 282 283 282 282 282 282 282 282 281 281 281
287 287 281 282 284 283 284 286 287 286 289 294 292 292 292 288 287 289 288 285 282 281 280 282 284 285 283 282 282 283 283 282 282 283 282 282 282 281 281 281 281 280 279 278
286 282 281 282 282 278 280 280 281 285 283 289 293 289 287 285 287 285 281 283 277 280 282 283 284 283 283 283 283 283 283 283 282 282 282 281 280 280 280 280 280 279 279 278
284 281 282 282 280 279 277 279 280 283 284 286 289 283 282 289 283 279 280 278 281 283 283 284 284 283 283 283 283 283 283 282 282 282 281 281 281 280 279 277 277 278 278 276

GFSNW_sfc_thetae_075.txt.gz
Theta_e
305 305 306 306 307 307 304 297 286 301 304 289 288 283 287 291 291 293 292 291 290 290 291 290 290 294 295 300 300 296 297 296 290 293 300 302 300 296 296 289 289 290 286 287
304 305 306 306 306 306 300 290 291 301 300 283 284 288 288 289 289 290 290 289 292 293 291 289 294 298 301 300 299 296 298 293 287 290 295 299 296 297 298 297 295 289 283 288
305 305 305 306 306 307 301 289 284 292 295 293 288 285 286 286 292 290 292 291 292 290 290 295 291 293 302 301 300 302 301 296 291 286 291 297 293 296 297 295 287 289 290 293
304 304 305 305 306 306 301 290 286 291 284 287 288 288 287 286 286 291 292 289 289 289 287 291 290 296 298 301 301 300 299 291 294 295 297 298 296 296 295 293 295 292 294 295
304 304 304 305 305 306 298 286 288 292 289 289 288 288 287 286 288 289 288 287 289 290 287 292 289 294 296 295 298 296 298 291 294 292 296 296 295 296 296 296 297 295 295 296
304 304 304 305 305 305 296 296 296 293 289 288 285 286 287 288 291 292 292 291 289 287 290 298 300 302 300 299 297 295 296 293 291 287 294 294 286 292 296 296 298 296 292 296
304 304 304 304 305 305 300 297 296 289 285 287 287 289 289 288 291 289 292 293 290 293 297 305 302 300 300 298 296 299 295 295 292 286 288 282 293 299 298 297 299 298 298 298
304 304 304 304 304 305 301 300 295 291 284 290 289 289 289 290 292 291 292 294 296 296 295 293 289 289 290 293 297 297 298 295 288 286 286 291 295 297 296 295 294 300 298 299
302 303 303 304 304 305 303 301 301 295 288 287 293 290 291 288 287 289 292 297 297 295 290 289 282 281 288 288 293 298 298 297 290 287 283 281 293 300 302 301 288 300 300 300
302 302 302 303 304 304 303 300 302 296 289 293 294 290 289 293 291 288 291 293 292 296 285 282 281 283 291 285 285 286 286 288 286 283 284 289 299 302 302 288 288 302 303 301
302 302 302 302 303 304 302 300 303 297 292 294 296 298 293 293 293 288 291 291 291 288 283 284 284 281 288 288 291 290 288 286 286 287 285 284 302 300 294 297 301 304 303 301
302 302 302 302 303 303 303 296 303 303 296 294 302 302 301 299 298 295 294 292 291 292 288 288 288 283 284 286 281 295 288 293 290 293 289 300 304 302 305 304 304 304 303 306
302 302 302 302 303 303 302 296 300 299 295 294 296 294 301 304 302 303 294 294 296 294 297 292 290 284 290 280 284 289 294 297 292 292 296 298 303 304 305 306 305 307 307 305
302 302 302 302 303 303 302 295 299 298 291 286 291 303 301 304 304 304 304 301 300 300 297 291 292 286 294 287 291 290 294 296 294 293 296 298 302 302 303 304 306 307 308 306
301 302 302 302 302 303 300 299 301 301 296 288 290 299 302 304 303 302 301 300 297 294 291 286 288 293 294 293 292 289 296 294 292 289 298 298 300 303 306 305 306 307 307 305
302 302 302 302 302 302 298 292 300 303 302 293 285 297 297 299 301 299 298 299 297 295 291 290 295 297 294 288 286 296 298 299 299 298 302 304 304 303 304 303 304 304 304 305
301 301 302 302 301 300 293 290 297 303 302 293 285 286 294 299 298 297 296 298 295 295 292 290 293 295 294 291 284 295 299 300 300 299 303 300 301 299 302 301 301 302 302 301
302 302 302 302 302 301 297 301 302 303 297 295 282 281 288 294 289 288 295 292 293 293 291 291 292 295 293 286 293 295 298 299 303 303 302 302 301 300 299 300 299 297 296 296
302 302 302 300 298 294 296 302 303 303 297 284 282 280 279 291 290 291 291 292 286 291 284 291 293 290 287 294 296 297 298 298 299 302 301 301 298 298 298 297 297 295 291 285
301 300 292 286 294 302 301 297 292 292 293 291 282 286 282 289 287 286 287 288 286 283 286 294 288 288 295 295 298 301 301 300 300 297 296 296 296 295 293 288 288 286 285 283
297 291 289 296 300 297 292 285 285 287 283 287 286 287 285 289 285 282 287 285 286 280 287 286 285 286 291 292 292 296 294 294 292 293 296 298 293 289 285 284 283 282 281 279
295 294 297 296 292 288 284 282 283 283 281 286 286 286 285 287 289 283 287 285 285 282 291 286 284 284 288 288 286 289 290 289 287 287 286 286 285 284 283 281 280 280 280 280
297 294 288 288 284 280 276 275 278 278 282 287 286 283 285 287 289 285 284 283 284 288 285 283 282 285 285 285 285 284 285 285 284 284 283 283 282 282 281 280 280 279 278 278
289 286 281 282 279 281 279 282 285 285 287 285 286 286 284 285 283 284 284 285 287 284 281 278 281 282 282 283 283 282 281 282 282 282 282 281 281 280 280 280 279 278 278 278
283 282 277 277 281 280 281 282 284 283 284 286 286 285 287 284 284 285 284 283 278 278 276 280 281 282 282 282 282 282 281 281 281 280 279 279 279 278 278 279 279 278 277 276
281 279 278 279 277 276 277 277 279 282 282 285 287 286 285 283 283 279 277 278 274 276 280 281 281 281 281 281 281 281 281 280 279 279 279 278 278 277 277 278 278 277 276 276
281 276 278 278 276 276 277 278 279 282 281 284 284 280 279 284 278 276 278 275 278 279 280 281 282 281 281 281 281 280 280 279 279 278 278 278 278 278 277 275 276 277 276 275

GFSNW_sfc_thetae_078.txt.gz
Theta_e
303 304 304 305 305 305 303 296 286 301 303 288 288 282 284 290 288 292 290 289 287 286 288 287 287 287 293 300 299 292 296 293 288 291 297 298 298 296 295 287 287 288 285 288
303 303 304 304 305 305 300 291 290 301 299 282 284 288 287 287 287 288 289 288 290 291 288 284 291 292 298 298 299 295 295 291 284 288 293 296 294 295 296 296 293 288 283 287
303 303 304 304 305 305 301 287 284 291 294 291 287 285 285 285 290 287 288 288 290 288 286 290 288 292 296 300 300 301 300 293 290 285 289 293 292 295 297 295 287 288 288 291
303 303 304 304 305 305 301 287 285 291 283 286 287 287 287 285 284 290 291 287 286 285 283 286 286 292 295 297 300 300 298 289 292 293 295 296 294 294 295 294 293 289 292 292
303 303 304 304 305 305 296 285 287 291 286 289 287 287 286 285 286 286 285 285 288 288 284 286 285 292 293 293 297 296 297 288 291 289 295 295 293 295 296 295 294 293 295 293
303 303 303 303 304 303 295 295 293 292 288 287 286 285 285 287 288 290 290 289 288 286 288 292 293 297 299 298 294 292 293 291 288 284 293 293 286 292 296 295 296 295 290 294
303 303 303 303 304 303 298 297 295 288 284 285 285 287 289 288 288 287 291 292 288 292 295 296 299 299 298 297 296 296 291 290 288 283 287 281 291 298 299 297 297 297 296 296
303 303 303 303 304 304 300 300 295 290 284 288 287 288 288 289 290 289 289 292 296 296 291 288 286 286 289 291 295 294 296 292 284 283 284 289 293 296 295 295 293 298 297 298
302 303 303 303 304 304 302 299 301 294 287 286 291 288 289 286 286 287 289 295 298 294 288 286 280 277 285 285 290 298 297 295 288 283 282 278 290 298 301 300 288 299 299 299
302 302 302 303 303 304 302 299 302 296 288 291 292 289 288 291 289 285 288 290 290 293 284 281 278 280 288 282 283 285 286 287 284 282 283 287 297 300 301 289 288 299 301 300
302 302 302 302 303 304 301 299 303 296 291 292 294 296 292 291 291 285 289 288 289 286 281 282 280 278 285 287 289 288 286 285 285 285 283 282 300 300 293 296 299 302 303 302
302 302 302 302 302 303 303 295 303 302 294 293 298 298 300 298 297 292 291 289 290 290 285 283 283 280 281 285 281 292 285 292 288 289 288 299 300 301 303 302 302 303 304 304
302 302 302 302 303 303 302 297 299 299 294 294 294 294 299 302 301 300 291 291 295 293 294 289 287 283 287 280 284 288 294 297 292 292 296 298 299 300 303 303 303 305 305 304
302 302 302 302 302 303 302 296 299 298 291 286 290 301 297 303 303 302 300 297 299 300 294 290 286 282 291 285 289 289 291 295 293 291 295 296 298 299 301 303 305 307 307 304
302 302 302 302 303 303 301 298 300 299 294 287 287 297 301 301 303 302 300 299 297 294 291 288 286 289 290 290 289 288 294 292 288 287 296 295 297 299 303 303 304 305 305 304
301 302 302 302 302 302 297 291 298 301 302 293 285 294 297 300 301 300 297 297 298 297 291 288 292 296 291 284 286 292 295 296 297 296 299 299 301 302 303 302 302 302 302 303
301 302 302 302 302 298 293 290 294 301 301 292 286 287 294 300 299 298 296 296 296 296 293 289 290 291 291 285 284 293 296 296 298 299 301 298 300 299 300 300 299 298 296 296
301 302 302 301 301 300 295 299 301 301 298 294 285 285 290 295 290 290 294 291 291 291 290 289 288 290 289 285 291 294 297 298 297 301 301 301 299 299 298 297 295 289 287 287
301 301 301 299 296 293 296 302 303 303 296 285 279 280 283 292 289 289 289 290 286 288 281 286 288 286 283 290 293 294 296 296 297 299 299 298 297 296 296 293 289 286 283 283
301 298 292 285 292 302 300 295 290 292 290 288 279 283 284 288 285 284 285 283 280 283 286 290 282 282 294 294 293 293 292 292 298 294 293 294 292 289 287 286 285 283 282 281
294 290 285 296 301 296 291 285 284 286 283 285 284 284 283 288 283 282 283 285 286 280 282 283 283 283 290 291 291 291 291 289 290 293 293 292 289 285 283 281 281 280 280 278
293 293 296 295 291 286 282 279 282 282 281 283 282 286 286 285 287 280 282 285 285 278 286 282 281 283 287 286 285 287 287 287 286 287 286 285 285 283 281 280 279 279 278 277
297 291 286 286 283 276 273 273 279 280 282 286 285 284 284 286 288 283 283 283 281 288 283 282 280 283 284 285 284 283 284 284 283 282 282 282 281 281 280 278 278 278 277 277
287 281 274 274 274 277 277 280 283 283 284 283 282 284 285 285 283 283 282 285 286 282 279 276 279 280 281 282 283 282 281 281 281 280 280 279 278 278 278 278 278 277 276 277
280 280 273 276 278 278 279 280 281 281 283 284 282 286 286 284 283 284 284 282 276 275 273 278 280 281 281 281 281 280 279 279 278 278 278 277 277 277 277 278 278 277 276 276
280 277 274 276 276 275 276 276 277 281 281 284 285 285 284 282 280 278 275 276 271 273 277 279 280 279 279 278 278 278 278 278 278 278 277 277 276 276 276 276 276 275 275 274
278 273 276 273 275 274 275 276 277 281 281 283 283 277 276 281 276 274 276 273 276 278 279 280 280 278 278 278 278 278 278 277 277 277 277 277 278 277 276 274 275 275 275 274

GFSNW_sfc_thetae_081.txt.gz
Theta_e
302 302 303 303 304 304 302 295 285 299 301 287 287 281 283 289 287 291 288 288 286 284 285 284 285 286 290 297 297 292 296 291 286 289 295 296 295 293 294 286 285 286 285 287
302 302 303 303 303 304 298 290 290 300 298 281 282 286 286 286 285 287 287 287 288 288 284 281 285 287 296 298 296 293 296 289 282 286 291 295 292 293 294 293 291 286 283 286
302 302 302 302 303 304 298 287 283 291 293 290 284 284 285 285 289 286 287 287 288 286 284 287 285 287 294 299 298 300 299 292 288 283 286 291 289 293 294 294 285 286 289 291
302 302 302 303 303 304 298 289 285 290 283 285 287 286 286 285 284 288 288 285 284 283 280 283 283 286 289 296 298 296 296 287 290 291 292 294 293 292 293 291 291 288 290 292
302 303 303 303 303 303 296 285 286 291 285 288 286 286 285 284 286 286 285 285 287 286 282 283 282 286 286 290 295 292 294 287 290 288 291 293 292 294 294 293 293 293 292 293
302 303 303 303 303 303 294 295 293 290 287 286 285 285 285 286 287 289 289 288 286 285 287 290 290 290 291 293 293 288 287 288 285 283 291 292 286 291 294 294 294 293 289 294
302 302 302 303 303 303 298 296 294 288 283 285 285 287 287 286 288 286 290 290 287 290 295 293 292 291 291 291 294 295 288 286 287 281 284 280 290 297 297 295 296 297 296 297
302 302 302 302 303 303 298 298 294 289 283 287 286 287 287 289 289 288 289 291 294 295 292 287 283 282 285 288 293 294 294 288 284 283 282 286 290 294 294 293 293 299 296 297
302 302 303 302 303 303 300 298 300 293 287 285 290 287 288 285 286 287 289 294 296 292 288 285 280 275 281 282 289 295 293 293 286 285 282 277 287 295 300 299 288 299 299 298
302 302 302 302 303 303 300 297 300 295 288 291 291 287 287 290 288 285 288 290 288 292 284 282 281 279 285 279 282 284 286 286 284 285 284 285 293 298 301 287 288 300 300 300
302 301 302 302 302 303 301 297 301 296 290 292 293 294 291 291 290 285 289 287 286 285 280 281 280 276 282 282 286 285 284 283 283 285 283 280 297 299 292 295 299 299 301 301
301 302 302 302 302 303 303 296 301 301 293 293 298 297 298 297 296 292 292 288 288 288 283 282 282 278 278 283 279 290 285 288 286 289 287 296 298 299 303 303 300 302 302 304
301 302 302 302 303 303 302 297 299 299 292 292 293 292 297 301 300 300 291 290 294 293 292 286 285 281 284 277 282 286 290 295 290 290 294 296 299 301 301 304 302 303 305 304
301 302 302 302 302 303 302 296 299 297 292 286 290 298 296 301 301 300 300 298 299 297 296 290 284 282 289 282 286 286 290 294 292 291 294 296 297 298 300 301 304 304 306 304
302 302 302 302 303 303 301 299 299 298 293 286 287 294 298 300 301 299 300 299 296 293 289 286 286 288 288 287 288 285 292 291 289 288 296 294 295 298 300 300 302 304 304 303
301 302 302 302 302 302 298 291 298 300 299 292 285 293 294 298 299 297 298 298 297 294 291 286 292 296 290 279 283 290 293 294 294 292 296 296 298 300 301 300 300 300 300 302
301 301 302 302 302 300 292 288 294 300 300 291 285 284 293 297 296 296 296 297 296 294 291 288 289 292 292 282 281 291 294 295 295 297 295 296 299 298 299 298 294 293 294 294
301 302 302 302 302 300 295 296 301 300 296 292 284 286 288 295 291 290 295 292 292 293 291 289 287 291 288 282 288 291 295 297 297 296 296 297 298 297 295 293 291 286 284 283
302 302 301 298 296 293 296 301 301 301 294 286 281 283 282 293 290 292 291 292 285 290 284 286 288 284 283 287 290 293 294 294 293 293 295 296 295 293 291 289 287 283 281 280
300 297 291 285 294 301 300 294 290 291 292 289 283 285 285 290 287 285 286 285 284 283 286 288 280 282 289 292 294 293 291 290 290 291 291 291 290 288 286 284 283 281 280 279
294 288 287 296 300 294 291 284 284 286 283 285 282 285 284 287 283 285 284 284 283 280 281 282 281 282 287 290 290 290 289 289 288 289 290 289 287 282 281 280 280 280 279 278
293 293 297 296 289 286 283 282 283 280 280 282 282 280 282 286 287 284 284 284 284 280 283 280 280 283 285 285 284 285 286 287 286 285 284 283 282 281 280 279 278 277 277 277
296 292 286 286 281 275 274 275 280 280 284 285 284 282 285 286 286 284 284 282 281 285 283 282 279 282 283 284 283 282 283 283 282 281 281 281 280 280 279 277 277 277 277 277
285 280 272 271 268 274 276 278 281 281 284 282 284 284 284 284 282 283 281 282 285 281 279 274 278 280 281 282 282 281 280 280 279 279 279 279 278 277 277 277 277 276 275 275
278 278 272 274 277 277 278 279 280 280 283 284 285 285 286 283 281 283 282 280 273 274 271 273 279 280 280 279 279 278 278 278 277 277 277 277 277 276 276 277 277 276 274 273
278 275 273 275 274 273 274 275 276 280 280 284 286 284 283 279 277 276 273 272 269 273 276 278 279 278 278 277 278 277 278 277 277 276 276 276 275 274 274 275 275 274 274 273
276 272 274 273 273 271 273 274 275 279 280 280 282 276 274 280 274 273 275 270 274 277 277 278 278 277 276 277 277 277 277 276 276 276 276 276 276 276 274 273 273 273 273 271

GFSNW_sfc_thetae_084.txt.gz
Theta_e
301 301 301 302 302 303 299 293 284 296 300 286 286 281 283 288 286 289 286 287 285 282 283 282 282 284 288 294 296 291 295 290 283 287 293 295 292 290 291 286 283 284 283 286
300 301 302 302 302 302 292 288 288 297 296 280 281 285 285 286 284 285 286 285 287 287 283 279 283 284 292 296 296 292 293 289 283 284 289 293 289 291 292 291 289 285 283 285
300 301 301 301 302 302 295 288 282 289 292 287 282 281 282 282 288 285 286 286 286 285 282 286 283 284 289 292 290 300 296 289 287 283 286 291 288 290 292 291 285 286 288 288
301 301 301 302 302 302 295 289 284 288 278 284 284 283 283 281 283 287 286 283 283 282 279 280 280 284 285 288 292 295 294 285 288 290 291 291 291 291 291 290 290 286 288 290
301 301 302 302 301 302 292 285 285 288 288 285 285 285 282 282 284 285 283 282 286 284 281 282 281 284 285 285 292 291 292 284 286 286 288 290 289 292 292 292 291 290 290 289
301 301 301 301 301 300 291 292 293 289 286 284 284 283 284 284 286 288 289 287 286 284 286 288 289 289 289 288 286 287 289 287 284 281 286 288 284 288 292 292 292 292 288 292
301 301 302 301 301 301 295 295 292 287 282 284 283 286 287 285 287 285 289 290 287 290 294 294 292 289 289 288 288 289 286 286 284 282 285 280 289 294 295 293 294 294 293 294
301 301 301 302 302 302 297 297 293 288 282 285 285 286 287 288 289 288 288 290 293 295 292 287 283 281 283 285 287 287 291 287 283 281 282 286 289 293 292 291 292 296 295 295
302 302 301 302 302 302 299 298 298 293 285 283 289 286 288 285 285 286 288 294 296 294 287 284 279 275 280 280 285 290 291 290 285 284 280 278 288 293 298 297 287 297 296 296
301 301 301 302 302 303 300 298 299 294 287 289 290 286 286 290 288 286 288 290 289 292 284 280 279 279 285 279 278 283 284 285 282 283 282 285 294 297 298 285 286 298 298 297
301 301 301 301 302 302 300 297 300 294 288 291 293 293 289 290 290 284 289 288 287 286 282 281 281 278 281 281 283 283 282 282 282 285 282 280 296 295 291 295 298 299 300 300
301 301 302 302 302 302 302 294 300 300 292 292 296 297 297 296 295 291 292 289 288 287 284 281 281 277 277 281 277 286 281 286 283 286 286 295 296 296 298 301 301 300 301 302
300 301 301 302 302 302 301 297 299 296 291 290 291 292 296 299 299 300 289 289 294 292 291 289 285 279 282 277 279 283 286 292 287 288 291 293 295 297 299 300 302 305 303 304
300 301 301 301 302 302 302 296 299 296 290 285 289 297 295 299 299 299 298 296 298 295 295 290 288 281 287 281 284 283 287 289 288 288 293 296 297 298 299 298 300 303 304 304
301 301 301 302 302 302 301 299 299 299 293 286 288 293 296 298 298 297 297 297 296 294 291 288 287 289 289 285 285 283 289 287 286 285 293 292 293 296 298 298 298 300 302 303
301 302 302 302 302 302 298 291 297 299 299 290 284 292 292 295 296 296 295 296 296 294 291 290 290 292 289 284 280 288 291 292 293 292 295 294 296 297 298 297 293 295 295 296
301 302 302 302 302 300 291 289 294 300 299 290 285 286 291 294 295 294 294 296 295 295 292 290 288 288 291 285 283 289 292 293 293 295 295 293 294 296 294 293 293 292 289 288
301 301 302 302 302 300 294 298 300 299 294 292 283 285 288 293 290 289 292 292 293 293 291 291 285 287 287 284 286 291 293 294 294 295 296 295 296 295 291 291 288 285 283 283
301 301 302 300 294 288 295 301 300 300 293 285 282 283 282 293 290 292 290 293 285 291 287 288 287 283 283 287 288 289 291 293 293 292 293 294 294 290 289 287 285 282 280 280
301 297 288 284 293 301 300 295 291 290 291 288 281 286 285 290 287 286 287 287 285 283 286 287 282 281 288 289 290 290 291 290 289 288 290 289 289 286 283 282 281 280 279 278
293 289 287 296 300 294 290 283 284 285 282 285 285 286 285 288 285 285 285 284 283 278 280 282 281 281 285 288 288 288 289 289 287 287 287 289 288 282 280 280 280 280 279 278
295 294 296 294 290 286 283 282 283 283 280 284 281 284 283 286 289 286 285 281 282 277 282 282 279 282 283 284 283 284 285 286 285 284 281 282 282 281 280 278 277 277 276 275
294 288 283 283 279 278 277 273 279 280 283 284 284 282 285 285 286 284 284 282 280 285 282 279 279 280 282 282 283 282 283 282 282 281 281 280 279 279 278 276 277 276 275 275
284 278 270 272 267 273 274 275 279 281 283 281 283 283 282 283 281 283 279 279 284 281 278 273 276 279 280 280 280 280 279 279 279 278 278 278 277 277 277 277 276 275 274 273
276 276 269 271 276 276 277 278 280 280 282 284 284 285 284 282 282 282 282 280 274 272 269 273 276 278 278 278 278 278 277 277 277 277 276 276 276 275 274 275 275 274 273 272
276 273 271 272 273 271 273 273 275 278 278 283 286 284 281 278 277 275 272 270 267 271 275 277 277 276 277 277 277 277 276 276 276 275 275 275 274 273 273 274 273 273 272 271
275 271 273 272 271 270 271 273 274 278 279 278 280 275 273 278 273 271 273 266 272 275 275 277 277 276 276 277 276 276 276 275 275 275 275 274 274 274 272 270 271 271 271 270

GFSNW_sfc_thetae_090.txt.gz
Theta_e
300 301 301 301 301 302 300 294 285 300 304 287 288 282 285 288 287 290 288 288 286 285 285 283 283 283 287 293 292 288 292 293 288 291 298 300 298 295 296 290 290 293 292 292
300 300 301 300 302 301 298 290 290 300 300 282 282 285 286 287 286 286 286 286 288 288 284 281 284 286 293 294 293 290 292 290 285 287 293 297 293 295 296 296 295 290 289 292
299 300 300 300 301 301 299 290 283 290 291 291 286 283 283 284 289 287 288 286 289 286 284 287 283 286 292 294 293 293 294 289 285 282 286 292 289 292 295 294 290 291 292 294
300 300 300 300 300 301 297 287 286 289 282 285 286 287 284 282 283 289 289 286 285 285 282 285 285 287 290 292 295 295 292 285 288 289 290 290 290 290 292 291 293 290 294 295
299 299 300 300 300 300 293 287 287 290 287 288 286 286 284 283 285 286 285 285 286 287 284 286 284 287 288 288 292 292 294 287 288 286 290 290 288 290 291 292 294 294 295 296
299 299 299 300 300 300 290 292 296 291 286 286 284 285 285 285 288 288 289 289 288 286 288 291 292 293 293 292 290 288 288 288 284 282 288 288 284 290 291 292 295 296 293 299
299 300 300 300 300 300 296 296 294 288 282 284 284 285 286 286 287 286 290 291 288 292 297 296 296 294 293 293 292 293 288 286 285 283 284 276 288 295 296 294 297 299 300 301
300 300 300 300 300 301 298 298 293 287 281 285 285 286 286 288 290 288 289 291 295 297 293 287 284 285 286 289 291 292 293 289 283 281 282 285 288 293 292 294 294 301 300 302
300 300 300 300 301 301 299 299 298 293 285 283 287 285 288 286 286 287 289 295 297 295 290 286 280 280 284 284 287 293 292 291 286 283 279 277 291 296 302 301 290 301 302 302
300 301 300 301 301 301 300 296 301 294 285 289 290 285 285 290 289 287 290 291 292 294 286 283 282 282 287 282 283 283 284 284 281 282 280 285 292 295 301 287 291 300 302 302
301 301 301 301 301 301 299 295 299 295 288 290 292 292 290 290 291 287 290 289 290 288 284 284 285 284 286 284 287 287 285 283 283 284 281 279 296 297 291 297 301 301 302 301
301 301 301 301 301 301 301 293 298 297 291 291 296 295 298 297 296 293 293 290 290 290 287 289 289 286 288 286 282 291 285 290 289 289 289 296 299 297 300 302 301 301 301 303
301 301 300 300 300 301 300 296 297 295 289 289 290 290 297 299 300 302 290 292 295 293 296 293 291 286 290 285 286 288 292 294 291 291 294 295 297 300 302 303 302 301 303 304
301 301 300 300 300 300 301 295 298 294 291 285 289 298 296 301 300 299 299 296 298 297 295 289 289 287 293 289 290 290 293 294 291 291 294 296 297 299 300 301 301 302 303 302
300 301 301 300 301 300 299 298 299 299 292 287 289 295 298 299 300 298 298 296 294 293 289 288 288 293 292 293 293 290 295 292 290 290 296 296 297 300 302 300 301 301 299 301
300 301 301 301 300 300 296 288 296 300 299 290 286 294 294 298 298 297 297 296 294 293 290 289 293 297 294 288 288 294 297 298 299 296 299 300 301 302 302 301 300 296 297 301
300 300 301 301 300 298 291 290 296 300 298 290 286 288 294 297 296 295 295 297 294 293 290 289 291 293 295 289 286 293 296 298 299 300 299 297 299 298 301 300 296 294 293 294
300 300 300 300 300 298 293 300 300 299 293 290 286 287 290 296 290 289 295 291 292 292 289 292 290 294 292 287 292 294 296 297 298 298 300 300 300 301 301 299 295 293 291 290
301 301 301 299 295 287 293 300 300 303 295 288 287 285 283 295 291 292 292 293 285 292 287 289 293 290 285 291 293 294 295 294 295 296 298 299 299 299 298 296 294 291 288 288
301 296 286 284 290 300 299 294 290 291 293 292 287 292 285 293 290 288 289 290 288 284 288 294 288 288 294 293 293 293 293 293 294 292 292 294 294 296 295 293 292 291 289 286
292 286 288 295 301 296 290 285 286 287 284 288 290 290 287 292 288 288 291 286 288 283 287 286 285 284 288 288 289 291 291 291 292 292 292 290 290 291 293 290 289 288 286 284
294 295 297 295 290 288 285 284 285 284 283 286 285 288 291 289 294 289 288 286 287 282 289 285 282 281 283 284 284 286 288 288 288 287 286 286 285 287 289 287 285 284 281 278
295 290 285 286 281 282 282 278 282 283 286 287 287 286 290 286 289 289 286 284 284 290 284 282 280 282 283 283 284 283 285 285 284 284 283 282 282 282 282 279 278 278 277 277
285 282 275 278 276 278 279 281 283 283 287 288 289 287 290 289 288 287 283 287 287 282 281 278 279 280 281 281 282 281 280 280 280 280 280 279 278 277 277 277 276 275 273 274
280 280 273 275 277 278 278 280 281 281 283 288 288 289 290 286 284 286 285 282 280 278 277 278 278 279 279 279 279 279 279 278 278 278 276 276 275 274 273 274 274 273 272 272
277 275 274 276 278 275 276 275 276 279 280 286 288 286 284 281 283 279 276 277 275 276 277 278 279 278 278 278 278 278 278 278 277 277 276 275 274 273 272 273 272 272 272 271
274 273 275 275 275 273 275 276 276 279 281 282 284 279 276 282 277 273 276 274 275 277 278 278 277 277 277 278 277 277 277 276 276 275 275 274 274 273 272 270 270 271 270 269

GFSNW_sfc_thetae_096.txt.gz
Theta_e
300 300 300 300 300 300 298 292 287 303 303 288 288 283 287 291 290 292 289 289 289 288 289 288 288 288 292 295 294 290 295 291 289 292 298 300 298 293 293 287 287 292 290 290
300 300 300 300 300 299 298 289 290 303 301 283 284 288 287 289 288 288 287 286 289 290 287 285 288 289 294 296 294 291 293 290 285 288 293 298 294 297 296 295 294 289 287 290
300 300 300 300 300 299 298 290 284 291 293 292 287 285 286 285 290 289 289 288 289 287 287 289 287 287 291 295 294 297 295 289 287 285 287 292 291 294 296 295 290 290 291 293
300 300 300 300 300 299 296 290 286 290 285 286 287 287 287 285 284 289 289 286 286 286 283 285 285 288 289 291 295 293 293 284 287 288 290 290 289 290 292 291 293 289 292 294
299 300 300 300 300 299 292 287 287 289 287 289 286 287 285 284 287 287 286 285 287 287 284 285 283 287 288 288 291 291 294 286 288 285 288 288 287 289 290 291 291 291 293 293
298 299 299 300 300 299 291 294 294 290 286 286 285 285 286 285 288 289 291 289 288 286 288 292 292 294 294 293 291 290 290 288 286 282 288 287 284 288 289 290 291 291 288 294
299 299 299 300 300 299 297 294 293 287 282 284 284 286 287 287 288 286 290 291 288 292 298 298 296 294 293 292 291 293 289 288 288 283 285 277 289 294 294 292 293 294 298 297
298 299 299 299 299 299 298 297 293 288 282 285 285 286 286 289 290 289 289 292 295 297 294 288 285 285 286 288 290 290 292 288 284 281 281 285 288 292 293 293 293 300 299 301
298 299 299 299 299 299 299 297 299 292 285 284 288 286 288 285 286 288 290 295 298 297 290 286 280 279 283 283 286 292 291 292 287 284 279 278 290 295 297 297 288 299 299 299
299 299 300 300 300 300 299 295 300 293 286 289 289 286 286 289 288 286 290 291 292 296 287 282 281 281 288 283 283 284 285 286 282 283 282 286 294 296 298 285 289 299 300 300
299 299 300 300 300 300 299 295 300 294 288 290 292 292 289 289 289 285 290 290 291 289 284 283 284 284 286 286 288 286 285 283 283 284 281 279 297 296 291 296 300 300 301 301
299 299 300 300 300 301 300 293 300 300 291 290 296 296 297 295 294 291 292 289 285 292 288 288 289 286 290 287 282 293 285 289 287 287 287 297 299 300 302 302 299 300 301 301
299 299 300 300 300 301 300 296 298 295 289 290 292 291 297 300 299 301 290 292 293 293 294 291 290 285 290 285 286 288 292 295 289 290 294 296 299 301 302 301 300 301 302 302
299 299 300 300 300 302 301 295 297 296 291 284 288 298 295 299 300 299 299 296 295 294 294 288 288 286 292 288 290 290 293 293 292 292 295 297 299 300 301 301 302 302 303 301
299 300 300 300 300 301 300 299 297 299 291 286 288 295 297 300 298 297 298 297 295 294 289 287 285 291 292 293 292 289 295 293 291 289 297 296 298 300 302 301 301 302 300 299
299 300 300 301 301 301 294 287 296 299 299 289 285 296 295 297 298 297 296 296 296 295 289 287 291 295 292 287 287 294 297 299 299 296 299 299 300 301 302 301 301 300 299 299
299 300 300 301 300 297 290 291 296 299 298 287 286 287 294 296 297 297 297 298 296 293 290 288 289 292 293 289 285 292 295 297 298 299 300 298 300 298 301 302 302 300 298 295
299 300 300 301 300 298 292 299 300 299 292 290 285 286 289 296 290 290 297 291 292 290 290 291 290 292 291 285 291 294 295 297 298 299 300 299 300 301 300 301 301 299 298 295
300 300 300 298 294 289 293 300 300 300 293 286 285 283 283 293 290 291 292 292 285 291 286 289 291 288 285 290 293 294 295 294 294 296 298 298 297 296 297 297 297 297 297 295
300 297 287 284 291 300 299 294 290 290 291 292 285 292 286 291 289 288 287 289 287 284 287 292 287 286 292 293 292 291 292 292 293 290 290 291 291 292 293 293 294 295 295 291
293 288 288 295 299 294 288 285 285 286 284 289 290 291 288 295 287 285 289 286 288 283 287 286 285 285 285 288 288 289 290 290 290 290 290 290 288 287 288 289 289 288 288 285
296 295 297 296 290 287 284 283 285 285 284 291 290 291 293 294 297 289 289 286 287 281 291 287 283 281 283 284 284 285 286 286 285 286 285 285 284 284 284 283 282 281 280 279
298 294 289 288 286 282 281 279 282 284 290 291 292 288 290 293 294 291 289 283 283 291 285 282 279 280 282 282 282 282 283 282 282 282 282 282 280 280 281 280 279 279 277 276
290 286 281 283 282 283 281 282 285 286 291 291 292 290 289 290 287 288 283 287 288 282 281 276 277 279 280 280 280 280 279 280 279 279 279 278 278 277 277 277 277 276 275 274
284 285 278 279 281 282 282 284 285 284 287 288 290 291 290 287 284 285 285 283 281 278 275 277 278 279 279 278 279 278 278 279 278 278 277 275 275 274 274 274 274 273 272 271
281 280 279 282 281 280 281 282 282 283 283 286 289 287 285 284 285 283 279 279 274 275 278 278 279 278 278 278 279 278 278 278 278 277 277 275 274 273 273 273 273 273 273 272
279 276 280 282 280 279 280 281 280 284 283 285 286 283 280 285 280 276 277 274 276 278 278 279 278 277 277 278 278 278 277 277 276 275 275 275 275 274 272 270 271 271 271 271

GFSNW_sfc_thetae_099.txt.gz
Theta_e
300 300 300 300 300 300 296 291 280 296 301 286 285 279 284 288 286 290 288 287 285 284 285 286 286 286 290 294 294 289 291 289 287 290 295 297 295 291 290 285 283 287 286 286
300 300 300 300 300 300 294 287 284 295 292 280 278 284 285 286 285 286 287 286 287 287 284 281 287 287 295 295 293 289 289 286 283 287 290 294 293 295 296 291 289 285 281 285
300 300 300 300 300 300 293 288 280 285 288 289 285 283 284 284 290 287 288 287 287 285 283 286 285 287 292 294 294 297 294 286 283 280 285 289 286 289 294 291 284 285 285 289
299 299 300 300 300 300 293 288 280 287 281 283 284 285 285 283 283 289 288 285 284 283 280 282 282 286 287 290 295 292 289 283 286 287 288 287 286 286 289 288 290 288 290 291
299 299 299 300 300 300 291 284 280 285 283 286 284 285 283 283 284 285 285 284 286 285 281 282 281 284 284 286 290 288 290 284 287 285 289 288 285 287 287 288 289 288 289 289
298 299 299 300 300 298 289 290 290 286 282 281 279 280 284 284 286 288 289 288 286 284 287 290 290 291 289 290 288 287 288 285 283 281 287 286 281 286 287 288 289 288 284 290
298 299 299 300 300 299 291 289 288 283 277 280 281 284 285 285 286 285 288 289 287 290 295 296 294 291 291 289 289 290 287 285 285 281 284 275 287 293 292 289 292 293 295 297
298 299 299 299 300 300 292 291 290 285 276 282 283 284 285 287 288 286 287 290 293 294 291 284 282 281 282 285 288 287 289 287 281 279 278 284 287 291 292 291 291 296 295 297
298 299 299 299 299 299 293 291 293 290 282 279 285 284 285 282 283 284 287 292 294 295 288 284 277 274 280 280 284 289 288 288 283 281 277 274 289 294 296 294 287 297 297 296
298 298 298 299 299 299 294 290 294 291 285 285 287 282 283 287 286 283 287 288 288 291 278 278 278 277 285 280 280 280 281 282 280 280 280 284 293 295 297 283 286 297 298 297
298 298 298 299 299 300 297 292 294 290 285 285 288 288 285 286 286 282 285 283 286 286 282 280 280 277 283 284 286 284 281 280 279 281 277 277 296 295 290 294 295 295 297 296
298 298 299 299 299 299 299 291 296 296 288 286 292 293 293 292 291 287 288 287 286 287 284 282 284 280 284 285 280 288 282 286 284 284 283 293 297 297 300 298 296 295 296 296
298 299 298 299 299 299 299 294 295 293 288 287 286 285 291 295 295 294 287 289 290 286 287 287 286 282 286 281 283 285 290 294 288 288 292 294 296 299 300 299 298 299 298 297
298 299 299 299 299 299 300 295 297 293 289 279 283 294 291 295 295 294 294 293 293 292 291 287 285 283 290 286 285 285 290 293 290 290 293 294 297 298 299 299 300 299 298 299
299 299 299 299 299 300 299 298 298 297 289 281 284 292 294 295 295 293 292 293 292 289 287 285 283 287 288 289 289 287 292 291 288 287 295 294 295 299 301 300 298 297 297 297
299 299 299 299 300 299 295 287 296 298 295 287 281 290 291 294 294 293 291 291 290 288 287 286 286 291 287 281 282 292 294 295 295 293 298 297 298 299 299 297 296 296 294 294
299 299 300 300 300 298 290 289 293 298 297 285 282 281 291 294 293 291 290 291 289 288 289 285 284 285 289 284 280 291 294 295 297 299 298 296 296 294 297 298 297 296 293 291
300 299 300 300 300 298 292 297 300 299 289 288 281 279 284 294 286 284 290 287 290 290 288 288 284 287 285 281 289 292 294 296 294 295 295 295 295 295 294 295 295 294 291 287
300 300 300 298 292 288 292 300 300 298 292 284 283 279 279 291 286 290 290 291 284 290 285 286 286 284 280 288 289 289 289 289 290 292 291 291 290 290 290 291 291 290 291 285
300 295 287 283 288 300 298 294 289 289 289 290 283 287 281 289 287 285 286 287 284 281 283 289 285 283 288 287 287 287 287 288 288 286 285 286 285 286 286 287 287 286 287 283
292 286 286 293 300 293 288 283 283 284 282 286 286 287 285 291 285 284 286 284 285 279 283 284 282 281 283 284 284 285 284 284 285 285 285 284 283 282 284 284 284 283 282 280
294 294 296 295 289 285 282 281 283 283 279 283 282 283 288 289 293 286 286 283 284 280 287 283 279 278 281 281 281 282 282 282 282 282 281 281 280 280 281 281 280 279 278 277
296 292 288 286 284 279 279 277 277 276 282 284 283 284 286 286 290 285 284 281 279 287 283 276 276 278 279 279 280 279 280 280 280 280 279 279 278 277 277 276 277 277 275 275
288 284 280 281 277 281 279 281 282 284 285 283 284 282 285 286 285 285 280 281 284 279 275 271 275 277 278 279 279 278 277 279 278 277 276 275 275 274 273 273 273 274 273 272
282 282 276 277 280 281 282 284 283 283 285 285 283 284 285 284 283 284 282 280 277 274 270 274 276 277 278 278 277 273 276 276 276 273 270 269 270 270 269 271 271 271 270 270
280 278 278 280 279 278 279 281 280 282 282 285 287 283 283 281 279 280 275 277 271 271 274 276 277 275 277 276 273 273 271 271 270 272 270 269 269 269 269 270 270 269 270 269
278 275 278 279 278 276 277 279 279 283 282 284 283 280 278 284 277 273 275 268 273 275 275 275 272 270 269 274 272 274 272 270 269 267 269 269 268 269 269 267 268 269 269 268

GFSNW_sfc_thetae_102.txt.gz
Theta_e
300 300 300 300 300 301 295 289 280 291 297 284 283 281 283 287 285 288 285 286 285 283 283 282 285 285 287 294 292 288 290 287 284 290 294 296 293 290 291 284 282 285 284 284
300 300 300 300 300 300 288 285 282 291 291 275 281 283 284 286 285 286 284 284 286 287 283 280 285 287 292 294 291 287 289 285 280 286 291 293 289 291 294 291 288 284 281 283
300 300 300 300 300 300 292 286 278 281 290 288 283 283 282 282 289 287 288 286 287 283 281 285 282 285 290 292 292 292 292 286 281 279 285 289 284 286 291 290 283 284 285 288
299 299 299 299 300 299 291 286 280 282 272 278 283 284 283 282 282 287 288 285 285 282 278 279 279 283 285 288 293 293 289 283 285 285 287 288 286 286 286 287 287 283 288 290
299 299 299 299 299 299 287 283 283 283 281 284 281 282 282 282 283 285 284 283 285 285 281 282 281 285 285 284 290 288 291 284 285 282 287 288 286 287 287 288 288 287 287 286
298 299 299 299 299 297 288 290 288 285 281 279 276 279 282 282 285 286 288 287 285 283 286 288 289 289 288 287 287 285 287 285 282 279 286 286 280 285 287 287 289 289 284 293
298 298 299 299 299 297 289 287 289 284 276 279 280 282 283 283 285 284 287 287 285 290 294 292 290 289 289 288 287 289 284 284 281 278 282 274 286 292 291 292 293 293 294 294
298 299 299 299 299 299 289 288 288 284 274 280 281 282 283 284 285 285 285 288 290 293 290 282 281 280 281 283 286 285 287 283 277 276 276 282 286 291 290 290 290 295 294 295
298 299 298 299 299 299 291 288 290 289 282 278 284 282 283 280 280 282 285 291 292 292 284 279 277 273 279 278 282 287 285 285 279 278 275 272 286 292 295 293 285 296 296 295
298 298 298 298 298 299 292 288 291 289 283 283 284 280 281 285 284 280 284 285 285 291 280 278 276 276 284 278 279 279 278 278 277 276 275 282 291 294 295 282 284 296 296 295
297 298 297 298 298 299 294 289 291 289 283 284 287 287 283 283 283 280 284 282 285 283 281 280 279 277 282 281 285 284 279 275 273 277 274 275 293 294 287 292 294 295 295 295
297 297 297 298 298 298 298 290 295 293 287 283 290 291 291 290 289 285 286 284 284 287 282 283 283 280 283 283 279 286 280 283 281 282 282 291 294 295 300 298 294 293 294 295
296 297 297 298 298 299 297 293 294 293 288 286 285 284 290 292 291 292 283 285 290 286 289 285 285 281 285 279 281 283 289 291 287 286 290 292 295 297 300 299 296 296 297 299
296 297 297 298 298 299 299 293 295 293 289 280 281 291 288 292 292 291 292 290 291 291 289 286 285 281 289 284 286 284 288 290 289 290 293 294 297 297 297 298 298 298 296 295
297 297 298 298 298 299 297 295 295 296 288 280 283 290 293 294 292 290 291 291 290 288 286 284 282 286 287 287 288 286 292 288 286 286 293 292 295 299 299 297 296 297 294 290
298 298 298 298 299 299 295 287 296 298 295 286 280 287 290 292 291 291 289 289 289 290 286 284 287 290 288 283 282 291 293 294 294 291 296 296 296 296 298 295 294 294 292 291
298 299 299 299 299 297 289 288 292 299 296 284 281 279 286 292 291 288 288 289 287 287 285 286 285 284 287 283 281 289 294 295 294 294 296 292 292 290 293 294 293 291 288 287
298 299 299 299 300 298 292 296 300 299 288 287 281 277 281 290 284 283 287 285 287 288 284 285 286 285 286 282 287 288 291 292 291 291 292 291 291 290 289 291 291 290 286 283
299 299 299 297 292 287 291 300 299 297 292 283 282 275 274 290 286 289 289 289 283 289 284 283 284 281 282 286 286 285 284 285 286 288 287 287 286 286 286 287 286 286 284 281
300 296 287 282 288 299 298 294 289 288 289 289 281 282 280 288 286 284 285 286 281 280 284 287 283 283 285 284 284 283 283 283 284 283 281 282 281 282 283 285 285 285 284 281
291 286 286 291 299 293 288 282 283 284 282 284 284 284 284 290 284 284 285 283 284 278 280 282 281 280 280 282 281 282 282 282 281 282 281 280 279 279 281 282 282 282 281 279
292 294 296 295 290 285 281 280 283 281 278 281 281 283 287 288 291 285 285 282 283 278 286 279 276 276 279 279 279 280 280 280 280 280 279 279 277 277 278 278 278 278 277 276
295 291 287 284 283 277 274 275 277 274 278 281 279 279 284 287 288 285 284 281 280 286 282 273 274 277 278 278 278 278 279 280 278 277 277 277 276 275 275 275 275 276 275 275
288 284 280 280 276 277 276 280 282 283 284 281 280 280 284 284 282 280 280 281 283 273 274 270 274 276 277 278 277 276 275 277 276 273 274 273 273 271 271 271 272 272 272 272
281 280 274 276 278 279 281 283 282 282 284 284 285 283 283 282 279 283 280 279 273 272 269 272 275 276 277 275 275 273 273 272 272 269 268 267 268 268 268 269 270 270 269 269
279 276 277 279 276 276 278 279 279 282 282 284 284 281 281 277 281 278 274 273 266 269 272 274 275 273 273 271 271 270 267 267 266 267 268 266 265 265 265 266 267 266 266 266
277 272 277 276 276 274 276 278 278 282 281 283 281 278 276 282 273 271 273 265 270 274 275 274 272 270 269 271 270 269 269 267 265 266 267 267 268 268 267 264 266 267 267 266

GFSNW_sfc_thetae_105.txt.gz
Theta_e
300 300 300 300 300 300 294 287 272 288 293 279 282 279 283 287 285 287 285 285 283 282 283 281 281 285 286 293 292 287 287 284 280 286 293 293 290 286 287 282 281 283 281 281
299 300 300 300 300 299 287 283 284 289 290 276 275 284 283 285 284 285 284 283 286 286 283 279 282 284 291 292 290 287 288 283 278 283 287 291 287 288 291 289 287 283 279 281
299 300 300 300 300 299 289 284 277 279 290 287 280 280 281 281 287 286 287 286 287 284 281 285 281 282 288 290 290 292 291 285 281 277 280 289 285 285 290 288 282 283 282 287
299 300 300 299 299 299 290 284 280 282 271 278 281 283 282 280 280 286 287 284 284 283 279 280 281 285 286 289 293 290 287 281 283 285 287 288 287 285 286 287 286 282 285 286
299 299 299 299 299 299 288 281 280 286 281 282 280 280 278 280 281 283 283 282 284 284 280 282 280 284 283 283 287 286 290 282 284 282 287 287 286 287 287 288 289 289 290 286
299 299 299 299 299 297 287 288 289 285 280 279 276 278 281 280 283 286 287 285 283 282 284 287 288 287 287 286 284 283 286 284 282 277 284 283 280 285 287 287 290 291 286 291
299 299 299 299 299 296 287 286 287 283 277 279 279 281 281 282 282 282 286 286 283 287 292 291 289 287 287 287 286 287 283 283 283 280 281 273 285 292 292 291 292 292 293 296
298 299 300 299 299 299 288 287 288 284 274 280 280 281 280 282 283 283 284 287 289 290 288 281 280 279 280 282 285 284 286 283 279 278 278 281 285 290 288 289 289 295 293 295
298 298 299 298 299 299 290 287 290 288 281 278 283 281 281 279 279 281 283 289 290 290 283 277 273 273 278 278 281 285 284 283 281 278 274 270 282 290 293 294 284 296 296 295
297 298 298 298 298 298 292 288 290 287 281 283 283 279 279 283 281 279 282 284 284 287 278 276 275 275 282 274 277 280 277 278 277 276 273 279 288 292 294 282 285 296 296 295
297 297 298 298 298 298 292 287 291 288 283 282 286 286 282 281 282 277 281 280 281 281 278 280 279 275 279 279 282 282 279 275 271 275 273 273 291 292 285 290 294 296 294 294
296 297 298 298 298 298 297 288 292 292 287 282 289 289 290 288 287 283 283 281 280 286 281 281 280 277 282 282 277 285 280 282 279 280 279 287 292 293 297 296 293 293 293 296
296 297 297 297 297 298 296 291 292 292 287 286 285 284 289 292 291 292 283 282 288 287 288 283 282 280 282 279 280 283 286 290 284 283 286 290 293 296 297 297 295 297 298 298
296 297 297 297 297 298 297 292 292 291 288 281 280 289 286 291 291 290 290 287 289 288 288 283 282 280 286 281 285 284 286 286 288 287 291 293 295 296 297 298 297 294 293 293
296 296 297 297 297 298 295 292 293 294 288 279 281 288 290 293 289 288 288 287 286 286 285 284 281 283 284 286 286 285 288 286 285 284 290 292 294 294 299 297 295 293 291 289
295 296 297 297 298 298 293 287 294 295 295 286 277 287 289 291 290 288 287 289 288 289 284 283 286 289 287 281 282 289 292 294 290 287 294 293 292 293 295 292 291 290 289 288
295 296 297 298 298 296 289 287 292 297 295 284 280 278 284 288 288 286 286 287 286 285 285 282 283 284 286 283 280 286 292 293 293 293 291 288 288 286 290 291 289 288 285 284
297 297 298 298 298 297 291 294 299 298 288 287 281 277 279 288 283 283 286 283 285 284 284 287 283 284 283 281 286 285 286 289 289 288 289 288 288 287 288 288 288 286 283 282
297 297 298 297 293 288 290 298 299 297 291 283 283 274 274 288 286 288 288 284 282 286 284 283 283 281 281 284 283 282 282 282 283 287 285 284 283 283 285 285 284 284 282 280
298 296 287 283 288 297 299 293 287 286 286 288 281 280 277 285 286 285 285 286 281 280 283 286 282 282 282 282 282 282 282 281 282 281 279 279 279 279 281 282 283 283 283 281
291 285 285 291 298 293 287 282 282 284 280 284 284 282 281 288 283 283 285 283 281 277 279 281 281 278 278 281 280 281 281 281 280 280 280 278 277 277 279 279 279 280 280 278
292 292 295 294 290 285 280 280 282 281 278 279 281 283 285 287 290 284 284 281 282 277 284 280 276 274 278 278 278 279 279 279 278 277 277 277 276 275 276 276 276 276 277 276
294 290 286 284 282 277 273 273 278 278 278 278 279 284 283 287 289 285 284 281 280 285 278 273 273 276 277 277 277 276 278 278 276 275 275 275 274 273 273 272 273 273 272 274
287 284 279 277 274 277 275 278 279 281 284 283 278 284 284 285 283 283 276 281 283 278 273 268 272 275 277 276 276 275 273 274 273 272 272 271 271 270 270 269 270 269 270 269
281 280 274 271 275 280 281 283 282 282 283 284 284 283 283 280 279 280 280 278 270 270 268 270 274 276 276 275 275 273 273 270 268 266 266 265 266 266 266 267 268 269 268 267
278 275 275 277 276 275 277 278 278 282 281 284 285 282 280 276 280 277 270 272 267 269 271 274 274 273 274 273 273 269 267 267 266 266 266 265 264 264 263 265 265 265 265 265
276 272 275 273 275 272 275 276 277 281 280 282 281 279 275 280 273 270 271 264 267 271 273 273 273 271 268 267 270 270 268 265 264 264 264 264 265 265 264 262 264 265 265 265

GFSNW_sfc_thetae_108.txt.gz
Theta_e
299 299 299 299 300 299 293 283 272 290 291 277 281 277 282 287 284 287 284 284 283 281 282 281 281 280 283 289 289 286 288 283 280 284 291 291 287 284 285 280 279 281 280 280
299 299 299 299 299 299 286 280 281 288 290 274 273 281 283 285 283 284 284 283 285 286 282 279 282 283 288 289 289 285 287 282 278 280 286 289 285 286 289 286 284 281 278 280
300 299 299 299 299 299 287 281 273 278 289 287 280 274 278 280 286 285 285 285 286 283 281 284 281 283 288 290 290 293 290 285 280 277 280 285 283 285 285 285 280 281 281 286
299 299 299 299 299 300 289 281 274 282 274 276 280 279 281 279 278 285 286 283 283 282 279 280 281 284 286 288 292 291 288 281 283 284 286 287 287 286 285 285 284 281 283 283
299 299 299 299 299 299 286 280 277 284 281 281 280 278 278 279 279 281 281 281 282 283 280 281 280 283 283 283 287 286 289 279 284 280 284 283 284 286 285 287 287 287 286 286
299 299 299 299 299 296 288 284 285 282 279 279 275 277 280 279 281 283 285 284 282 281 283 285 286 287 287 286 284 283 284 282 279 277 282 282 278 284 286 287 289 288 283 289
298 298 299 299 299 296 286 285 285 281 274 279 279 280 280 280 281 279 283 285 282 286 289 289 288 286 286 286 285 287 282 281 281 279 281 272 284 291 289 289 291 290 292 294
298 298 299 299 299 298 287 286 286 283 274 280 280 280 280 281 281 281 283 285 287 288 286 281 279 279 280 282 284 283 284 282 277 277 277 280 283 289 288 287 288 293 294 294
298 298 298 299 299 299 291 288 289 287 278 277 282 280 281 278 278 280 282 287 288 287 281 275 273 272 278 278 280 284 283 283 279 278 275 272 282 288 292 293 283 296 296 295
297 297 298 298 299 298 291 289 290 288 279 281 283 279 279 281 280 278 281 282 283 285 276 275 274 275 280 273 275 279 278 277 276 276 275 280 286 290 292 281 283 295 297 296
298 297 297 298 298 298 292 288 291 289 282 281 284 285 282 281 280 276 280 278 280 280 275 276 278 277 279 278 279 279 279 276 272 275 272 273 288 290 285 290 293 296 295 294
297 297 297 297 298 298 294 284 291 293 287 282 286 287 288 286 286 281 282 280 278 282 278 279 280 277 281 279 275 285 276 283 280 280 278 286 290 291 295 296 293 293 293 298
296 296 297 297 298 298 295 291 292 291 287 285 284 283 288 291 290 290 283 282 285 283 288 278 280 277 280 276 278 283 286 287 283 283 286 288 292 294 296 297 295 296 296 295
296 296 297 297 298 298 295 291 292 290 287 280 280 289 285 290 290 289 289 286 288 288 287 283 280 279 285 279 282 281 286 286 285 285 289 291 292 293 295 295 294 292 292 292
295 296 296 297 297 297 294 290 292 292 287 280 281 286 289 290 289 287 288 286 284 282 281 283 281 283 283 284 286 284 289 285 283 284 290 291 290 292 295 292 291 291 289 286
295 295 296 297 297 298 292 286 292 294 293 285 277 284 286 288 289 286 285 285 284 283 281 281 285 289 286 279 280 287 288 287 289 285 289 288 289 289 291 289 289 288 287 286
295 295 296 296 297 293 288 285 291 296 295 284 277 279 284 286 287 285 284 285 287 286 282 280 282 283 284 280 279 284 287 289 288 288 287 285 285 284 287 289 287 286 283 282
295 295 296 297 297 295 290 293 297 297 289 287 277 278 279 287 280 280 284 283 285 287 282 285 283 283 282 279 284 283 284 286 286 287 286 284 285 285 285 286 287 284 282 281
295 295 296 295 292 287 290 298 298 295 289 282 282 274 272 288 286 288 287 285 281 284 283 281 282 281 279 281 281 281 281 280 280 285 282 282 280 280 282 283 283 283 282 281
295 294 287 282 287 296 297 291 287 285 285 286 279 279 275 283 284 283 283 285 277 277 281 284 282 280 281 281 281 281 280 280 280 279 278 277 276 277 278 279 280 281 281 280
289 284 285 290 297 292 287 282 281 283 280 283 282 281 277 285 281 282 284 282 281 277 278 280 279 277 277 279 279 279 279 279 277 278 278 278 276 275 276 277 277 278 278 277
289 291 294 294 289 285 281 279 281 281 278 278 281 282 283 285 290 284 284 281 280 276 283 280 274 273 277 277 276 277 279 277 276 276 275 275 275 274 275 273 273 274 276 275
294 290 286 284 282 278 273 272 277 277 277 277 281 282 281 286 288 284 283 280 278 285 278 271 272 276 277 276 276 276 277 276 275 274 273 273 272 271 271 270 271 271 270 272
286 283 277 277 275 277 275 278 279 280 284 284 281 284 284 285 283 283 278 281 282 277 270 269 272 275 276 276 276 275 273 272 272 269 270 269 269 268 267 267 269 268 268 267
282 279 272 277 275 275 277 283 282 281 283 284 284 283 283 282 281 281 280 277 269 269 268 270 274 276 275 274 274 272 270 266 266 264 264 263 263 265 263 265 266 266 265 265
278 275 275 278 273 272 275 277 278 281 280 283 284 282 279 278 280 277 272 271 268 267 271 274 274 274 274 273 272 269 267 267 265 265 266 264 262 262 263 264 264 264 264 264
275 269 273 269 268 268 272 274 275 279 278 281 280 277 273 276 272 270 269 264 268 270 271 271 271 271 272 272 272 270 269 266 265 263 264 262 263 264 264 262 262 263 264 263

GFSNW_sfc_thetae_111.txt.gz
Theta_e
299 298 300 298 299 299 293 285 276 292 294 280 282 278 281 286 284 287 285 285 282 281 282 281 281 280 283 289 288 283 288 285 281 285 292 294 289 286 288 284 282 285 285 285
300 299 299 299 299 298 288 282 282 290 292 274 276 281 282 285 284 284 284 283 285 286 282 279 283 283 289 290 288 285 287 284 279 282 288 290 287 288 289 288 288 284 282 284
299 300 299 299 300 299 289 282 274 281 288 287 280 278 278 280 285 284 286 285 286 283 281 284 281 283 287 289 289 293 289 285 282 278 281 286 284 287 289 288 283 284 286 289
299 300 299 300 300 299 289 281 277 282 275 279 281 281 280 278 279 283 285 283 283 281 279 280 281 283 284 287 290 289 288 281 283 284 285 287 287 286 287 285 287 283 286 288
298 299 299 300 300 299 287 280 280 283 281 282 280 280 278 278 279 281 280 282 282 283 280 281 279 282 282 282 287 285 287 282 284 281 285 284 283 287 287 287 289 289 289 290
298 298 299 299 299 296 289 286 287 283 279 280 278 278 280 279 281 283 284 283 281 282 283 285 286 287 286 286 284 283 283 282 281 278 284 283 280 285 287 287 289 290 287 293
298 299 299 299 299 295 288 286 286 280 275 279 279 280 281 280 280 279 282 284 283 287 290 290 290 287 286 286 286 287 283 282 282 279 282 273 284 292 291 288 289 293 295 297
299 299 299 299 299 297 289 287 286 283 277 281 280 280 280 281 282 281 282 285 288 290 288 284 281 281 282 284 285 285 286 283 280 277 278 281 286 288 288 287 289 294 295 297
299 299 299 299 299 299 291 288 290 288 279 278 282 280 281 279 279 281 283 288 290 289 284 280 276 274 278 278 281 286 285 285 281 279 275 273 283 289 292 293 286 297 297 298
298 298 298 298 299 299 292 291 292 289 282 283 284 281 280 283 282 280 282 283 284 287 280 279 278 277 282 277 277 279 281 281 278 278 276 281 288 290 295 283 286 297 298 298
298 298 298 298 298 298 293 291 292 290 283 283 285 286 283 283 283 279 282 281 283 282 278 278 278 278 280 279 281 280 280 279 277 279 276 274 290 292 287 292 296 298 298 297
298 298 298 298 298 298 294 287 291 295 287 283 287 288 289 289 288 284 284 281 282 284 281 281 281 278 281 279 276 284 279 283 280 281 281 288 294 294 297 297 296 296 298 299
298 297 297 297 297 298 295 288 291 291 287 285 285 284 289 291 291 291 282 285 287 285 288 283 280 277 282 277 278 281 285 289 284 284 288 290 292 296 295 296 295 297 298 296
297 297 296 297 297 298 296 290 292 291 286 280 282 289 287 291 291 290 290 288 290 290 288 283 281 279 285 281 282 281 284 286 285 285 288 291 289 292 294 293 292 291 291 291
296 296 296 297 297 297 294 291 291 293 287 280 282 287 290 291 289 288 289 288 287 285 282 281 280 285 284 285 285 284 288 283 280 281 286 288 285 288 291 290 291 290 288 287
296 295 296 297 297 296 292 286 291 293 292 284 278 286 286 290 289 287 286 287 286 286 283 283 285 289 286 281 279 287 288 287 285 283 287 286 288 287 288 287 286 286 285 284
296 295 296 297 297 293 286 283 290 295 294 285 280 280 286 288 287 286 285 287 286 286 284 284 285 285 286 283 278 284 285 288 287 286 285 283 283 283 285 287 285 285 283 283
296 295 296 296 297 295 289 293 296 296 289 287 280 279 282 288 283 283 286 284 286 287 286 286 284 285 285 280 283 283 283 284 283 284 284 283 283 283 284 285 287 284 282 281
295 295 296 293 291 287 290 297 297 294 288 282 281 278 276 289 287 287 286 287 280 287 283 283 284 282 279 281 281 280 280 279 279 283 281 280 279 280 281 281 281 282 281 280
295 292 286 283 287 296 297 291 286 285 286 286 281 282 278 286 285 284 285 285 282 279 283 286 282 281 281 280 280 280 279 278 279 278 277 277 276 276 278 278 279 279 279 279
289 284 284 291 297 292 287 283 282 282 281 283 284 282 281 286 282 283 286 283 282 277 280 281 280 277 277 279 278 279 279 278 277 277 277 276 275 275 276 275 276 277 277 277
289 290 293 292 289 285 281 279 282 280 279 281 281 282 284 285 290 284 284 282 281 275 283 280 276 274 277 277 276 277 277 277 276 275 274 274 273 273 274 273 273 273 274 275
292 288 285 285 283 278 273 274 278 278 280 280 283 282 283 285 288 285 284 280 277 285 280 274 273 276 277 276 276 276 276 275 274 273 273 272 271 270 270 269 270 272 271 271
285 283 277 277 275 277 278 280 281 281 283 282 284 284 284 285 284 284 280 282 282 277 272 270 273 276 276 276 276 275 273 272 271 269 270 269 268 268 267 267 269 268 268 268
283 281 273 276 277 279 281 283 282 281 284 285 285 285 285 283 282 283 281 278 271 271 270 272 275 276 275 274 274 273 272 270 269 267 266 265 265 266 265 266 266 267 266 266
279 275 276 278 276 276 276 278 278 280 280 283 284 283 280 279 280 278 273 273 270 270 273 274 275 274 274 273 273 271 270 269 267 267 267 266 264 264 264 264 265 264 265 265
275 270 273 271 271 271 273 274 274 278 278 282 282 279 276 278 273 270 270 268 271 273 273 274 273 273 272 271 273 272 271 268 267 266 266 265 266 266 266 264 265 265 266 265

GFSNW_sfc_thetae_114.txt.gz
Theta_e
300 299 300 299 300 299 297 294 287 299 301 289 289 285 284 286 286 289 287 287 285 283 284 283 283 284 286 291 290 285 287 284 283 286 294 295 291 290 290 284 283 286 287 287
299 300 300 299 300 299 297 290 289 299 297 283 283 285 284 286 285 285 286 285 287 288 285 281 284 286 290 291 289 287 288 284 280 283 290 291 288 290 292 292 291 286 284 287
300 300 300 300 300 299 297 290 283 288 291 292 281 280 282 282 286 285 287 286 288 286 284 287 283 285 288 291 289 292 291 285 282 277 282 289 285 286 291 289 286 286 288 290
300 300 300 300 300 299 296 291 285 288 283 284 285 285 283 281 279 285 286 285 285 283 280 283 283 286 287 289 290 289 288 281 285 285 286 287 288 288 288 288 289 286 289 290
300 301 300 300 300 299 295 286 286 288 285 286 284 283 282 281 282 282 282 283 285 285 283 284 282 284 285 284 287 286 289 281 285 282 285 288 285 289 290 290 290 291 291 290
300 301 301 300 300 299 293 293 293 290 284 284 283 283 282 282 283 284 286 286 284 283 286 289 289 290 289 289 286 284 285 283 281 279 285 285 283 288 289 290 292 293 290 295
301 300 300 301 300 298 295 293 292 286 281 283 282 282 283 283 284 282 285 287 284 288 293 292 293 292 291 291 290 290 285 284 283 280 283 275 286 293 293 290 292 295 295 299
300 300 300 300 300 298 295 295 292 288 282 283 283 283 283 284 285 284 284 287 290 293 290 286 283 284 285 286 288 289 290 286 281 278 280 282 286 288 290 289 290 296 296 299
300 300 300 300 300 299 296 296 298 292 285 283 285 283 284 282 283 284 285 290 293 292 288 284 278 277 280 280 283 289 288 289 284 281 276 275 285 290 294 294 286 298 299 300
300 300 300 300 299 299 298 295 299 292 285 287 287 284 284 287 285 283 285 286 286 291 285 281 279 278 284 279 279 281 283 284 281 281 278 281 289 293 297 285 287 298 300 297
300 299 299 299 299 299 298 295 299 293 287 288 288 288 285 286 285 281 285 285 286 287 282 282 281 280 282 281 283 282 281 281 282 282 278 276 293 293 288 293 299 298 298 298
299 299 299 298 299 299 298 293 297 297 289 289 292 293 293 292 290 287 287 285 284 287 284 285 285 281 283 282 278 287 281 284 283 284 284 292 295 293 297 299 297 298 299 300
299 299 299 298 299 299 298 296 295 293 287 287 288 288 294 296 295 296 285 287 289 288 290 286 284 279 285 279 281 283 286 289 284 285 289 289 289 293 296 295 296 298 300 299
299 298 298 298 298 298 298 295 297 292 289 283 286 294 291 296 296 295 294 292 293 293 290 285 285 281 287 283 283 281 285 286 284 285 287 287 286 287 291 292 292 291 294 294
298 298 298 297 297 298 299 298 298 297 290 282 286 292 294 295 294 294 294 292 290 286 285 283 282 286 286 286 286 284 288 283 281 281 285 286 284 287 289 287 287 289 290 289
298 298 297 297 298 298 296 287 296 299 296 287 282 292 291 293 294 292 292 292 289 287 284 283 287 290 287 283 282 287 288 287 285 283 287 286 287 287 289 286 285 285 285 287
297 297 297 297 297 297 291 290 294 297 297 286 281 285 291 293 292 291 289 291 289 287 285 285 287 288 289 285 280 285 286 286 286 286 285 284 283 283 285 288 287 287 287 286
297 297 297 297 297 296 292 295 297 297 291 289 281 283 287 293 287 286 289 285 287 287 288 288 287 289 288 282 286 285 284 285 284 285 285 283 284 285 284 286 288 285 284 284
297 297 296 295 292 288 292 297 296 296 289 284 283 282 282 291 288 289 288 288 282 290 285 285 288 284 281 283 283 282 282 280 280 284 283 282 281 282 282 283 283 284 283 282
296 295 288 284 290 296 297 292 288 287 287 287 281 289 284 289 287 286 287 287 284 281 286 289 284 283 282 281 282 282 281 281 281 280 278 278 278 279 279 279 280 281 281 281
292 286 286 294 297 293 288 284 283 284 282 284 285 287 285 292 285 284 289 286 285 280 284 283 282 281 279 281 281 282 281 281 279 279 278 278 277 277 278 278 278 278 279 279
291 292 294 292 289 286 283 282 283 282 281 286 283 284 287 290 293 288 287 283 284 279 287 282 279 277 279 279 279 280 280 279 278 277 276 276 275 275 276 275 275 275 275 276
294 290 286 285 285 280 278 276 280 282 286 286 285 283 287 289 290 286 285 282 282 288 282 280 277 278 279 279 279 278 278 277 276 275 275 274 273 273 272 272 273 274 274 274
285 282 280 281 279 281 282 283 286 286 288 287 287 285 285 287 285 286 281 284 284 280 277 274 278 278 278 278 278 277 274 273 273 272 272 271 271 270 270 270 272 271 271 271
283 284 279 280 283 283 284 285 285 285 288 288 287 286 286 286 284 285 284 281 276 276 275 275 278 278 277 276 276 275 273 272 272 271 270 268 269 269 269 269 270 271 270 270
281 279 280 282 282 281 282 283 282 283 285 288 287 285 282 282 284 281 276 277 275 275 277 277 278 276 276 276 275 274 273 273 272 272 271 269 268 268 269 269 269 269 270 269
277 277 278 279 281 280 280 281 280 282 283 284 285 281 279 283 279 275 277 276 276 277 277 278 277 276 275 275 275 274 273 273 272 271 270 270 270 270 270 269 269 270 270 270

GFSNW_sfc_thetae_117.txt.gz
Theta_e
301 300 300 300 300 300 296 299 291 301 303 292 293 288 287 286 288 291 289 289 287 286 286 284 285 285 287 292 291 285 288 285 281 283 291 295 295 289 289 283 283 286 286 287
301 300 300 300 300 300 300 293 294 301 299 287 287 288 286 288 287 287 287 287 288 290 286 282 286 287 291 292 290 287 288 284 278 283 287 290 289 291 290 290 290 285 283 286
300 300 301 300 300 300 298 295 288 292 294 295 289 285 285 285 289 287 288 288 289 288 285 288 285 286 290 292 291 291 291 285 281 277 282 285 283 288 291 290 286 286 287 289
300 301 300 300 301 300 298 295 289 292 284 288 288 288 286 284 283 288 289 286 287 286 282 284 284 287 288 290 291 290 289 282 284 285 286 287 288 289 289 289 289 286 290 290
301 301 301 301 301 300 296 289 290 291 291 290 288 285 284 284 285 285 285 285 286 287 283 284 283 287 287 285 290 288 290 283 285 283 288 288 287 290 290 289 290 291 291 290
301 301 301 301 302 299 294 296 297 292 288 287 286 286 285 284 286 287 288 287 286 285 287 290 291 291 290 290 288 287 287 285 284 279 286 285 284 288 290 291 293 292 289 295
301 301 301 301 302 299 297 297 296 290 285 286 285 284 285 285 286 285 287 288 286 289 294 293 293 293 292 293 291 292 287 285 285 280 283 276 287 293 294 292 293 295 295 296
299 301 301 301 301 300 297 298 294 290 285 286 285 285 285 287 288 286 286 289 291 294 291 286 284 285 286 288 290 290 292 287 283 279 280 284 287 290 290 289 291 298 297 300
300 301 301 300 301 300 298 297 298 293 287 286 287 286 287 285 285 286 288 292 294 293 288 285 279 277 282 281 284 291 291 291 285 282 277 275 286 291 295 295 287 296 297 299
301 301 300 300 300 300 298 296 300 293 287 290 289 286 286 289 287 285 287 288 289 292 286 282 280 280 284 280 280 282 284 285 282 283 281 283 291 293 297 284 285 296 292 298
301 300 300 300 300 300 299 297 300 294 288 291 291 291 288 288 288 284 288 287 289 287 283 283 283 282 284 283 285 283 281 281 282 284 280 278 294 292 286 291 297 294 295 297
300 300 300 300 300 300 300 295 300 299 292 290 297 296 296 293 292 289 291 287 285 289 286 287 285 282 285 283 279 289 281 284 282 283 284 291 292 290 294 295 293 292 297 301
300 300 300 300 299 299 299 298 298 297 292 290 290 289 295 298 296 297 287 289 290 290 293 289 287 281 286 281 281 284 287 291 285 285 288 287 286 288 290 292 291 292 295 298
300 299 299 299 299 300 299 296 299 295 292 285 288 296 294 298 298 297 296 293 295 294 293 288 286 283 288 284 285 283 286 288 285 285 288 288 288 287 288 289 289 291 290 295
299 299 299 299 299 299 301 301 300 299 291 285 287 294 295 296 296 295 296 294 291 288 286 285 283 288 287 288 287 284 288 284 282 281 286 285 286 287 288 286 287 287 289 290
298 299 299 299 299 299 297 288 298 300 298 289 283 293 293 295 296 294 293 293 291 289 287 285 287 291 288 283 282 287 288 288 286 284 287 288 287 289 288 288 287 287 286 288
298 298 298 298 299 299 292 291 297 299 298 289 283 286 293 294 295 293 291 292 291 289 288 286 287 289 290 286 282 288 287 287 287 288 288 286 285 283 286 288 290 289 288 288
298 298 298 298 298 297 293 299 298 299 293 292 282 284 288 294 287 285 291 288 289 288 288 289 287 290 289 283 287 287 287 287 286 287 288 285 286 287 286 287 288 288 286 286
298 297 297 297 293 290 294 296 295 296 291 285 284 283 282 293 289 290 288 289 283 290 286 287 288 286 282 285 285 284 284 284 282 286 286 285 284 284 285 284 284 284 284 285
297 296 288 284 292 297 296 293 288 289 289 289 283 289 285 291 288 287 287 288 285 282 286 290 286 285 285 284 284 284 284 284 283 282 281 280 280 281 282 282 282 282 282 282
293 288 288 295 298 294 290 283 282 284 282 286 287 288 287 293 286 285 290 286 287 281 285 284 284 283 280 284 283 284 284 283 282 282 281 279 278 278 279 280 280 280 279 279
293 294 296 295 290 285 282 281 284 283 281 288 285 287 290 291 294 288 289 284 286 280 290 284 281 279 281 282 281 282 282 281 280 280 279 278 276 276 277 277 276 276 276 277
296 291 287 285 284 278 278 277 280 282 288 289 288 285 289 291 291 288 286 280 282 290 283 281 279 280 281 281 281 280 280 279 278 277 277 276 275 274 273 273 274 275 275 275
287 283 279 282 280 282 284 284 286 290 291 290 287 286 287 289 286 287 282 285 285 281 279 277 279 280 279 280 280 278 276 275 275 274 273 273 273 272 272 272 273 273 273 274
285 283 280 281 285 286 286 288 288 288 291 290 288 289 288 286 284 285 285 282 279 278 277 277 279 279 279 278 278 277 275 274 274 274 272 271 271 272 271 272 273 273 272 273
284 282 281 284 284 282 284 285 284 289 289 292 292 285 283 283 285 282 280 279 278 278 279 280 280 278 278 277 277 276 275 275 274 274 273 272 271 271 272 272 272 272 272 272
280 280 282 282 283 283 282 284 283 287 286 285 286 281 280 287 282 279 282 278 279 279 279 280 279 278 277 277 277 276 275 275 274 273 273 273 273 273 273 272 272 273 273 273

GFSNW_sfc_thetae_120.txt.gz
Theta_e
301 301 300 300 300 299 296 298 291 302 304 292 293 289 289 287 290 291 289 289 287 286 286 284 284 284 287 291 291 285 289 285 278 282 289 292 290 286 287 281 280 284 284 284
301 300 300 300 300 300 298 292 294 301 300 287 288 290 288 288 288 288 288 287 288 289 286 282 285 286 291 291 289 287 288 282 277 279 285 288 285 287 289 289 289 283 281 284
301 301 300 301 300 300 298 295 288 292 293 293 290 288 287 286 289 288 289 287 289 287 285 288 284 285 289 291 290 291 291 285 280 276 280 285 282 286 288 289 283 284 285 287
301 301 300 301 300 300 296 295 290 293 286 288 289 290 287 285 284 288 289 287 286 285 283 284 283 286 287 289 292 290 289 281 284 284 285 286 286 287 289 287 288 284 287 288
302 301 301 301 300 300 295 290 290 292 289 291 288 287 286 285 286 286 285 285 286 287 284 284 282 285 285 285 288 287 289 282 285 283 286 286 284 288 289 289 289 289 290 290
302 301 302 301 301 300 293 296 296 292 289 288 287 287 286 286 288 288 288 287 285 284 286 289 289 290 289 288 286 286 287 285 283 279 284 284 282 285 287 288 292 293 288 293
302 301 302 302 302 300 297 297 295 289 284 286 286 287 288 287 287 285 288 289 286 289 293 292 291 290 290 290 290 292 287 286 284 280 283 275 286 292 291 289 289 292 293 296
301 301 301 302 302 302 296 298 294 290 285 288 287 287 287 287 288 286 287 288 291 294 290 284 282 283 285 287 290 290 291 287 282 279 279 282 286 289 288 287 288 291 292 294
301 300 301 301 301 301 298 298 299 293 287 286 289 287 287 284 285 286 288 292 294 292 286 283 278 276 280 280 284 291 290 290 284 282 277 275 284 290 294 295 284 292 293 292
301 300 300 301 301 300 298 297 301 294 288 290 290 286 286 289 287 284 288 289 288 292 285 281 279 279 284 279 279 281 283 284 281 281 280 283 287 291 295 279 282 292 290 292
301 300 300 301 301 300 298 297 301 295 289 290 292 291 288 289 288 284 288 287 288 286 282 282 282 281 283 282 284 283 281 280 280 281 279 277 288 289 283 287 291 290 288 293
301 300 301 301 300 300 300 295 300 300 293 291 296 296 297 294 293 289 290 287 287 288 284 286 285 282 284 282 278 288 281 284 282 283 282 287 288 286 288 290 289 289 288 295
300 300 301 301 301 300 299 298 300 296 291 290 290 290 295 297 296 297 287 289 290 290 293 288 286 281 285 280 281 283 286 289 284 284 286 286 286 287 287 288 287 290 289 293
300 300 300 300 300 300 299 297 300 296 292 285 288 296 294 297 297 295 295 292 294 294 293 287 285 282 288 283 284 284 287 288 284 285 286 286 288 286 286 287 287 287 290 290
300 300 300 300 300 300 300 301 301 299 291 285 287 294 296 296 296 294 295 293 291 289 287 285 283 287 286 287 288 286 289 285 282 281 286 284 286 287 287 288 286 287 287 288
299 299 300 300 300 300 298 288 298 300 298 289 283 293 293 295 295 293 292 293 291 290 287 286 287 290 286 282 282 287 289 288 287 286 287 287 287 288 287 287 288 287 286 287
298 298 299 299 299 299 292 291 296 300 300 289 284 285 291 294 294 293 292 294 292 290 288 286 286 287 289 285 281 288 288 288 288 289 288 286 285 283 286 287 288 290 288 288
297 298 298 298 298 298 293 299 299 301 294 291 282 284 288 294 289 287 293 289 290 289 287 289 286 288 288 282 287 288 288 287 287 287 289 287 288 288 287 287 286 286 285 285
297 298 298 296 293 290 293 297 299 300 293 284 285 281 282 293 289 290 288 289 283 289 285 285 287 285 282 286 286 286 285 285 284 286 288 286 284 283 284 284 283 282 282 283
297 295 288 284 291 297 296 293 289 288 289 289 283 288 283 290 289 287 287 287 284 282 285 289 285 283 286 286 285 285 285 285 284 281 280 280 280 280 281 281 281 280 280 280
292 288 287 295 298 294 289 283 283 284 281 286 286 286 286 294 286 286 289 285 286 280 285 284 283 282 281 284 283 284 284 284 282 282 281 279 278 277 278 278 278 278 277 277
293 294 296 294 289 286 282 280 283 282 279 287 285 287 289 291 294 288 289 284 285 279 289 284 280 279 282 282 282 282 282 281 280 280 278 277 276 275 276 275 275 275 276 275
297 291 286 285 284 278 277 275 279 281 287 289 289 285 289 291 292 288 286 281 281 289 283 280 278 280 281 281 281 280 280 279 278 277 276 276 275 274 273 273 274 275 274 274
287 283 278 280 278 281 282 284 285 290 292 291 290 286 287 290 286 286 280 285 285 280 279 276 279 280 280 280 280 278 275 274 275 273 273 272 273 273 273 272 274 273 273 274
285 284 279 281 286 286 287 290 289 290 293 291 288 288 287 285 284 285 284 281 279 279 275 278 279 280 279 278 278 277 275 275 274 274 272 271 271 272 272 272 273 273 273 273
284 282 280 285 284 283 286 285 285 289 290 292 291 286 283 282 284 282 280 279 277 277 278 279 280 278 278 277 277 276 276 276 275 274 274 272 271 271 272 272 273 272 272 271
281 282 283 283 284 282 282 284 284 287 286 285 286 281 281 286 282 280 280 277 278 279 279 280 279 278 277 277 276 276 276 275 275 274 273 273 274 274 274 272 273 273 273 273

GFSNW_sfc_thetae_123.txt.gz
Theta_e
301 302 301 300 299 299 295 292 285 298 299 287 288 284 290 289 289 291 288 288 287 284 285 282 282 281 285 291 289 283 285 279 276 278 285 289 288 284 284 279 278 280 279 278
302 301 300 300 299 300 294 289 290 297 296 281 282 288 288 288 287 288 288 287 289 288 284 280 284 284 289 289 288 285 284 277 273 277 282 287 283 285 286 287 286 280 277 280
301 301 300 300 299 300 294 290 284 288 289 289 287 285 285 284 289 287 288 287 287 285 283 286 283 284 288 289 289 293 289 281 279 273 276 282 280 284 286 286 281 282 282 285
301 301 300 300 300 300 293 290 286 290 281 284 285 286 287 285 284 288 288 285 285 283 280 282 282 284 284 287 290 287 284 275 279 281 284 284 283 284 286 284 287 282 285 286
302 301 301 301 300 300 291 286 285 289 286 289 286 286 285 285 286 286 285 283 285 284 280 282 279 282 282 281 285 283 284 277 282 280 284 284 283 286 286 287 287 288 289 288
302 301 301 302 301 299 289 291 292 288 287 284 282 283 285 285 287 287 288 286 283 282 284 285 285 286 285 285 282 281 281 280 279 276 283 282 280 284 285 285 287 287 283 290
302 302 302 301 301 300 293 293 291 285 281 283 283 287 288 287 287 284 287 287 283 287 290 289 288 287 286 286 285 286 281 280 281 278 280 272 284 289 288 287 286 287 287 290
302 301 302 302 301 301 294 294 291 286 280 284 285 286 286 286 286 284 285 287 289 290 287 280 279 279 281 284 288 288 288 284 279 277 277 281 282 284 285 284 285 288 286 289
302 301 302 302 302 301 295 293 294 288 280 281 287 284 285 280 279 281 286 290 291 288 282 278 275 273 278 278 283 290 289 287 280 279 276 274 279 285 289 290 280 288 287 288
302 301 301 302 301 301 296 293 295 289 280 285 287 282 282 286 282 279 283 287 286 287 277 276 275 275 283 276 277 279 279 279 278 278 277 280 283 287 289 277 278 287 286 289
301 301 301 301 301 301 295 292 295 290 284 286 290 291 286 285 284 279 284 283 284 280 276 276 275 276 280 279 282 281 278 277 274 279 276 272 285 285 279 284 288 288 286 290
301 301 300 300 301 301 299 290 296 297 287 286 292 292 293 291 290 285 284 283 284 285 279 282 280 277 276 278 272 283 278 280 278 280 279 286 286 284 286 287 286 287 287 289
301 301 301 300 301 300 298 291 294 292 286 285 285 286 292 295 292 292 282 284 289 285 287 279 278 275 278 273 275 277 284 287 280 281 283 284 284 286 286 288 286 288 289 290
301 301 300 301 301 300 299 291 294 291 287 276 283 294 291 295 293 291 291 288 289 289 287 279 277 277 283 276 280 276 281 282 279 281 284 285 286 285 285 287 287 286 288 288
301 301 300 301 301 300 296 294 294 295 287 281 282 290 292 294 293 291 290 288 286 283 281 277 276 281 281 282 281 274 284 278 274 273 283 283 284 286 286 285 287 286 286 287
300 300 299 300 300 299 292 283 293 296 293 282 276 288 289 292 292 290 289 288 286 284 282 279 282 286 281 275 277 284 286 286 284 281 286 287 286 285 286 285 285 288 286 286
300 299 300 300 299 294 287 285 291 298 294 280 276 279 288 292 291 288 288 288 287 285 282 280 281 282 283 277 276 285 287 287 287 287 285 281 282 278 283 285 286 287 286 286
298 298 298 299 299 297 291 292 298 297 289 285 274 277 284 290 282 281 287 284 285 284 282 282 281 283 282 277 285 287 287 287 288 286 288 285 284 284 284 284 284 283 282 282
298 297 297 294 291 288 291 299 298 294 287 276 276 274 273 289 283 286 283 285 280 284 280 280 282 280 277 284 285 283 284 283 282 285 283 283 281 281 282 281 280 279 279 279
297 292 287 282 287 298 297 291 285 285 282 283 278 282 278 288 282 277 280 281 278 274 281 285 279 278 283 284 284 284 283 282 282 279 276 277 276 277 278 277 277 277 277 277
291 284 285 290 298 290 287 279 277 276 277 281 281 281 280 290 279 278 281 277 279 276 280 281 280 278 281 283 283 283 282 280 279 279 277 275 275 275 275 275 275 276 275 275
290 291 293 290 287 281 276 275 277 278 277 280 278 279 283 287 290 280 281 279 279 275 285 281 276 278 280 280 279 279 278 278 277 277 276 275 274 274 274 274 273 274 273 272
293 289 284 282 278 268 270 268 274 272 279 281 281 279 284 285 287 280 278 277 273 283 275 274 274 279 279 279 278 276 277 276 275 274 274 274 273 273 273 272 273 273 273 272
285 278 274 274 270 274 276 276 277 281 282 285 284 281 281 281 279 281 278 278 278 277 276 273 277 278 278 278 277 275 273 274 273 272 272 271 272 271 271 270 272 272 271 271
279 279 269 273 279 281 282 282 283 285 286 287 282 282 283 279 276 282 280 272 274 276 273 274 277 278 278 277 276 274 274 272 270 266 265 264 265 268 266 267 268 270 268 268
280 280 274 281 281 280 284 282 284 285 285 285 284 281 280 276 278 278 278 275 274 274 275 276 277 276 276 275 273 272 269 270 266 266 269 265 264 263 265 264 265 264 264 263
280 276 279 281 282 280 281 282 282 282 282 279 283 278 277 281 277 277 276 274 274 275 276 276 274 273 272 270 271 270 272 268 267 266 266 266 268 266 267 264 264 264 265 265